[[{"header":{"parameterUnit":"m.s-1","parameterCategory":1,"la1":30.6,"la2":29.2853,"lo1":-89.7004,"lo2":-87.6739,"dy":0.0162,"dx":0.0183,"nx":112,"ny":82,"refTime":"2023-05-19T00:00:00:Z","depth":0,"parameterNumber":2,"parameterNumberName":"U-component_of_WINDS"},"data":[0.0,0.0,0.0,0.0,0.0,0.0,0.0,0.0,0.0,0.0,0.0,0.0,0.0,0.0,0.0,0.0,0.0,0.0,0.0,0.0,0.0,0.0,0.0,0.0,0.0,0.0,0.0,0.0,0.0,0.0,0.0,0.0,0.0,0.0,0.0,0.0,0.0,0.0,0.0,0.0,0.0,0.0,0.0,0.0,0.0,0.0,0.0,0.0,0.0,0.0,0.0,0.0,0.0,0.0,0.0,0.0,0.0,0.0,0.0,0.0,0.0,0.0,0.0,0.0,0.0,0.0,0.0,0.0,0.0,0.0,0.0,0.0,0.0,0.0,0.0,0.0,0.0,0.0,0.0,0.0,0.0,0.0,0.0,0.0,0.0,0.0,0.0,0.0,0.0,0.0,2.6942,2.7344,2.7272,2.6883,2.6136,2.5773,2.5619,2.5679,0.0,0.0,0.0,0.0,0.0,0.0,0.0,0.0,0.0,0.0,0.0,0.0,0.0,0.0,0.0,0.0,0.0,0.0,0.0,0.0,0.0,0.0,0.0,0.0,0.0,0.0,0.0,0.0,0.0,0.0,0.0,0.0,0.0,0.0,0.0,0.0,0.0,0.0,0.0,0.0,0.0,0.0,0.0,0.0,0.0,0.0,0.0,0.0,0.0,0.0,0.0,0.0,0.0,0.0,0.0,0.0,0.0,0.0,0.0,0.0,0.0,0.0,0.0,0.0,0.0,0.0,0.0,0.0,0.0,0.0,0.0,0.0,0.0,0.0,0.0,0.0,0.0,0.0,0.0,0.0,0.0,0.0,0.0,0.0,0.0,0.0,0.0,0.0,0.0,0.0,0.0,0.0,0.0,0.0,0.0,0.0,0.0,0.0,0.0,0.0,0.0,0.0,0.0,0.0,2.6731,2.8899,2.8466,2.794,2.7746,2.6366,2.5531,2.5617,0.0,0.0,0.0,0.0,0.0,0.0,0.0,0.0,0.0,0.0,0.0,0.0,0.0,0.0,0.0,0.0,0.0,0.0,0.0,0.0,0.0,0.0,0.0,0.0,0.0,0.0,0.0,0.0,0.0,0.0,0.0,0.0,0.0,0.0,0.0,0.0,0.0,0.0,0.0,0.0,0.0,0.0,0.0,0.0,0.0,0.0,0.0,0.0,0.0,0.0,0.0,0.0,0.0,0.0,0.0,0.0,0.0,0.0,0.0,0.0,0.0,0.0,0.0,0.0,0.0,0.0,0.0,0.0,0.0,0.0,0.0,0.0,0.0,0.0,0.0,0.0,0.0,0.0,0.0,0.0,0.0,0.0,0.0,0.0,0.0,0.0,0.0,0.0,0.0,0.0,0.0,0.0,0.0,0.0,0.0,0.0,0.0,0.0,0.0,0.0,0.0,0.0,0.0,2.7086,2.7675,2.9318,2.9138,2.851,2.7535,2.6669,2.6036,2.5628,2.5576,0.0,0.0,0.0,0.0,0.0,0.0,0.0,0.0,0.0,0.0,0.0,0.0,0.0,0.0,0.0,0.0,0.0,0.0,0.0,0.0,0.0,0.0,0.0,0.0,0.0,0.0,0.0,0.0,0.0,0.0,0.0,0.0,0.0,0.0,0.0,0.0,0.0,0.0,0.0,0.0,0.0,0.0,0.0,0.0,0.0,0.0,0.0,0.0,0.0,0.0,0.0,0.0,0.0,0.0,0.0,0.0,0.0,0.0,0.0,0.0,0.0,0.0,0.0,0.0,0.0,0.0,0.0,0.0,0.0,0.0,0.0,0.0,0.0,0.0,0.0,0.0,0.0,0.0,0.0,0.0,0.0,0.0,0.0,0.0,0.0,0.0,0.0,0.0,0.0,0.0,0.0,0.0,0.0,0.0,0.0,0.0,0.0,0.0,0.0,0.0,0.0,0.0,2.8086,2.8578,2.9658,2.938,2.859,2.7252,2.6536,2.6008,2.56,2.5337,0.0,0.0,0.0,0.0,0.0,0.0,0.0,0.0,0.0,0.0,0.0,0.0,0.0,0.0,0.0,0.0,0.0,0.0,0.0,0.0,0.0,0.0,0.0,0.0,0.0,0.0,0.0,0.0,0.0,0.0,0.0,0.0,0.0,0.0,0.0,0.0,0.0,0.0,0.0,0.0,0.0,0.0,0.0,0.0,0.0,0.0,0.0,0.0,0.0,0.0,0.0,0.0,0.0,0.0,0.0,0.0,0.0,0.0,0.0,0.0,0.0,0.0,0.0,0.0,0.0,0.0,0.0,0.0,0.0,0.0,0.0,0.0,0.0,0.0,0.0,0.0,0.0,0.0,0.0,0.0,0.0,0.0,0.0,0.0,0.0,0.0,0.0,0.0,0.0,0.0,0.0,0.0,0.0,0.0,0.0,0.0,0.0,0.0,0.0,0.0,0.0,0.0,2.7655,2.8725,3.0347,2.9076,2.8031,2.7856,2.564,2.4632,2.546,2.4749,0.0,0.0,0.0,0.0,0.0,0.0,0.0,0.0,0.0,0.0,0.0,0.0,0.0,0.0,0.0,0.0,0.0,0.0,0.0,0.0,0.0,0.0,0.0,0.0,0.0,0.0,0.0,0.0,0.0,0.0,0.0,0.0,0.0,0.0,0.0,0.0,0.0,0.0,0.0,0.0,0.0,0.0,0.0,0.0,0.0,0.0,0.0,0.0,0.0,0.0,0.0,0.0,0.0,0.0,0.0,0.0,0.0,0.0,0.0,0.0,0.0,0.0,0.0,0.0,0.0,0.0,0.0,0.0,0.0,0.0,0.0,0.0,0.0,0.0,0.0,0.0,0.0,0.0,0.0,0.0,0.0,0.0,0.0,0.0,0.0,0.0,0.0,0.0,0.0,0.0,0.0,0.0,0.0,0.0,0.0,0.0,0.0,0.0,0.0,0.0,0.0,0.0,2.7854,2.865,3.0248,2.994,2.9128,2.7868,2.6976,2.6178,2.5476,0.0,0.0,0.0,0.0,0.0,0.0,0.0,0.0,0.0,0.0,0.0,0.0,0.0,0.0,0.0,0.0,0.0,0.0,0.0,0.0,0.0,0.0,0.0,0.0,0.0,0.0,0.0,0.0,0.0,0.0,0.0,0.0,0.0,0.0,0.0,0.0,0.0,0.0,0.0,0.0,0.0,0.0,0.0,0.0,0.0,0.0,0.0,0.0,0.0,0.0,0.0,0.0,0.0,0.0,0.0,0.0,0.0,0.0,0.0,0.0,0.0,0.0,0.0,0.0,0.0,0.0,0.0,0.0,0.0,0.0,0.0,0.0,0.0,0.0,0.0,0.0,0.0,0.0,0.0,0.0,0.0,0.0,0.0,0.0,0.0,0.0,0.0,0.0,0.0,0.0,0.0,0.0,0.0,0.0,0.0,0.0,0.0,0.0,0.0,0.0,0.0,0.0,2.7756,2.7931,2.8507,3.0113,2.9918,2.9117,2.7795,2.7014,2.6255,2.5421,0.0,0.0,0.0,0.0,0.0,0.0,0.0,0.0,0.0,0.0,0.0,0.0,0.0,0.0,0.0,0.0,0.0,0.0,0.0,0.0,0.0,0.0,0.0,0.0,0.0,0.0,0.0,0.0,0.0,0.0,0.0,0.0,0.0,0.0,0.0,0.0,0.0,0.0,0.0,0.0,0.0,0.0,0.0,0.0,0.0,0.0,0.0,0.0,0.0,0.0,0.0,0.0,0.0,0.0,0.0,0.0,0.0,0.0,0.0,0.0,0.0,0.0,0.0,0.0,0.0,0.0,0.0,0.0,0.0,0.0,0.0,0.0,0.0,0.0,0.0,0.0,0.0,0.0,0.0,0.0,0.0,0.0,0.0,0.0,0.0,0.0,0.0,0.0,0.0,0.0,0.0,0.0,0.0,0.0,0.0,0.0,0.0,0.0,0.0,0.0,0.0,0.0,2.768,2.7765,2.8332,3.001,2.8689,2.7688,2.7592,2.5284,2.4249,0.0,0.0,0.0,0.0,0.0,0.0,0.0,0.0,0.0,0.0,0.0,0.0,0.0,0.0,0.0,0.0,0.0,0.0,0.0,0.0,0.0,0.0,0.0,0.0,0.0,0.0,0.0,0.0,0.0,0.0,0.0,0.0,0.0,0.0,0.0,0.0,0.0,0.0,0.0,0.0,0.0,0.0,0.0,0.0,0.0,0.0,0.0,0.0,0.0,0.0,0.0,0.0,0.0,0.0,0.0,0.0,0.0,0.0,0.0,0.0,0.0,0.0,0.0,0.0,0.0,0.0,0.0,0.0,0.0,0.0,0.0,0.0,0.0,0.0,0.0,0.0,0.0,0.0,0.0,0.0,0.0,0.0,0.0,0.0,0.0,0.0,0.0,0.0,0.0,0.0,0.0,0.0,0.0,0.0,0.0,0.0,0.0,0.0,0.0,0.0,0.0,0.0,0.0,2.7265,2.728,2.7725,2.9326,2.8714,2.791,2.7236,2.605,2.5304,2.5165,0.0,0.0,0.0,0.0,0.0,0.0,0.0,0.0,0.0,0.0,0.0,0.0,0.0,0.0,0.0,0.0,0.0,0.0,0.0,0.0,0.0,0.0,0.0,0.0,0.0,0.0,0.0,0.0,0.0,0.0,0.0,0.0,0.0,0.0,0.0,0.0,0.0,0.0,0.0,0.0,0.0,0.0,0.0,0.0,0.0,0.0,0.0,0.0,0.0,0.0,0.0,0.0,0.0,0.0,0.0,0.0,0.0,0.0,0.0,0.0,0.0,0.0,0.0,0.0,0.0,0.0,0.0,0.0,0.0,0.0,0.0,0.0,0.0,0.0,0.0,0.0,0.0,0.0,0.0,0.0,0.0,0.0,0.0,0.0,0.0,0.0,0.0,0.0,0.0,0.0,0.0,0.0,0.0,0.0,0.0,0.0,0.0,0.0,0.0,0.0,0.0,0.0,2.7075,2.7028,2.7494,2.9147,2.8409,2.7564,2.7045,2.6043,2.5324,2.5043,0.0,0.0,0.0,0.0,0.0,0.0,0.0,0.0,0.0,0.0,0.0,0.0,0.0,0.0,0.0,0.0,0.0,0.0,0.0,0.0,0.0,0.0,0.0,0.0,0.0,0.0,0.0,0.0,0.0,0.0,0.0,0.0,0.0,0.0,0.0,0.0,0.0,0.0,0.0,0.0,0.0,0.0,0.0,0.0,0.0,0.0,0.0,0.0,0.0,0.0,0.0,0.0,0.0,0.0,0.0,0.0,0.0,0.0,0.0,0.0,0.0,0.0,0.0,0.0,0.0,0.0,0.0,0.0,0.0,0.0,0.0,0.0,0.0,0.0,0.0,0.0,0.0,0.0,0.0,0.0,0.0,0.0,0.0,0.0,0.0,0.0,0.0,0.0,0.0,0.0,0.0,0.0,0.0,0.0,0.0,0.0,0.0,0.0,0.0,0.0,0.0,0.0,2.695,2.6958,2.7489,2.9206,2.7865,2.686,2.6935,2.5478,2.4636,2.4842,0.0,0.0,0.0,0.0,0.0,0.0,0.0,0.0,0.0,0.0,0.0,0.0,0.0,0.0,0.0,0.0,0.0,0.0,0.0,0.0,0.0,0.0,0.0,0.0,0.0,0.0,0.0,0.0,0.0,0.0,0.0,0.0,0.0,0.0,0.0,0.0,0.0,0.0,0.0,0.0,0.0,0.0,0.0,0.0,0.0,0.0,0.0,0.0,0.0,0.0,0.0,0.0,0.0,0.0,0.0,0.0,0.0,0.0,0.0,0.0,2.6287,2.5694,0.0,0.0,0.0,0.0,0.0,0.0,0.0,0.0,0.0,0.0,0.0,0.0,0.0,0.0,0.0,0.0,0.0,0.0,0.0,0.0,0.0,0.0,0.0,0.0,0.0,0.0,0.0,0.0,0.0,0.0,0.0,0.0,0.0,0.0,0.0,0.0,0.0,0.0,0.0,0.0,2.6583,2.6933,2.7514,2.8535,2.7217,2.6304,2.645,2.5071,2.4321,2.457,2.4659,0.0,0.0,0.0,0.0,0.0,0.0,0.0,0.0,0.0,0.0,0.0,0.0,0.0,0.0,0.0,0.0,0.0,0.0,0.0,0.0,0.0,0.0,0.0,0.0,0.0,0.0,0.0,0.0,0.0,0.0,0.0,0.0,0.0,0.0,0.0,0.0,0.0,0.0,0.0,0.0,0.0,0.0,0.0,0.0,0.0,0.0,0.0,0.0,0.0,0.0,0.0,0.0,0.0,0.0,0.0,0.0,0.0,0.0,0.0,2.6855,2.6287,0.0,0.0,0.0,0.0,0.0,0.0,0.0,0.0,0.0,0.0,0.0,0.0,0.0,0.0,0.0,0.0,0.0,0.0,0.0,0.0,0.0,0.0,0.0,0.0,0.0,0.0,0.0,0.0,0.0,0.0,0.0,0.0,0.0,0.0,0.0,0.0,0.0,0.0,0.0,0.0,2.5216,2.5668,2.6619,2.8366,2.7,2.6045,2.6291,2.4986,2.421,2.4337,2.4505,0.0,0.0,0.0,0.0,0.0,0.0,0.0,0.0,0.0,0.0,0.0,0.0,0.0,0.0,0.0,0.0,0.0,0.0,0.0,0.0,0.0,0.0,0.0,0.0,0.0,0.0,0.0,0.0,0.0,0.0,0.0,0.0,0.0,0.0,0.0,0.0,0.0,0.0,0.0,0.0,0.0,0.0,0.0,0.0,0.0,0.0,0.0,0.0,0.0,0.0,0.0,0.0,0.0,2.8592,2.8668,2.8511,2.8816,2.8845,2.8603,2.7871,2.7304,2.6847,2.6172,0.0,0.0,0.0,0.0,0.0,0.0,0.0,0.0,0.0,0.0,0.0,0.0,0.0,0.0,0.0,0.0,0.0,0.0,0.0,0.0,0.0,0.0,2.1165,2.0977,1.9882,1.9295,2.0672,0.0,0.0,0.0,0.0,0.0,0.0,0.0,0.0,0.0,0.0,0.0,2.3718,2.4573,2.6062,2.8337,2.6932,2.5931,2.6204,2.4944,2.4152,2.4154,2.4391,2.4543,0.0,0.0,0.0,0.0,0.0,0.0,0.0,0.0,0.0,0.0,0.0,0.0,0.0,0.0,0.0,0.0,0.0,0.0,0.0,0.0,0.0,0.0,0.0,0.0,0.0,0.0,0.0,0.0,0.0,0.0,0.0,0.0,2.7222,2.7414,0.0,0.0,0.0,0.0,0.0,0.0,0.0,0.0,0.0,0.0,0.0,0.0,0.0,2.8294,2.9154,2.9234,2.8906,2.8223,2.9745,3.0078,2.939,3.0853,3.1137,3.0451,3.0273,0.0,2.6887,2.6782,0.0,0.0,0.0,0.0,0.0,0.0,0.0,0.0,0.0,0.0,0.0,0.0,0.0,0.0,0.0,0.0,0.0,0.0,0.0,0.0,0.0,0.0,1.8882,1.8686,1.7781,1.7027,1.7254,1.8533,1.9707,1.9959,2.0653,2.0958,0.0,0.0,0.0,0.0,0.0,0.0,2.31,2.5669,2.7679,2.7984,2.6798,2.5991,2.6033,2.4693,2.3896,2.4016,2.4114,2.4284,2.4512,2.4405,0.0,0.0,0.0,0.0,0.0,0.0,0.0,0.0,0.0,0.0,0.0,0.0,0.0,0.0,0.0,0.0,0.0,0.0,0.0,0.0,0.0,0.0,0.0,0.0,0.0,0.0,0.0,0.0,0.0,2.666,2.6953,2.7987,2.7376,2.6939,0.0,0.0,0.0,0.0,0.0,0.0,0.0,0.0,0.0,2.9882,2.9196,2.9511,3.0948,3.0996,3.0808,3.0407,3.1627,3.1743,3.0942,3.2163,3.2499,3.2064,3.1584,3.0447,2.8846,2.7912,2.7298,2.6904,0.0,0.0,0.0,0.0,2.5663,2.5872,2.5324,2.5355,2.5548,2.4922,0.0,0.0,0.0,0.0,0.0,0.0,0.0,2.1952,2.1223,1.9485,1.7808,1.7216,1.6067,1.5197,1.5424,1.6096,1.6903,1.7885,1.7526,1.7535,1.9064,1.9123,0.0,0.0,0.0,2.182,2.2327,2.4001,2.5843,2.7719,2.6896,2.6171,2.6002,2.5064,2.4345,2.4032,2.4074,2.4171,2.4321,2.4301,2.4388,0.0,0.0,0.0,0.0,0.0,0.0,0.0,0.0,0.0,0.0,0.0,0.0,0.0,0.0,0.0,0.0,0.0,0.0,0.0,0.0,0.0,0.0,0.0,0.0,0.0,0.0,0.0,0.0,2.6981,2.7298,2.8644,2.8246,2.7916,0.0,0.0,0.0,0.0,0.0,0.0,3.0342,2.9813,3.0073,3.1328,3.0637,3.1053,3.2744,3.2538,3.2419,3.2411,3.301,3.2945,3.235,3.3191,3.3405,3.3073,3.2677,3.1855,3.0672,2.8996,2.8039,2.7602,2.7144,2.6808,2.6497,2.6102,2.6092,2.6208,2.5446,2.5371,2.5448,2.4678,2.4381,2.4295,2.4199,0.0,0.0,0.0,0.0,2.1147,2.0288,1.8535,1.6746,1.5865,1.509,1.4612,1.4758,1.4681,1.4968,1.6159,1.5321,1.5246,1.7883,1.7546,0.0,1.7505,1.9137,2.0693,2.1695,2.3106,2.4985,2.7522,2.7028,2.6453,2.6325,2.5492,2.4773,2.4342,2.4125,2.4094,2.417,2.4192,2.4211,2.4247,0.0,0.0,0.0,0.0,0.0,0.0,0.0,0.0,0.0,0.0,0.0,0.0,0.0,0.0,0.0,0.0,0.0,0.0,0.0,0.0,0.0,0.0,0.0,0.0,0.0,0.0,0.0,0.0,0.0,2.9495,2.9286,0.0,0.0,0.0,0.0,2.9641,2.9533,2.9945,3.1075,3.111,3.1988,3.3943,3.3237,3.3382,3.4566,3.3747,3.3294,3.3239,3.3278,3.3245,3.3164,3.3974,3.3897,3.3151,3.3866,3.3214,3.151,2.9841,2.8154,2.6738,2.7465,2.7198,2.6489,2.7159,2.6859,2.6065,2.577,2.5147,2.4429,2.4039,2.3883,2.3787,2.3605,2.3627,0.0,0.0,2.1068,1.8866,1.7985,1.6676,1.5362,1.445,1.5174,1.5952,1.536,1.536,1.5359,1.5058,1.5877,1.6335,1.5408,0.0,1.7261,1.5853,1.9143,2.1693,2.1376,2.4647,2.7121,2.7474,2.7084,2.689,2.7115,2.5769,2.4964,2.5124,2.4374,2.3976,2.4094,2.3996,2.3979,2.4116,2.4059,0.0,0.0,0.0,0.0,0.0,0.0,0.0,0.0,0.0,0.0,0.0,0.0,0.0,0.0,0.0,0.0,0.0,0.0,0.0,0.0,0.0,0.0,0.0,0.0,0.0,0.0,0.0,0.0,3.0198,3.0234,0.0,3.0567,3.0332,3.0716,3.2053,3.2188,3.2876,3.4405,3.4326,3.4826,3.6156,3.5503,3.5627,3.6684,3.5912,3.5227,3.4649,3.4659,3.4378,3.3881,3.4728,3.4959,3.4685,3.443,3.3921,3.3224,3.202,3.0508,2.8964,2.8632,2.828,2.7902,2.7561,2.7176,2.6709,2.5946,2.5412,2.4891,2.4057,2.3535,2.3354,2.371,2.3701,2.3404,2.2613,2.1107,1.9479,1.8283,1.7002,1.5975,1.5808,1.6037,1.6311,1.6365,1.6315,1.6233,1.6364,1.6189,1.6008,1.5992,1.6573,1.7115,1.7089,1.8461,2.0196,2.2099,2.3552,2.5218,2.7285,2.7355,2.7035,2.6487,2.5925,2.5285,2.4468,2.4101,2.3976,2.4094,2.3917,2.3855,2.3915,2.381,2.3813,0.0,0.0,0.0,0.0,0.0,0.0,0.0,0.0,0.0,0.0,0.0,0.0,0.0,0.0,0.0,0.0,0.0,0.0,0.0,0.0,0.0,0.0,0.0,0.0,0.0,2.9166,2.9917,3.0859,3.141,3.1793,3.1968,3.2014,3.2576,3.3894,3.4251,3.4991,3.6321,3.6363,3.672,3.7508,3.7116,3.7208,3.7883,3.7147,3.6435,3.5803,3.5541,3.511,3.4589,3.522,3.5502,3.5502,3.4962,3.4513,3.4128,3.347,3.2387,3.1046,3.0405,2.9775,2.9178,2.8742,2.8173,2.7451,2.6377,2.5847,2.5466,2.4676,2.4122,2.385,2.4205,2.3756,2.2928,2.2247,2.0653,1.8941,1.7932,1.692,1.6151,1.6081,1.6361,1.6701,1.6807,1.6848,1.6993,1.7566,1.6839,1.6304,1.694,1.7105,1.7529,1.8527,1.8896,2.0122,2.2885,2.3422,2.4523,2.7098,2.7478,2.7192,2.6326,2.6495,2.5968,2.4486,2.4441,2.4333,2.3996,2.3937,2.3896,2.3828,2.3682,2.366,2.3771,0.0,0.0,0.0,0.0,0.0,0.0,0.0,0.0,0.0,0.0,0.0,0.0,0.0,0.0,0.0,0.0,0.0,0.0,0.0,0.0,0.0,0.0,0.0,2.8362,3.019,3.1546,3.1582,3.2854,3.3653,3.3512,3.434,3.4907,3.5029,3.5501,3.6069,3.6634,3.7055,3.7528,3.805,3.8059,3.8101,3.8163,3.7342,3.6821,3.6612,3.5778,3.5359,3.53,3.543,3.5463,3.5412,3.5541,3.504,3.4131,3.4059,3.354,3.2768,3.2632,3.1591,3.0205,3.0714,2.9814,2.8221,2.7015,2.6336,2.5991,2.5825,2.557,2.5282,2.5074,2.373,2.2211,2.204,1.9675,1.7091,1.6803,1.6336,1.5745,1.5034,1.6149,1.7208,1.6777,1.695,1.7556,1.8543,1.7961,1.7479,1.8038,1.8147,1.8566,1.9773,2.048,0.0,2.3611,2.4385,2.5358,2.6983,2.7396,2.7373,2.6828,2.7369,2.6951,2.519,2.5373,2.5023,2.3834,2.3999,2.4019,2.3876,2.3692,2.3562,2.3504,0.0,0.0,0.0,0.0,0.0,0.0,0.0,0.0,0.0,0.0,0.0,0.0,0.0,0.0,0.0,0.0,0.0,0.0,0.0,0.0,0.0,2.9257,3.0698,3.1082,3.1478,3.209,3.3127,3.3609,3.3869,3.3911,3.4004,3.4488,3.5632,3.6039,3.6812,3.8125,3.8657,3.9136,3.9578,3.9635,3.9608,3.9487,3.8098,3.7332,3.7166,3.5718,3.5086,3.5155,3.5187,3.5254,3.5324,3.5412,3.5244,3.4894,3.494,3.4776,3.4372,3.3056,3.1884,3.0956,3.0922,2.9718,2.7972,2.6933,2.6425,2.6162,2.5843,2.5535,2.5342,2.5579,2.4377,2.2808,2.2171,2.0425,1.853,1.7414,1.6929,1.6779,1.6842,1.7179,1.7637,1.8085,1.8277,1.8597,1.9349,1.9359,1.9202,1.9081,1.8869,1.8869,1.9239,1.9419,2.0466,2.3054,2.3538,2.4762,2.7731,2.7556,2.7085,2.6691,2.6293,2.5536,2.4299,2.4328,2.4218,2.3876,2.3834,2.3703,2.3481,2.3508,2.344,0.0,0.0,0.0,0.0,0.0,0.0,0.0,0.0,0.0,0.0,0.0,0.0,0.0,0.0,0.0,0.0,0.0,0.0,0.0,0.0,0.0,0.0,2.9986,3.1679,3.2913,3.3046,3.3328,3.4155,3.4572,3.4802,3.4809,3.4785,3.5163,3.6197,3.6629,3.7461,3.8846,3.9373,3.9886,4.0422,4.049,4.0393,4.0137,3.8864,3.8119,3.7921,3.6253,3.5685,3.6134,3.5479,3.5414,3.579,3.5532,3.5315,3.5171,3.4859,3.4901,3.51,0.0,0.0,0.0,0.0,2.9883,2.8421,2.7812,2.7474,2.7229,2.6808,2.646,2.6266,2.6358,2.5092,2.3514,2.3044,2.1016,1.8814,1.8095,1.7331,1.6884,1.7243,1.7678,1.813,1.8546,1.9007,1.9409,1.9761,1.9952,0.0,1.9914,1.9565,1.9344,1.9656,1.9303,2.0104,2.3225,2.3373,2.4443,2.7677,2.7717,2.715,2.6281,2.6383,0.0,0.0,0.0,2.4447,2.3996,2.3831,0.0,0.0,0.0,2.3785,2.3474,2.3711,0.0,0.0,2.0472,1.8893,0.0,0.0,0.0,0.0,0.0,0.0,0.0,0.0,0.0,0.0,0.0,0.0,0.0,0.0,0.0,0.0,3.0369,3.1809,3.394,3.4547,3.4762,3.4805,3.5496,3.5932,3.5861,3.6079,3.6343,3.6701,3.7228,3.8016,3.9126,3.9517,0.0,0.0,0.0,4.065,4.0301,3.9525,3.8996,3.8702,3.7147,3.6786,3.7448,3.6074,3.5764,3.6342,3.5681,3.5326,3.5152,3.4375,3.4511,3.5164,3.5034,3.4466,3.3539,3.1714,3.0312,2.9348,2.9191,0.0,0.0,2.8174,2.7829,2.7552,2.7181,2.5756,2.4164,2.4034,2.1404,1.8651,1.8691,1.7598,1.6633,1.7014,1.7846,1.8549,1.8557,1.9328,1.9989,1.9934,2.0148,2.0422,2.066,2.0118,1.9811,2.051,1.9708,2.0216,2.3558,2.3557,2.4325,2.7127,2.7781,0.0,2.6133,2.7184,2.6779,2.4151,2.493,2.5079,2.4218,2.4021,2.3891,2.3791,2.4337,2.4416,2.4009,2.4464,2.3629,2.1598,2.0694,1.9461,0.0,0.0,0.0,0.0,0.0,0.0,0.0,0.0,0.0,0.0,0.0,0.0,0.0,0.0,0.0,3.023,3.1709,3.3017,3.3769,3.4551,3.5103,3.5402,3.5582,3.5844,3.6174,3.6284,3.6701,3.7524,3.7738,3.8321,3.9513,3.9662,4.0043,4.0778,4.08,4.0643,4.0301,3.9728,3.9235,3.8842,3.798,0.0,3.6776,3.6466,3.6048,3.5522,3.5441,3.5335,3.519,3.5082,3.5057,3.5053,3.4334,3.3828,3.3352,3.2276,3.1213,3.0309,3.0111,2.9572,2.8858,2.8281,2.7897,2.7612,2.7149,2.5692,0.0,2.2962,2.1388,1.9705,1.8332,1.7897,1.7834,1.7832,1.8072,1.8513,1.9335,1.9786,2.0145,2.066,2.1051,2.1361,2.141,2.0409,1.9811,2.051,1.9708,1.9867,2.2358,2.318,2.4424,2.6773,2.7597,2.8007,2.8051,2.7565,2.6637,2.5181,2.4509,2.4309,2.4644,2.4631,2.4748,2.5033,2.5165,2.5065,2.4723,2.4709,2.4723,2.4637,2.0702,1.7731,0.0,0.0,0.0,0.0,0.0,0.0,0.0,0.0,0.0,0.0,0.0,2.9745,2.9516,0.0,3.0922,3.1361,3.2433,3.3387,3.3955,3.4745,3.535,3.5577,3.5667,3.5915,3.6457,3.658,3.6981,3.7808,3.7946,3.8499,3.964,3.9702,4.0043,4.0778,4.0801,4.0696,4.0455,4.0226,3.9964,3.9688,3.8917,3.8574,3.856,3.7288,3.6689,3.6618,3.5836,3.543,3.5304,3.5345,3.5032,3.4547,3.4549,3.411,3.3389,3.2934,3.1892,3.0658,3.0378,2.9747,2.8952,2.8316,2.7992,2.7783,2.7227,2.6362,2.5299,2.3903,2.237,2.0845,1.9549,1.8843,1.8585,1.8836,1.9169,1.9555,2.0093,2.0523,2.0833,2.1023,2.1505,2.1902,2.1902,2.1153,2.0709,2.1055,2.0207,2.0534,2.3367,2.3767,2.4885,2.7744,2.837,2.8536,2.8315,2.7438,2.6636,2.6033,2.5336,2.5095,2.538,2.5272,2.5268,2.5401,2.5649,2.5657,2.5411,2.5612,2.5223,2.4205,2.0649,1.8375,0.0,0.0,0.0,0.0,0.0,0.0,0.0,3.0462,3.1158,3.1157,3.1426,3.1636,3.1654,3.1786,3.1994,3.2292,3.2932,3.3664,3.435,3.4991,3.5515,3.5783,3.5871,3.6156,3.6803,3.6999,3.736,3.8013,3.8183,3.8685,3.9681,3.9745,4.0062,4.0778,4.0811,4.0758,4.0605,4.0726,4.0695,4.0537,3.9874,3.9867,4.0366,3.8302,3.753,3.7726,3.625,3.5534,3.5407,3.5411,3.4966,3.4347,3.5025,3.4706,3.3828,3.3711,3.2668,3.1231,3.0765,3.0037,2.9246,2.8448,2.8156,2.7964,2.7352,2.7117,2.6667,2.4829,2.326,2.1878,2.0783,1.9778,1.9245,1.9965,2.0466,2.0837,2.0846,2.1321,2.1655,2.151,2.1988,2.2466,2.2634,2.2392,2.2161,2.1988,2.1185,2.1685,2.4721,2.482,2.5688,2.8559,2.9117,2.9022,2.8366,2.7487,2.6923,2.6843,2.635,2.6135,2.6224,2.5992,2.5835,2.583,2.6214,2.6303,2.6056,2.6487,2.5409,2.2929,2.0597,1.9283,2.8652,2.9363,3.0755,3.1515,3.2769,3.4127,0.0,3.4862,3.4147,3.3906,3.3125,3.2258,3.1658,3.1973,3.2446,3.2789,3.3567,3.4333,3.4833,3.5178,3.5722,3.6557,3.6474,3.658,3.7264,3.7542,3.7998,3.8634,3.8773,3.9117,3.9827,3.9868,4.0154,4.079,4.0858,4.0808,4.0603,4.089,4.0925,4.0675,4.0766,4.0446,3.9793,3.9518,3.854,3.7055,3.6049,3.556,3.5502,3.5483,3.5391,3.5249,3.5304,3.5168,3.499,3.4718,3.3975,3.2966,3.1983,3.1028,3.0079,2.8986,2.8352,2.7926,2.7517,2.7334,2.6657,2.3749,2.2934,2.2518,2.0555,1.9961,2.0092,2.0984,2.1342,2.1541,2.1805,2.1988,2.2267,2.279,2.3142,2.3533,2.4148,2.4337,2.4174,2.3389,2.2897,2.3148,2.4659,2.5968,2.6969,2.7546,2.8825,2.9578,2.9439,2.852,2.7857,2.768,2.6626,2.6339,2.7033,2.6792,2.6884,2.7337,2.7291,2.7046,2.6606,2.6657,2.5384,2.2859,2.0565,1.8506,3.055,3.1352,3.2469,3.3303,3.4633,3.5784,3.5893,3.5821,3.5653,3.5403,3.4703,3.4157,3.4066,3.3707,3.3437,3.3466,3.4088,3.4576,3.4814,3.5742,3.6516,3.6935,3.7167,3.7413,3.7774,3.7913,3.8216,3.8803,3.8862,3.9189,3.9848,3.9888,4.0191,4.079,4.0867,4.0851,4.0784,4.0994,4.1038,4.0935,4.0972,4.0816,4.0443,3.9979,3.9066,3.7817,3.6878,3.6454,3.6387,3.5883,3.5609,3.5507,3.5489,3.5416,3.5289,3.5019,3.432,3.3448,3.2912,3.1813,3.0528,2.9939,2.9292,2.8773,2.8889,2.7809,2.6193,2.4458,2.3219,2.2082,2.0712,2.0877,2.1594,2.2229,2.2714,2.3157,2.3389,2.349,2.3646,2.3994,2.4174,2.4353,2.4634,2.4753,2.4792,2.4831,2.4073,2.4205,2.6251,2.668,2.7363,2.8823,2.9477,2.9747,2.9607,2.9137,2.8751,2.8507,2.7852,2.7543,2.778,2.7444,2.7344,2.7496,2.7233,2.7007,2.6825,2.6657,2.5332,2.2899,2.0538,1.8448,3.1877,3.2908,3.3955,3.4769,3.6298,3.7405,3.6631,3.689,3.719,3.6798,3.6286,3.5906,3.6111,3.5414,3.4752,3.4544,3.4905,3.5211,3.5256,3.6305,3.7167,3.7319,3.7882,3.8254,3.8303,3.8252,3.8428,3.896,3.8989,3.932,3.9967,4.0024,4.0262,4.079,4.0869,4.0894,4.0903,4.1038,4.1094,4.1092,4.1058,4.1033,4.0999,4.0189,3.9466,3.8819,3.7864,3.7313,3.7046,3.6416,3.6098,3.5989,3.5728,3.5689,3.5751,3.5327,3.4706,3.4034,3.3639,3.2675,3.1524,3.1082,3.0514,3.0081,3.0327,2.8922,2.7031,2.6047,2.4449,2.2878,2.1986,2.2331,2.301,2.3473,2.3937,2.4362,2.4538,2.4658,2.4799,2.5163,2.5282,2.5415,2.5615,2.5635,2.5796,2.6301,2.5602,2.5729,2.7687,2.7774,2.8299,2.9972,3.0028,2.9855,2.9607,2.9435,2.9249,2.8938,2.8644,2.8362,2.8191,2.7806,2.7526,2.7341,2.7023,2.6809,2.6792,2.6554,2.4926,2.1963,2.0315,1.8252,3.1875,3.3348,3.4851,3.5665,3.774,3.9482,3.8992,3.9109,3.912,3.8474,3.7785,3.7197,3.6851,3.6689,3.651,3.6111,3.6271,3.651,3.6609,3.6917,3.7319,3.7915,3.8687,3.9057,3.8787,3.8541,3.8646,3.9245,3.9298,3.959,4.0247,4.03,4.0434,4.079,4.0877,4.091,4.0905,4.1035,4.1108,4.1091,4.1093,4.109,4.1071,4.0209,3.9791,3.9719,3.8761,3.7884,3.7111,3.7065,3.7065,3.6961,3.604,3.6163,3.6744,3.5897,3.5432,3.5108,3.4132,3.3703,3.3444,3.2392,3.1953,3.1783,3.1521,3.0942,3.0035,2.8373,2.6972,2.5768,2.4895,2.4279,2.403,2.4618,2.4753,2.4792,2.4792,2.5054,2.5489,2.6145,2.6521,2.6957,2.7584,2.7765,2.7823,2.7823,2.7794,2.7969,2.8493,2.9567,3.0283,3.0297,3.0176,2.9934,2.9532,2.9377,2.9148,2.8748,2.8525,2.83,2.8126,2.7766,2.7496,2.7213,2.6891,2.664,2.652,2.6382,2.3971,1.9507,1.977,1.7647,3.2723,3.4244,3.5913,3.7331,3.8697,3.9723,3.9835,3.987,3.9683,3.9072,3.7588,3.634,3.6049,3.5382,3.4853,3.4718,3.5863,3.6816,3.6967,3.797,3.876,3.9018,3.9847,4.0364,4.0258,3.979,3.9434,3.9309,3.9401,3.9656,4.0139,4.0248,4.0434,4.0713,4.0834,4.0906,4.0903,4.1033,4.1094,4.1101,4.1091,4.1113,4.1152,4.082,4.0662,4.0621,3.9761,3.9232,3.8872,3.7713,3.7216,3.7077,3.6177,3.5974,3.6133,3.5844,3.5688,3.5557,3.5091,3.4499,3.3901,3.3588,3.3108,3.2712,3.3109,3.1456,2.9503,2.9832,2.823,2.6318,2.5841,2.6201,2.6601,2.6216,2.6471,2.6785,2.6737,2.6802,2.6948,2.7206,2.7357,2.7537,2.7765,2.7869,2.7897,2.7897,2.839,2.8812,2.8984,2.9825,3.0415,3.0427,3.0231,2.992,2.9455,2.936,2.906,2.8525,2.8273,2.8045,2.7836,2.7461,2.7166,2.699,2.6808,2.664,2.6572,2.5457,2.3155,1.9774,1.883,1.6731,3.401,3.5584,3.7223,3.8608,3.9552,4.0158,4.0303,4.0266,4.0005,3.9464,3.792,3.662,3.6406,3.5738,3.5013,3.4446,3.5598,3.6595,3.6684,3.7618,3.8591,3.9564,4.0467,4.106,4.1158,4.1064,4.0637,3.9794,3.9934,4.0068,4.0177,4.0302,4.0469,4.0687,4.0834,4.0888,4.0906,4.1025,4.1106,4.1091,4.1101,4.1112,4.1151,4.1112,4.1093,4.1074,4.0544,4.0166,3.9791,3.8341,3.7744,3.7589,3.6411,3.6098,3.6266,3.5959,3.583,3.5784,3.565,3.5209,3.4715,3.4737,3.4391,3.4046,3.451,3.2851,3.1,3.1775,3.0253,2.8376,2.8066,2.8233,2.8307,2.773,2.7712,2.7823,2.7794,2.788,2.7992,2.8047,2.8254,2.8399,2.8384,2.8402,2.8402,2.8402,2.8987,2.9362,2.9214,2.986,3.0355,3.0442,3.0295,2.9989,2.9551,2.9345,2.9056,2.85,2.8165,2.7869,2.7672,2.7276,2.7023,2.6893,2.6725,2.6589,2.6572,2.4947,2.2718,1.9937,1.8475,1.6416,3.5659,3.7312,3.8746,3.948,4.0296,4.0801,4.0496,4.037,4.0194,3.9721,3.8775,3.7966,3.7811,3.7466,3.6728,3.5302,3.5622,3.6054,3.6182,3.6182,3.7106,3.9644,4.0639,4.1222,4.1514,4.2291,4.2207,4.0746,4.086,4.081,4.0385,4.0463,4.0569,4.0687,4.0807,4.0897,4.0885,4.1033,4.1106,4.11,4.1104,4.1101,4.1107,4.1107,4.1108,4.111,4.109,4.0644,3.9823,3.8961,3.8565,3.8358,3.6657,3.6462,3.7044,3.6264,3.5938,3.5875,3.5939,3.587,3.5794,3.5718,3.5704,3.5696,3.5639,3.4996,3.4267,3.4024,3.2931,3.1722,3.1348,3.0285,2.9223,2.9083,2.8497,2.7984,2.7968,2.8296,2.8585,2.8706,2.9156,2.9494,2.9434,2.9355,2.9334,2.9314,2.9606,2.9668,2.927,2.9806,3.0269,3.0368,3.0328,3.0127,2.9711,2.9382,2.9016,2.8621,2.8129,2.78,2.7617,2.7198,2.6957,2.6893,2.6623,2.6485,2.6485,2.482,2.2594,1.992,1.8594,1.6589,3.7383,3.8643,3.9652,4.0458,4.0757,4.0849,4.0662,4.0579,4.0425,4.0118,3.8325,3.6933,3.7286,3.6533,3.5891,3.5956,3.6949,3.7921,3.8569,3.8692,3.9433,4.1412,4.1411,4.176,4.3079,4.3051,4.2828,4.2519,4.1569,4.1073,4.1189,4.072,4.0489,4.0617,4.0764,4.0834,4.0826,4.0952,4.1059,4.1097,4.1111,4.1094,4.1094,4.1094,4.1097,4.1097,4.1107,4.0643,3.9824,3.8964,3.8218,3.7512,3.644,3.6138,3.6352,3.6797,3.693,3.7009,3.7656,3.6997,3.589,3.5907,3.589,3.584,3.5764,3.5139,3.4503,3.4783,3.4129,3.3149,3.2241,3.1748,3.114,2.9826,2.9378,2.9209,2.9105,2.9165,2.9243,2.9219,2.9419,2.9569,2.9607,2.9731,2.9748,2.9551,2.981,2.9931,2.9687,3.0145,3.0416,3.0195,3.0253,2.9994,2.9229,2.9187,2.8925,2.8335,2.7904,2.7642,2.7526,2.699,2.6708,2.6691,2.6554,2.6434,2.6365,2.3719,2.1861,2.0651,1.7779,1.5921,3.8692,3.9691,4.0422,4.0859,4.0915,4.0732,4.0249,4.0053,3.9804,3.9184,3.7623,3.6521,3.7062,3.6472,3.6025,3.6371,3.7253,3.8036,3.8588,3.8693,3.9456,4.1519,4.153,4.1976,4.3638,4.3646,4.3586,4.3755,4.2793,4.199,4.1533,4.1146,4.0857,4.0617,4.0707,4.0804,4.0888,4.0963,4.1038,4.111,4.1089,4.1091,4.1097,4.1101,4.1104,4.1111,4.1099,4.083,4.0324,3.9101,3.8301,3.7754,3.6484,3.5995,3.6052,3.6542,3.6735,3.685,3.7698,3.7097,3.6015,3.6402,3.6247,3.5875,3.5794,3.5441,3.5098,3.518,3.4864,3.4351,3.3589,3.2841,3.2046,3.1047,3.0253,2.9725,2.9641,2.9641,2.9695,2.9744,2.9826,2.9905,3.0032,3.0052,3.0011,2.9878,3.0056,3.0148,3.0042,3.0266,3.0433,3.033,3.0229,2.988,2.9183,2.8812,2.8424,2.8055,2.7439,2.7195,2.7324,2.6825,2.6589,2.6606,2.6468,2.6382,2.6314,2.3348,2.1583,2.0925,1.7514,1.5642,3.9714,4.0455,4.0945,4.0761,4.0683,4.0386,3.9419,3.9124,3.8754,3.7809,3.6938,3.6482,3.7017,3.6777,3.6549,3.6702,3.7059,3.7479,3.7918,3.7863,3.8707,4.113,4.1401,4.2044,4.367,4.3949,4.4173,4.4496,4.4115,4.3213,4.1724,4.1682,4.1357,4.0612,4.0675,4.0784,4.0971,4.098,4.1011,4.1091,4.1095,4.1111,4.11,4.1097,4.1108,4.1094,4.1097,4.096,4.065,3.919,3.8451,3.8103,3.6582,3.5994,3.6023,3.6243,3.6333,3.645,3.739,3.7186,3.6582,3.7043,3.6601,3.5884,3.5757,3.5753,3.572,3.538,3.5314,3.5261,3.4863,3.3682,3.2561,3.2359,3.1274,3.0243,3.0219,3.0146,3.011,3.0209,3.0228,3.0285,3.0469,3.0304,3.0166,3.0232,3.0294,3.0324,3.0348,3.0355,3.0386,3.047,3.0183,2.9765,2.9156,2.8329,2.7832,2.7741,2.6982,2.6724,2.7053,2.6708,2.652,2.6589,2.6382,2.6295,2.6279,2.3329,2.1594,2.1005,1.7613,1.5758,4.0468,4.0818,4.0742,4.0004,3.9779,3.9472,3.8466,3.8224,3.8116,3.7819,3.7026,3.6558,3.7093,3.6456,3.6193,3.7257,3.7379,3.8096,4.0115,3.9823,4.0331,4.2849,4.2078,4.2051,4.385,4.3524,4.3615,4.4602,4.4688,4.4022,4.2503,4.1953,4.1347,4.0607,4.0607,4.0688,4.0834,4.0888,4.0949,4.1011,4.107,4.1101,4.1104,4.1091,4.1093,4.1105,4.1094,4.0272,3.8925,3.8643,3.7706,3.6426,3.6113,3.6009,3.6169,3.7554,3.8064,3.8283,3.9884,3.986,3.8936,3.762,3.6604,3.5885,3.5818,3.5796,3.5794,3.5713,3.5704,3.5524,3.4747,3.4339,3.3933,3.3198,3.2821,3.2566,3.241,3.1728,3.0987,3.0477,3.0367,3.039,3.0469,3.0414,3.0381,3.0446,3.0462,3.0511,3.0624,3.0627,3.0435,2.9907,2.9935,2.9499,2.825,2.8128,2.7885,2.7334,2.7068,2.6956,2.7006,2.6674,2.6485,2.652,2.631,2.6203,2.6222,2.3193,2.1673,2.1494,1.8076,1.6285,4.0791,4.0869,4.0742,4.0331,3.982,3.9199,3.8279,3.767,3.7175,3.661,3.6107,3.5949,3.6532,3.6193,3.625,3.7642,3.7701,3.8276,4.032,4.0202,4.0666,4.275,4.2419,4.2576,4.3937,4.3815,4.3952,4.4595,4.4796,4.4607,4.3988,4.2967,4.1822,4.0596,4.0612,4.0726,4.0851,4.0867,4.0949,4.1051,4.108,4.1107,4.1103,4.1093,4.1094,4.1094,4.1091,4.0638,3.978,3.8867,3.8027,3.7206,3.6346,3.5996,3.614,3.7368,3.7828,3.8069,3.9819,3.9855,3.8982,3.8155,3.7283,3.6476,3.5957,3.5811,3.584,3.5806,3.583,3.576,3.529,3.4845,3.4399,3.3992,3.3499,3.3006,3.245,3.1946,3.1391,3.0598,3.0477,3.0509,3.0559,3.0539,3.0535,3.059,3.0593,3.0653,3.0797,3.0739,3.0511,3.0006,2.9889,2.9299,2.7942,2.7502,2.7134,2.6741,2.6193,2.6087,2.6453,2.6277,2.6187,2.6187,2.6203,2.5805,2.4998,2.2787,2.1307,2.0493,1.7956,1.6729,4.0577,4.0671,4.0723,4.0537,3.9799,3.8884,3.8001,3.7084,3.6204,3.5461,3.54,3.5566,3.5817,3.6033,3.6562,3.7679,3.7843,3.8433,4.023,4.0399,4.0929,4.2539,4.2871,4.3237,4.398,4.4177,4.4373,4.4551,4.494,4.5029,4.4717,4.3426,4.2016,4.055,4.0598,4.072,4.0854,4.0893,4.0968,4.1072,4.1091,4.1094,4.1093,4.1093,4.1091,4.1091,4.1103,4.0982,4.0728,3.9344,3.8563,3.8092,3.6769,3.6149,3.6113,3.7109,3.748,3.7709,3.9268,3.934,3.8712,3.8366,3.7784,3.7053,3.6105,3.5872,3.5911,3.5859,3.5872,3.5917,3.5838,3.5308,3.4794,3.4777,3.4187,3.3344,3.2299,3.2066,3.1736,3.0702,3.054,3.0588,3.0598,3.0579,3.0577,3.0698,3.0673,3.0717,3.0876,3.0724,3.0481,3.0128,2.9764,2.9057,2.7814,2.694,2.6353,2.612,2.5406,2.5253,2.5828,2.5791,2.5807,2.5897,2.5714,2.5027,2.3891,2.2105,2.0654,1.9549,1.791,1.7123,3.9547,4.0082,4.0442,3.9715,3.8865,3.7982,3.7041,3.6152,3.5479,3.5327,3.5876,3.6133,3.5267,3.6234,3.7168,3.7117,3.7697,3.8925,4.107,4.1375,4.1957,4.3582,4.3786,4.3886,4.4153,4.4255,4.4344,4.4411,4.5455,4.5185,4.312,4.2202,4.1356,4.0521,4.0508,4.0573,4.0728,4.0842,4.0952,4.101,4.1072,4.1094,4.1092,4.1094,4.1094,4.1107,4.1101,4.0647,3.9901,3.9751,3.8752,3.7303,3.7159,3.6648,3.6187,3.7788,3.8379,3.8511,3.9472,3.9743,3.9435,3.791,3.7352,3.7118,3.6173,3.593,3.5985,3.5985,3.599,3.5977,3.5911,3.5833,3.576,3.5696,3.5514,3.493,3.3325,3.2871,3.2331,3.0809,3.05,3.053,3.0588,3.0499,3.0475,3.0665,3.0599,3.0603,3.0868,3.0565,3.0198,2.9776,2.9351,2.8637,2.7512,2.6738,2.6108,2.5615,2.5443,2.5329,2.5269,2.5269,2.5476,2.5881,2.4367,2.369,2.3904,2.1084,1.9767,1.9824,1.8334,1.7634,3.9264,3.9984,4.0395,3.9552,3.8709,3.7852,3.6911,3.5989,3.533,3.5304,3.5525,3.573,3.5832,3.6312,3.6843,3.7294,3.7483,3.8244,4.0113,4.0215,4.0876,4.299,4.3237,4.3515,4.4188,4.4285,4.4411,4.4667,4.5217,4.4973,4.3637,4.3365,4.261,4.1251,4.0907,4.0742,4.0759,4.0888,4.0986,4.1051,4.1092,4.1103,4.1101,4.1104,4.1101,4.1108,4.1105,4.0896,4.054,4.0028,3.9072,3.7932,3.7398,3.671,3.6191,3.789,3.8524,3.8688,3.9561,3.9859,3.9589,3.7867,3.7305,3.7131,3.6224,3.5985,3.6003,3.5994,3.5978,3.5934,3.5903,3.5898,3.5891,3.5818,3.5765,3.5252,3.3519,3.3113,3.258,3.0888,3.0559,3.0579,3.0656,3.0576,3.0567,3.0689,3.0629,3.063,3.082,3.0452,2.9946,2.9403,2.8981,2.8403,2.7474,2.659,2.5947,2.5631,2.5075,2.4799,2.4958,2.4895,2.4603,2.4158,2.3583,2.262,2.1258,2.0073,1.9078,1.8325,1.8043,1.792,3.8099,3.9031,3.9692,3.9085,3.8315,3.7511,3.6853,3.5989,3.5407,3.5641,3.5828,3.6146,3.6668,3.7147,3.7566,3.7909,3.7957,3.8463,3.9811,3.9808,4.04,4.236,4.2574,4.2938,4.3876,4.4223,4.4551,4.4919,4.5057,4.4925,4.4518,4.4155,4.3288,4.1813,4.1137,4.084,4.0849,4.0941,4.1033,4.1094,4.1105,4.1094,4.1108,4.1101,4.1097,4.1097,4.1109,4.1105,4.1042,4.0437,3.9676,3.8818,3.8213,3.748,3.6941,3.8365,3.8915,3.9058,3.9683,3.9725,3.9261,3.7782,3.7126,3.6797,3.6191,3.5994,3.6048,3.6309,3.6157,3.5903,3.5894,3.5905,3.5872,3.5826,3.5593,3.5018,3.3546,3.3033,3.2415,3.0917,3.0605,3.0614,3.0652,3.0598,3.0595,3.0663,3.0604,3.0621,3.0757,3.021,2.9655,2.9142,2.8494,2.7814,2.7129,2.6214,2.5598,2.5329,2.4614,2.4302,2.4533,2.441,2.4007,2.3437,2.307,2.1908,1.9917,1.9475,1.8628,1.7434,1.7877,1.8193,3.5554,3.6747,3.8041,3.8103,3.7401,3.6719,3.6699,3.6037,3.5628,3.6424,3.722,3.7766,3.7716,3.9052,3.9852,3.8937,3.9345,4.0068,4.0877,4.0853,4.1117,4.202,4.2063,4.2329,4.3136,4.4062,4.4738,4.5061,4.5103,4.5175,4.5381,4.4008,4.2821,4.1936,4.1067,4.0726,4.0999,4.1002,4.1033,4.1094,4.1091,4.1101,4.1108,4.1108,4.1108,4.1108,4.1108,4.1104,4.1094,4.1094,4.0567,3.9782,3.9782,3.9283,3.8668,3.9488,3.98,3.98,3.9878,3.934,3.8469,3.76,3.6712,3.6015,3.5993,3.5991,3.6184,3.7033,3.6625,3.5903,3.5894,3.5905,3.5872,3.5826,3.5138,3.4296,3.3462,3.2614,3.1752,3.0877,3.0648,3.0605,3.0605,3.0545,3.0527,3.0582,3.053,3.0547,3.0681,2.9823,2.9173,2.9099,2.7783,2.674,2.6335,2.5619,2.4981,2.4436,2.4177,2.4024,2.4024,2.3739,2.3864,2.4374,2.2763,2.1559,2.0877,1.9424,1.8369,1.7711,1.7975,1.841,3.6015,3.6699,3.7123,3.7137,3.6916,3.6541,3.5945,3.5561,3.5553,3.6377,3.6714,3.72,3.8308,3.8918,3.9317,3.9581,3.9762,3.9962,4.0208,4.0546,4.1072,4.1924,4.295,4.3709,4.4055,4.4455,4.4846,4.5218,4.5239,4.5362,4.5654,4.4111,4.3079,4.2795,4.1596,4.0968,4.1,4.1056,4.1078,4.1091,4.1094,4.1108,4.1108,4.1108,4.1108,4.1108,4.1108,4.1108,4.1104,4.1104,4.0597,3.9793,3.9793,3.9309,3.871,3.9507,3.98,3.9819,3.9878,3.971,3.925,3.7775,3.7102,3.6894,3.6894,3.6479,3.6057,3.6325,3.6202,3.5968,3.5916,3.5903,3.5892,3.5861,3.5194,3.4347,3.347,3.263,3.1768,3.0921,3.0708,3.0678,3.0728,3.0646,3.0581,3.0598,3.0586,3.0432,3.0061,2.9927,2.929,2.7764,2.7622,2.7267,2.6386,2.5619,2.4997,2.4574,2.4276,2.4124,2.4124,2.3797,2.3384,2.2911,2.2146,2.1293,2.0353,1.9411,1.876,1.829,1.8398,1.8614,0.0,3.6007,3.6243,3.621,3.6214,3.6065,3.5479,3.5339,3.5522,3.6326,3.6719,3.7279,3.8633,3.9108,3.945,3.992,3.9892,3.994,4.0284,4.054,4.1027,4.1931,4.3173,4.4026,4.4162,4.4549,4.4948,4.5361,4.5381,4.5505,4.5783,4.4211,4.3313,4.3303,4.1844,4.1042,4.1047,4.1078,4.1097,4.1107,4.1093,4.1092,4.1097,4.1091,4.1108,4.1108,4.1108,4.0912,0.0,4.0952,4.0581,3.9839,4.0151,3.9976,3.9605,4.0112,4.0288,4.0307,4.0346,3.9945,3.9232,3.8137,3.7341,3.6816,3.6816,3.6657,3.6413,3.6069,3.5951,3.5951,3.5917,3.5895,3.5893,3.5875,3.4974,3.4072,3.3842,3.2612,3.1496,3.1315,3.0953,3.0682,3.0759,3.0675,3.0598,3.0598,3.0598,3.0378,2.975,2.9695,2.8985,2.7046,2.6975,2.6669,2.5726,2.5351,2.4934,2.4426,2.4109,2.3955,2.3982,2.3625,2.3165,2.2632,2.236,2.1706,2.064,1.9593,1.8993,1.8815,1.8667,1.8721,0.0,3.4834,3.5416,3.5393,3.5398,3.5379,3.5315,0.0,0.0,3.6326,3.7141,3.7909,3.8651,3.9488,4.0057,3.9996,3.9826,4.0019,4.0877,4.0941,4.1217,4.2077,4.2937,4.3511,4.3587,4.435,4.4992,4.5399,4.537,4.548,4.5822,4.4278,4.3447,4.3507,4.1877,4.1047,4.1108,4.1108,4.1097,4.1107,4.1093,4.1093,4.1107,4.1097,4.1108,4.1108,4.1108,4.0639,3.9956,4.0776,4.062,3.9976,4.0776,4.1108,4.1108,4.1108,4.1108,4.1088,4.103,4.0003,3.8666,3.8554,3.7363,3.5996,3.5995,3.6562,3.7011,3.6147,3.5893,3.5896,3.5895,3.5895,3.5877,3.5801,3.4609,3.3671,3.4424,3.2693,3.1207,3.1942,3.1333,3.0694,3.0694,3.0694,3.0675,3.0617,3.0656,3.0409,2.9623,2.92,2.8371,2.6857,2.607,2.531,2.4554,2.4815,2.4735,2.4024,2.3683,2.3538,2.361,2.329,2.3171,2.3319,2.3171,2.2575,2.1498,2.0013,1.9273,1.9239,1.8881,1.8774,3.5199,0.0,3.4647,3.524,3.5364,3.5315,0.0,0.0,0.0,0.0,0.0,3.7852,3.8651,3.9426,3.9933,3.9848,3.9758,4.0014,4.0953,4.2002,4.2693,4.2782,4.3606,4.377,4.2735,4.3487,4.4227,4.4633,4.4139,4.4478,4.6024,4.3876,4.2902,4.363,4.1972,4.1081,4.1108,4.1108,4.1097,4.1107,4.109,4.1103,4.1107,4.1097,4.1108,4.1108,4.1108,4.0971,4.0815,4.101,4.0971,4.0815,4.101,4.1108,4.1108,4.1108,4.1108,4.101,4.0405,3.992,3.9379,3.8046,3.6875,3.5993,3.5944,3.608,3.6189,3.5958,3.5864,3.5822,3.5827,3.5812,3.5817,3.5794,3.5001,3.4291,3.4475,3.3575,3.2582,3.2102,3.1786,3.1391,3.0733,3.112,3.1313,3.0694,3.112,3.0867,2.9082,2.9381,2.8665,2.5881,2.6439,2.6116,2.3788,2.3979,2.4147,2.4024,2.3739,2.3551,2.3595,2.329,2.3171,2.3319,2.3068,2.2498,2.1572,2.1205,2.0474,1.95,1.9396,1.9251,3.5391,3.5161,3.4897,3.5264,3.533,3.53,0.0,0.0,0.0,0.0,0.0,0.0,3.8175,3.9119,3.9848,3.9889,4.0098,4.0527,4.1349,4.2215,4.2833,4.3053,4.3203,4.3224,4.3004,4.3504,4.402,4.4467,4.4524,4.4841,4.5565,4.3908,4.2997,4.3099,4.1791,4.1108,4.1108,4.1108,4.1097,4.1107,4.1132,4.1125,4.1101,4.1094,4.1108,4.1108,4.1108,4.0659,4.0015,4.0776,4.0405,3.9468,4.0639,4.0854,4.0542,4.0952,4.0854,4.0444,4.0042,3.9383,3.849,3.7148,3.6352,3.5955,3.5912,3.5863,3.5815,3.5818,3.5775,3.5755,3.576,3.576,3.5741,3.5752,3.5115,3.4593,3.4967,3.4093,3.3122,3.2679,3.2183,3.1584,3.0733,3.1275,3.1661,3.1217,3.1561,3.1267,2.9513,2.9469,2.8545,2.5737,2.6108,2.5714,2.3593,2.3402,2.3451,2.364,2.3392,2.329,2.3436,2.3246,2.3127,2.3112,2.2892,2.2469,2.1867,2.156,2.0974,2.0156,1.9759,1.946,3.5103,3.5405,3.5468,3.533,3.53,3.5285,0.0,0.0,0.0,0.0,0.0,0.0,0.0,3.8741,3.9719,3.9958,4.0636,4.1393,4.2055,4.2385,4.2725,4.3066,4.2648,4.254,4.3228,4.3577,4.394,4.4376,4.5043,4.5335,4.5117,4.4085,4.3212,4.2611,4.1752,4.1225,4.1108,4.1108,4.1097,4.1107,4.1152,4.1149,4.1094,4.1091,4.1108,4.1108,4.1108,4.0288,3.9081,4.0366,3.9624,3.7887,3.9917,4.0268,3.9722,4.0581,4.0366,3.9608,3.9524,3.8434,3.695,3.622,3.5942,3.5892,3.5869,3.5781,3.5704,3.5704,3.5689,3.5702,3.5697,3.5708,3.5669,3.5533,3.5091,3.4828,3.5387,3.4497,3.3557,3.347,3.2667,3.1777,3.1101,3.1448,3.1871,3.198,3.2015,3.1556,3.0261,2.9565,2.826,2.5864,2.5467,2.4848,2.3426,2.2965,2.2874,2.3183,2.2944,2.2989,2.3378,2.3146,2.2968,2.2885,2.2634,2.242,2.2133,2.1566,2.1133,2.0795,2.0105,1.9759,3.4353,3.4981,3.5538,3.534,3.5304,3.5293,0.0,0.0,0.0,0.0,0.0,0.0,0.0,3.8385,3.9182,3.9907,4.1271,4.2511,4.3237,4.4144,4.4238,4.2924,4.3268,4.2909,4.1116,4.231,4.3299,4.3492,4.3102,4.3775,4.5884,4.3836,4.2889,4.3489,4.265,4.1849,4.1108,4.1108,4.1097,4.1107,4.1113,4.1108,4.1105,4.1094,4.1108,4.1108,4.1108,4.0952,4.0678,4.019,3.9761,3.939,3.9097,3.8905,3.8882,3.9702,3.9488,3.8671,3.7947,3.6999,3.6089,3.595,3.5863,3.5794,3.5745,3.572,3.5704,3.5704,3.5706,3.5697,3.5706,3.5706,3.5512,3.4777,3.5078,3.5349,3.4728,3.4979,3.5106,3.438,3.3518,3.285,3.2734,3.2313,3.2187,3.2808,3.2483,3.1679,3.0275,2.9565,2.8135,2.5312,2.5267,2.4475,2.2275,2.2495,2.2731,2.2643,2.3102,2.3497,2.3792,2.3096,2.2658,2.2658,2.2383,2.2125,2.1868,2.176,2.1399,2.0795,2.0646,2.0409,3.4183,3.4901,3.5423,3.4886,3.4758,3.4642,0.0,0.0,0.0,0.0,0.0,0.0,0.0,3.8364,3.9433,4.1168,4.224,4.3043,4.3683,4.3463,4.312,4.2738,4.2221,4.1892,4.1874,4.2623,4.3389,4.4063,4.4284,4.4727,4.5462,4.3968,4.3072,4.3001,4.2142,4.1518,4.1108,4.1108,4.1097,4.1107,4.1133,4.1147,4.1099,4.1091,4.1108,4.1108,4.1108,4.0834,4.0366,3.9976,3.9273,3.8453,3.8551,3.8593,3.871,3.9507,3.8943,3.7727,3.7324,3.6577,3.5801,3.5786,3.577,3.5747,3.5712,3.5701,3.5607,3.5123,3.5336,3.5704,3.5704,3.5704,3.5588,3.5201,3.5414,3.5588,3.5182,3.5414,3.5433,3.4563,3.3756,3.3058,3.2598,3.2258,3.2058,3.2069,3.1902,3.1298,2.9987,2.922,2.7905,2.5405,2.53,2.4614,2.2596,2.2655,2.2656,2.2295,2.3,2.3326,2.3077,2.2871,2.2698,2.2593,2.2339,2.2077,2.1788,2.1658,2.1432,2.1104,2.0908,2.0709,3.3856,3.4522,3.4773,3.3942,0.0,0.0,0.0,0.0,0.0,0.0,0.0,0.0,0.0,3.8894,4.0081,4.1839,4.2638,4.3188,4.3618,4.2712,4.2146,4.2499,4.144,4.1251,4.2737,4.2905,4.3435,4.4703,4.511,4.5286,4.5206,4.4044,4.3177,4.2728,4.1869,4.1306,4.1094,4.1111,4.1114,4.1103,4.1151,4.1151,4.1099,4.1097,4.1094,4.1108,4.1108,4.06,3.98,3.9605,3.8648,3.734,3.7783,3.8065,3.8272,3.8682,3.8082,3.7053,3.6844,3.6285,3.5682,3.5689,3.5669,3.5674,3.5654,3.5659,3.5488,3.4629,3.4963,3.555,3.5422,3.5538,3.5635,3.5433,3.5508,3.5562,3.5295,3.5434,3.5333,3.4293,3.3669,3.3052,3.2297,3.1987,3.1764,3.1547,3.1175,3.054,2.9534,2.8556,2.7265,2.5412,2.5147,2.4584,2.3272,2.3017,2.2658,2.2152,2.2823,2.3017,2.2569,2.2524,2.2529,2.2504,2.2188,2.1917,2.1702,2.1498,2.1423,2.1375,2.1055,2.0957,3.2947,3.3276,3.3153,3.2277,3.3768,0.0,0.0,3.4776,0.0,3.6367,0.0,0.0,3.8962,4.0302,4.1112,4.0482,4.1816,4.2958,4.3052,4.313,4.2918,4.2226,4.2086,4.2119,4.2247,4.2315,4.305,4.4673,4.3475,4.3685,4.5972,4.381,4.2845,4.3583,4.2767,4.1914,4.1107,4.1155,4.1169,4.1091,4.1091,4.1094,4.1094,4.111,4.1101,4.1108,4.1108,4.06,3.9741,3.898,3.8141,3.722,3.6402,3.6508,3.7008,3.6262,3.6417,3.6895,3.6076,3.5708,3.562,3.5612,3.5599,3.5591,3.5528,3.556,3.543,3.4542,3.4757,3.5129,3.4615,3.5052,3.5423,3.4668,3.4967,3.5128,3.4068,3.4674,3.4986,3.3473,3.325,3.3165,3.2728,3.1779,3.1385,3.2262,3.0754,2.9356,2.8838,2.74,2.595,2.4716,2.4339,2.4069,2.3685,2.3339,2.291,2.2226,2.2488,2.2846,2.322,2.2114,2.1735,2.2227,2.1702,2.1461,2.1434,2.1397,2.1423,2.1423,2.1361,2.1375,3.2324,3.3206,3.368,3.2291,0.0,0.0,0.0,3.4254,3.5557,3.5263,3.6736,0.0,3.9162,4.0654,4.1655,4.1378,4.2298,4.31,4.3188,4.2808,4.2439,4.2133,4.1682,4.1829,4.2908,4.2585,4.3008,4.4725,4.3799,4.3578,4.459,4.3212,4.2552,4.2884,4.2053,4.1431,4.1097,4.1166,4.1183,4.1169,4.1169,4.1152,4.1152,4.1113,4.1092,4.1071,4.057,4.0118,3.9638,3.8239,3.7444,3.7073,3.6715,3.6414,3.6284,3.7031,3.6802,3.6154,3.6366,3.6049,3.5528,3.554,3.5534,3.5528,3.5515,3.5463,3.5229,3.4304,3.4464,3.4767,3.4232,3.4538,3.4893,3.4601,3.4687,3.4697,3.4245,3.4471,3.4452,3.3334,3.2763,3.2299,3.1688,3.0466,2.956,2.9568,2.8539,2.7478,2.6716,2.6146,2.5203,2.3919,2.3561,2.349,2.3683,2.3747,2.3467,2.2713,2.2658,2.2559,2.2263,2.1865,2.1828,2.2195,2.1831,2.159,2.1423,2.1423,2.1423,2.1423,2.1423,2.1471,3.1887,3.2823,3.3436,0.0,0.0,0.0,3.2966,3.4042,3.534,3.5499,3.732,3.9071,3.9667,4.0921,4.1803,4.1589,4.2265,4.2742,4.255,4.2047,4.1695,4.1698,4.1227,4.149,4.2947,4.2361,4.2603,4.4357,4.3446,4.3064,4.3665,4.2583,4.2082,4.2357,4.1503,4.1055,4.1074,4.1108,4.1147,4.1133,4.1147,4.1153,4.1172,4.1097,4.0923,4.0642,4.0335,3.9708,3.8818,3.7864,3.7121,3.656,3.656,3.6183,3.5786,3.6978,3.6626,3.5647,3.6257,3.5868,3.5084,3.5084,3.4905,3.4712,3.4936,3.4908,3.4684,3.3977,3.415,3.4389,3.3752,3.4074,3.4563,3.4544,3.4444,3.4339,3.417,3.4214,3.3878,3.2575,3.2125,3.1567,3.0202,2.9274,2.8404,2.7564,2.6894,2.6154,2.5398,2.4894,2.4279,2.3288,2.3116,2.3199,2.3681,2.3819,2.3632,2.3093,2.2675,2.2181,2.1574,2.1337,2.1428,2.1872,2.1629,2.1472,2.1423,2.1423,2.1423,2.1423,2.1423,2.1568,3.1666,3.1933,3.1967,0.0,0.0,0.0,3.4408,3.4408,3.5134,3.7691,3.9477,4.0593,4.0603,4.1243,4.1532,4.0723,4.1379,4.1718,4.0906,4.0792,4.0807,4.0807,4.0859,4.1238,4.2112,4.1478,4.1714,4.3448,4.2041,4.1849,4.3587,4.1972,4.1403,4.2255,4.1387,4.0933,4.1007,4.1007,4.1007,4.1007,4.1007,4.1049,4.1105,4.1019,4.0524,3.9742,4.0519,3.9432,3.7152,3.7944,3.7221,3.5607,3.5607,3.5565,3.5493,3.5493,3.5493,3.5493,3.5493,3.493,3.418,3.418,3.3596,3.3023,3.3693,3.3859,3.3758,3.3564,3.3848,3.4008,3.3128,3.3676,3.4459,3.4405,3.4229,3.4011,3.3666,3.3813,3.3296,3.1028,3.1353,3.1108,2.8467,2.8341,2.8199,2.688,2.6218,2.5685,2.5048,2.3897,2.3017,2.2909,2.2992,2.328,2.3734,2.3569,2.3326,2.3206,2.248,2.1843,2.1446,2.0482,2.0389,2.1188,2.0942,2.1005,2.1403,2.1396,2.1423,2.1423,2.1423,2.1568,3.0994,3.1484,0.0,3.1903,0.0,0.0,0.0,3.5314,0.0,0.0,3.9405,3.9932,4.0563,4.0829,4.0906,4.0758,4.0932,4.1023,4.0834,4.0804,4.0818,4.0848,4.0888,4.1238,4.2112,4.1478,4.1481,4.2611,4.1696,4.1326,4.1833,4.1322,4.1113,4.1387,4.1064,4.0933,4.1003,4.1563,4.1574,4.1003,4.1535,4.1521,4.1016,4.038,3.9945,3.9652,3.8656,3.7744,3.6933,3.6509,3.6016,3.5522,3.5522,3.5515,3.5493,3.5493,3.546,3.5336,3.4611,3.4182,3.3796,3.3089,3.2659,3.2533,3.326,3.3373,3.3342,3.3792,3.384,3.3715,3.3405,3.3497,3.3671,3.3688,3.3616,3.3465,3.3243,3.2813,3.2139,3.0864,2.9988,2.905,2.7758,2.6799,2.6101,2.5713,2.4854,2.4092,2.3437,2.2848,2.2531,2.2677,2.2628,2.2763,2.3113,2.3318,2.3314,2.3137,2.2777,2.2437,2.2166,2.0792,2.0431,2.1323,2.099,2.0867,2.0998,2.124,2.1423,2.1423,2.1423,2.1664,3.0288,3.1022,0.0,3.1474,3.2493,3.3892,3.5087,0.0,0.0,0.0,3.9397,4.0028,4.0557,4.066,4.0679,4.0746,4.0746,4.0759,4.0788,4.0804,4.0818,4.0877,4.0908,4.113,4.1673,4.1279,4.1228,4.1744,4.1326,4.1051,4.1051,4.0996,4.0961,4.0953,4.0904,4.0877,4.0919,4.1409,4.1235,4.0416,4.1216,4.0984,3.9881,3.97,3.9236,3.8501,3.7123,3.6643,3.6781,3.5867,3.5493,3.5493,3.5493,3.5446,3.5369,3.5369,3.5289,3.504,3.4077,3.3705,3.3504,3.2561,3.1977,3.1826,3.2854,3.2611,3.2242,3.3536,3.3523,3.3102,3.3178,3.297,3.2876,3.3165,3.2975,3.2716,3.2553,3.1934,3.113,3.0336,2.9211,2.8057,2.7034,2.5918,2.5063,2.4624,2.3897,2.321,2.2739,2.2494,2.242,2.2457,2.2223,2.2297,2.2702,2.2763,2.2896,2.3198,2.2682,2.249,2.2704,2.1223,2.061,2.0978,2.076,2.0792,2.1128,2.1163,2.1222,2.1423,2.1423,2.1739,2.9734,0.0,0.0,3.0906,3.2501,0.0,3.6311,3.7404,3.8105,3.8194,3.948,4.0607,4.0588,4.0654,4.07,4.07,4.0759,4.0803,4.08,4.0804,4.0818,4.0888,4.0917,4.0935,4.0984,4.0998,4.1001,4.0991,4.1009,4.1007,4.0987,4.0929,4.0882,4.0882,4.0826,4.079,4.079,4.079,4.0346,3.9507,4.0288,3.9765,3.8121,3.8972,3.8431,3.6737,3.5937,3.6023,3.6606,3.5828,3.5493,3.546,3.546,3.5354,3.5157,3.5157,3.5,3.466,3.3772,3.3431,3.3219,3.241,3.1561,3.1102,3.2534,3.1821,3.0978,3.3004,3.2993,3.2376,3.2602,3.2297,3.2074,3.2601,3.2247,3.1774,3.1719,3.107,3.0294,2.9576,2.8807,2.7817,2.6409,2.555,2.4738,2.3675,2.3258,2.2957,2.2678,2.2629,2.2494,2.2197,2.1886,2.1812,2.2235,2.2025,2.2322,2.321,2.2365,2.2231,2.2977,2.17,2.0828,2.049,2.0444,2.0763,2.1482,2.1,2.098,2.1416,2.1416,2.1896,3.0467,3.1133,0.0,0.0,3.2883,3.4462,3.5398,3.6829,3.8146,3.8888,3.986,4.0598,4.0607,4.0621,4.0654,4.0759,4.079,4.0796,4.0796,4.0807,4.0828,4.0888,4.0949,4.0961,4.0939,4.098,4.0996,4.0994,4.0996,4.0986,4.0922,4.0857,4.0809,4.0826,4.0808,4.079,4.079,4.079,4.0346,3.9507,3.97,3.8876,3.7212,3.8083,3.753,3.5863,3.5674,3.5675,3.5772,3.5578,3.5417,3.5258,3.5258,3.5141,3.4945,3.4945,3.487,3.4581,3.3592,3.3181,3.2933,3.1955,3.1449,3.1366,3.225,3.2245,3.2101,3.3154,3.2991,3.2488,3.221,3.1774,3.124,3.0757,3.0847,3.1014,3.0898,3.027,2.9604,2.9143,2.7972,2.6776,2.5863,2.4951,2.4002,2.303,2.303,2.2896,2.2371,2.2185,2.1999,2.1824,2.1612,2.1474,2.1474,2.1702,2.2002,2.2199,2.2348,2.2346,2.2182,2.1284,2.0934,2.1179,2.0677,2.048,2.0659,2.0441,2.0784,2.1645,2.1645,2.2284,3.0188,0.0,0.0,3.219,0.0,3.4609,3.6185,3.7275,3.8319,3.9604,4.0235,4.0569,4.0588,4.0588,4.0635,4.079,4.079,4.0796,4.0796,4.0829,4.0867,4.0949,4.0972,4.098,4.096,4.0957,4.0977,4.1,4.0974,4.0949,4.0904,4.084,4.0796,4.08,4.0815,4.0597,4.0172,4.0172,3.9533,3.8257,3.8682,3.8179,3.6903,3.698,3.6485,3.5601,3.5502,3.5416,3.5355,3.5254,3.5141,3.5054,3.5054,3.4926,3.4694,3.424,3.3966,3.3601,3.2259,3.2252,3.2644,3.1709,3.148,3.1701,3.2459,3.1966,3.138,3.2446,3.2137,3.1446,3.1342,3.0853,3.0203,2.938,2.9539,2.9825,2.9551,2.8884,2.8307,2.8066,2.7151,2.6269,2.5906,2.4851,2.3897,2.321,2.3078,2.3017,2.2665,2.2359,2.2111,2.2061,2.1663,2.14,2.1273,2.1463,2.1639,2.1877,2.1951,2.1956,2.1753,2.1488,2.1368,2.1511,2.1063,2.0984,2.1183,2.0837,2.1051,2.1742,2.157,2.2289,2.9811,0.0,3.0965,3.2598,3.3481,0.0,3.691,3.7632,3.8204,3.9738,4.0296,4.0519,4.0593,4.0588,4.0635,4.079,4.081,4.0827,4.0828,4.0876,4.094,4.0986,4.0994,4.0995,4.0996,4.0945,4.0933,4.0974,4.0924,4.0888,4.0877,4.0701,4.0571,4.0575,4.0435,3.9997,3.9282,3.9127,3.8334,3.6903,3.7638,3.7599,3.6884,3.6361,3.5921,3.5534,3.5369,3.5251,3.5117,3.4811,3.4661,3.4604,3.4604,3.4504,3.4236,3.3571,3.318,3.2705,3.1158,3.1382,3.2265,3.1364,3.1299,3.1691,3.2416,3.1405,3.0209,3.1498,3.107,3.0264,3.0253,2.9767,2.9025,2.8176,2.8259,2.8435,2.8134,2.7475,2.6938,2.6834,2.6254,2.5783,2.5837,2.4851,2.3956,2.3556,2.3318,2.3138,2.3017,2.2653,2.2359,2.2297,2.1776,2.1388,2.14,2.1285,2.1348,2.1753,2.1514,2.1439,2.1491,2.1651,2.1649,2.1452,2.144,2.1536,2.1888,2.1347,2.1362,2.185,2.1574,2.2226,0.0,0.0,3.0914,0.0,3.3045,3.353,0.0,3.6266,3.7122,3.8063,3.9438,4.0519,4.0593,4.0588,4.0635,4.079,4.0848,4.0889,4.0885,4.094,4.0986,4.1,4.0994,4.1009,4.0999,4.0998,4.0976,4.0906,4.0908,4.0877,4.0818,4.0087,3.9666,3.9661,3.8934,3.8489,3.8373,3.7618,3.7135,3.6903,3.7019,3.7019,3.6922,3.758,3.6942,3.5345,3.5296,3.5171,3.4888,3.4092,3.3658,3.3518,3.3518,3.339,3.3278,3.3783,3.3744,3.3268,3.2293,3.1784,3.1426,3.0546,3.0216,3.0307,3.1034,3.0802,3.0401,3.1039,3.065,2.9861,2.9125,2.8623,2.8046,2.7004,2.6797,2.6886,2.7195,2.6753,2.6197,2.5849,2.505,2.4452,2.4681,2.4376,2.3865,2.3258,2.3378,2.333,2.28,2.2543,2.2235,2.1824,2.1537,2.1336,2.1221,2.1221,2.1221,2.1285,2.1336,2.1325,2.1187,2.1198,2.1037,2.0756,2.1172,2.1458,2.1481,2.0961,2.1142,2.2068,2.2024,2.2337,3.0637,3.0878,3.1337,0.0,3.2929,3.3942,3.5076,3.6046,3.694,3.7786,3.8565,3.9264,3.9835,4.0331,4.07,4.0829,4.0474,4.0373,4.0875,4.0582,4.0491,4.0955,4.1001,4.0998,4.0992,4.0964,4.0926,4.0908,4.0888,4.0654,4.0106,3.9708,3.9278,3.8779,3.8411,3.7967,3.7483,3.7096,3.6439,3.551,3.6299,3.6439,3.6028,3.682,3.6757,3.5929,3.5392,3.4694,3.3976,3.3458,3.2959,3.2499,3.2966,3.3063,3.29,3.2463,3.2218,3.1937,3.0815,3.022,2.9938,2.9493,2.9368,2.9455,3.0123,2.9942,2.9553,3.0021,2.9664,2.9025,2.8497,2.7966,2.7363,2.6654,2.6322,2.6094,2.6068,2.5783,2.5315,2.4684,2.4253,2.3989,2.4105,2.4002,2.3897,2.3688,2.3628,2.3509,2.321,2.2726,2.2297,2.2111,2.18,2.1549,2.1498,2.1348,2.1336,2.1336,2.1273,2.1146,2.0816,2.1135,2.0996,2.0344,2.1042,2.1322,2.1249,2.1403,2.1736,2.2166,2.198,2.2062,0.0,0.0,3.1455,3.1611,3.2608,3.3827,3.4864,3.5595,3.6315,3.7175,3.755,3.7943,3.8659,3.9669,4.052,4.0868,4.0374,4.0202,4.0909,4.0682,4.0602,4.0984,4.1208,4.124,4.1015,4.0935,4.082,4.0597,4.0567,4.0178,3.9232,3.8969,3.852,3.7873,3.7622,3.7185,3.6504,3.6291,3.5538,3.428,3.5336,3.5515,3.4925,3.5723,3.5935,3.5684,3.492,3.3961,3.2884,3.2542,3.2024,3.1537,3.2354,3.245,3.2041,3.1445,3.1002,3.0553,2.9266,2.871,2.8502,2.8265,2.822,2.8451,2.9092,2.8903,2.8526,2.8944,2.8622,2.8094,2.7715,2.721,2.6654,2.6244,2.5823,2.537,2.4921,2.4694,2.4394,2.3741,2.3505,2.3446,2.3623,2.3636,2.3708,2.3806,2.3688,2.3569,2.339,2.2848,2.242,2.2297,2.1937,2.1761,2.1698,2.1549,2.1463,2.1388,2.1336,2.1083,2.0635,2.1008,2.0816,2.0042,2.0752,2.1135,2.1123,2.1663,2.1999,2.2185,2.1782,2.1742,3.0707,3.0687,0.0,3.1602,3.1802,3.2251,3.3885,3.4295,3.4578,3.5445,3.6344,3.6993,3.709,3.8453,3.987,4.0848,4.096,4.0929,4.098,4.1726,4.1964,4.1193,4.1766,4.191,4.1073,4.0935,4.0568,3.9723,3.9664,3.9295,3.841,3.7525,3.6984,3.6877,3.6074,3.5559,3.5388,3.4621,3.4131,3.3938,3.401,3.3964,3.392,3.4776,3.458,3.3563,3.3505,3.287,3.1805,3.1043,3.0665,3.0635,3.145,3.1017,3.0145,3.1592,3.1201,2.9793,2.8804,2.81,2.753,2.6719,2.6574,2.6877,2.7671,2.771,2.7582,2.8023,2.7745,2.71,2.6563,2.6054,2.5632,2.5328,2.4921,2.4394,2.3813,2.3505,2.3314,2.3148,2.275,2.258,2.3027,2.3305,2.3343,2.303,2.333,2.339,2.28,2.2678,2.2494,2.1987,2.1925,2.1812,2.1698,2.1698,2.1612,2.1388,2.1388,2.1135,2.0635,2.0635,2.0377,1.9933,2.0237,2.0677,2.1123,2.1135,2.1526,2.2173,2.168,2.1438,0.0,0.0,0.0,3.1661,3.1786,3.2003,3.3176,3.3826,3.4295,3.4648,3.5489,3.6324,3.6993,3.8042,3.8924,3.9334,3.8926,3.8951,4.0068,4.004,4.0179,4.0942,4.1283,4.1338,4.0974,4.0898,4.0538,3.9664,3.9555,3.8914,3.7486,3.752,3.7353,3.6754,3.6882,3.6439,3.5315,3.3861,3.2856,3.2301,3.3211,3.3316,3.2751,3.3525,3.3329,3.2353,3.1766,3.1306,3.0939,3.0661,3.0064,2.9439,3.0283,3.0152,2.9493,2.9781,2.9501,2.8843,2.8186,2.7415,2.6607,2.5897,2.5779,2.5973,2.6451,2.6351,2.6296,2.726,2.6959,2.6279,2.6105,2.5784,2.5397,2.4765,2.4337,2.393,2.3412,2.3005,2.2628,2.2396,2.2161,2.2173,2.2469,2.2273,2.2137,2.2187,2.2433,2.2494,2.2075,2.242,2.2555,2.2123,2.2061,2.2061,2.2011,2.1874,2.18,2.1737,2.1526,2.1325,2.1135,2.1019,2.0764,2.0248,2.0366,2.0264,2.0006,2.0456,2.0837,2.1219,2.1249,2.1143,3.0224,0.0,0.0,3.1292,3.1651,3.1939,3.2474,3.3246,3.395,3.4257,3.4863,3.5621,3.659,3.7222,3.7799,3.8422,3.8059,3.8066,3.9208,3.9346,3.9636,4.0478,4.1057,4.1274,4.0937,4.0645,4.0091,3.9174,3.8783,3.7943,3.644,3.6837,3.6805,3.6181,3.6345,3.588,3.4718,3.2923,3.177,3.1222,3.1845,3.1805,3.1219,3.1678,3.1489,3.0775,3.0171,2.9908,2.9931,2.9908,2.9373,2.8601,2.9461,2.9323,2.8658,2.8592,2.8224,2.7724,2.7173,2.6478,2.5775,2.5182,2.5129,2.5272,2.5438,2.5379,2.5438,2.6146,2.5916,2.5438,2.5439,2.5174,2.4593,2.3564,2.3135,2.2834,2.2298,2.2273,2.2297,2.2061,2.1937,2.1925,2.1925,2.1788,2.1651,2.1678,2.1928,2.2002,2.1639,2.1913,2.1987,2.18,2.18,2.1851,2.1851,2.1925,2.1987,2.1925,2.1663,2.1526,2.1474,2.1348,2.1083,2.0741,2.056,2.0123,1.9375,1.983,2.0198,2.0366,2.0353,2.0476,0.0,0.0,0.0,3.0524,3.1367,3.1932,3.1856,3.252,3.339,3.4194,3.4465,3.4813,3.5676,3.5878,3.6476,3.8163,3.8495,3.8505,3.8478,3.985,4.0584,3.9789,4.111,4.1752,4.0946,4.0073,3.9148,3.8125,3.7283,3.6356,3.5354,3.532,3.5273,3.5143,3.4204,3.362,3.3468,3.1789,3.0885,3.0766,2.9904,2.9471,2.9407,2.9323,2.9115,2.879,2.8724,2.8724,2.8766,2.87,2.8478,2.8255,2.9034,2.8546,2.7483,2.8164,2.7653,2.6452,2.5742,2.5351,2.5089,2.4536,2.4565,2.4771,2.4694,2.4831,2.4995,2.4741,2.4697,2.4597,2.4509,2.3989,2.3207,2.1753,2.1388,2.1187,2.0462,2.1365,2.2297,2.2185,2.1999,2.1788,2.1463,2.1788,2.1987,2.1451,2.1776,2.1975,2.1698,2.1233,2.0903,2.0903,2.1008,2.1135,2.106,2.1726,2.2061,2.1862,2.1862,2.1812,2.1698,2.1537,2.1388,2.1388,2.0892,2.0187,1.9438,1.9375,1.9489,1.9654,1.9138,1.9425,2.9258,0.0,0.0,0.0,0.0,0.0,3.2606,3.2572,3.2527,3.3414,3.3629,3.3756,3.4042,3.4111,3.4281,3.4766,3.5896,3.6918,3.7483,3.7954,3.8611,3.9574,3.95,3.952,3.9917,3.9077,3.8143,3.7225,3.6862,3.6257,3.5354,3.5815,3.6021,3.5913,3.4377,3.3261,3.2638,3.0922,2.9983,2.9867,2.9565,2.9411,2.9407,2.9283,2.9052,2.879,2.8731,2.8464,2.8093,2.8264,2.8129,2.7847,2.8029,2.7666,2.7007,2.6843,2.636,2.5742,2.5237,2.4792,2.4358,2.3533,2.3737,2.4213,2.3506,2.3595,2.3979,2.4134,2.3822,2.3428,2.32,2.2701,2.2151,2.1455,2.1089,2.0794,2.059,2.0602,2.0816,2.1221,2.1612,2.1788,2.1463,2.121,2.0955,2.0688,2.1071,2.1262,2.0967,2.14,2.1588,2.1071,2.1348,2.1285,2.0624,2.1019,2.1285,2.1336,2.121,2.1348,2.1812,2.1686,2.1624,2.1624,2.1336,2.0642,1.9596,1.9156,1.8848,1.8812,1.9265,1.9754,0.0,0.0,2.9822,3.1208,0.0,0.0,3.2118,3.2121,3.2125,3.265,3.2773,3.2901,3.3289,3.336,3.336,3.3363,3.4218,3.5162,3.6011,3.6715,3.752,3.849,3.8433,3.8501,3.9014,3.8148,3.7315,3.6747,3.6251,3.572,3.5157,3.5512,3.5534,3.5097,3.3656,3.2504,3.1694,3.0283,2.9511,2.9411,2.9209,2.9123,2.9097,2.8874,2.8597,2.8306,2.8255,2.7943,2.7478,2.7624,2.7577,2.743,2.7355,2.6989,2.6521,2.6052,2.5615,2.516,2.443,2.4085,2.3806,2.278,2.2962,2.3432,2.2703,2.2729,2.2967,2.3119,2.2777,2.234,2.2005,2.1667,2.1279,2.0621,2.0257,2.0009,1.9694,1.9704,1.9901,2.0355,2.1008,2.1348,2.1008,2.0944,2.0892,2.0764,2.0955,2.1083,2.0903,2.1146,2.1198,2.0688,2.0828,2.0775,2.0107,2.0624,2.0944,2.0805,2.0892,2.0955,2.1146,2.0955,2.1031,2.1371,2.1146,2.0653,1.9669,1.9219,1.8754,1.8364,1.8932,1.9435,0.0,0.0,0.0,3.0559,3.1367,0.0,3.1089,3.1541,3.2085,3.2024,3.2069,3.2327,3.3025,3.3166,3.3186,3.3278,3.3298,3.3609,3.4475,3.5872,3.688,3.7074,3.7618,3.8025,3.8128,3.7211,3.6573,3.6443,3.5592,3.5018,3.4908,3.483,3.4354,3.3373,3.252,3.1613,3.0652,2.9764,2.9289,2.924,2.8832,2.8652,2.8634,2.8324,2.7974,2.7584,2.7577,2.7355,2.6975,2.6942,2.694,2.6989,2.6859,2.6453,2.5892,2.5545,2.5153,2.462,2.3493,2.3296,2.3359,2.2291,2.2256,2.263,2.2214,2.2163,2.2123,2.1874,2.1651,2.1302,2.0858,2.073,2.0473,1.9431,1.9177,1.8977,1.8405,1.8721,1.9233,1.9541,2.0215,2.07,2.0366,2.0741,2.1135,2.1094,2.1094,2.1094,2.1158,2.0764,2.0377,1.9998,2.0107,2.0042,1.9594,2.0495,2.0805,2.0366,2.0579,2.0643,2.0226,1.9976,2.0182,2.0903,2.07,2.0295,1.9684,1.9364,1.8881,1.8124,1.8373,1.8741,2.8797,2.9218,2.9635,3.0503,3.0859,0.0,3.1631,3.1943,3.2094,3.2073,3.2099,3.2138,3.2224,3.2244,3.2466,3.3115,3.3252,3.3596,3.4484,3.4841,3.5531,3.6938,3.6471,3.6315,3.7018,3.6104,3.5417,3.5403,3.5113,3.4908,3.481,3.4809,3.405,3.2426,3.2096,3.1206,2.9694,2.9112,2.8819,2.8814,2.8453,2.8324,2.8376,2.8129,2.788,2.7584,2.75,2.7258,2.6975,2.6487,2.6315,2.6368,2.628,2.5766,2.5003,2.4561,2.4253,2.3939,2.2775,2.2742,2.3005,2.1773,2.1985,2.2572,2.1699,2.1813,2.2061,2.1285,2.0752,2.0291,1.9922,1.966,1.933,1.8808,1.8472,1.8202,1.8076,1.8134,1.8259,1.8104,1.9166,1.9911,1.9562,1.9628,1.9824,2.0226,2.0302,2.0495,2.1094,2.1094,2.0892,2.0506,2.0764,2.056,1.9441,2.0096,2.0302,1.9802,1.9938,2.0335,2.0858,2.0358,2.0335,2.0892,2.0624,2.0117,1.9369,1.8753,1.8333,1.8114,1.782,1.7958,2.9117,2.9545,3.0053,3.0485,3.0595,0.0,0.0,3.1696,3.189,3.1481,3.2072,3.2485,3.1953,3.2205,3.2607,3.2938,3.2716,3.2938,3.4178,3.4041,3.4108,3.4962,3.4901,3.4956,3.5405,3.5235,3.5053,3.4964,3.4888,3.481,3.4727,3.4645,3.3811,3.2077,3.1871,3.1002,2.9307,2.8897,2.8688,2.8688,2.8201,2.7954,2.7936,2.7666,2.7444,2.7227,2.6905,2.6657,2.6453,2.5819,2.5416,2.5211,2.5411,2.5035,2.4333,2.4139,2.3789,2.3345,2.2691,2.2531,2.2444,2.1415,2.1506,2.1959,2.1308,2.1313,2.1348,2.0518,2.0053,1.9726,1.9341,1.9075,1.8875,1.8549,1.8347,1.8212,1.8134,1.8144,1.8066,1.7862,1.8395,1.8921,1.8911,1.91,1.9365,1.9628,1.9639,1.9704,2.0042,2.0096,2.0107,2.0129,2.0259,2.0183,1.977,2.0031,1.9944,1.9221,1.9233,1.9334,1.9375,1.9312,1.9604,2.0366,2.0172,1.9717,1.9028,1.827,1.8176,1.8582,1.8076,1.81,2.9385,2.9821,3.0389,3.0402,3.0424,3.0491,0.0,0.0,0.0,3.0793,3.1941,3.285,3.205,3.2598,3.3152,3.3018,3.2506,3.2492,3.3626,3.3301,3.3072,3.3404,3.366,3.393,3.4251,3.474,3.4964,3.4788,3.4768,3.4687,3.4561,3.445,3.3687,3.2128,3.1811,3.0919,2.9351,2.884,2.8525,2.8474,2.7858,2.7522,2.7461,2.7085,2.6842,2.6691,2.6139,2.5872,2.5762,2.5112,2.4545,2.4168,2.4667,2.441,2.3761,2.3902,2.3572,2.2977,2.2511,2.2255,2.1916,2.1045,2.0921,2.1092,2.0766,2.0682,2.0506,1.9726,1.9473,1.9341,1.8875,1.8741,1.8674,1.8482,1.8414,1.8347,1.8056,1.8056,1.792,1.7657,1.7657,1.793,1.825,1.8643,1.8977,1.9034,1.8911,1.8844,1.8977,1.8961,1.9017,1.9452,1.9388,1.9488,1.9759,1.9835,1.9489,1.8633,1.8563,1.8375,1.7915,1.8319,1.8942,1.9639,1.9704,1.935,1.8627,1.8218,1.8288,1.893,1.8281,1.8298,2.9772,2.992,3.0052,3.0066,3.019,3.0309,3.0278,0.0,3.1399,3.0513,0.0,3.2716,3.2603,0.0,0.0,3.3777,3.3643,3.3356,3.2756,3.2523,3.3051,3.4822,3.37,3.3344,3.4835,3.4889,3.4788,3.4645,3.4623,3.4561,3.4427,3.434,3.3836,3.2808,3.1948,3.0968,2.9824,2.8667,2.7971,2.7713,2.7293,2.704,2.6975,2.6436,2.6175,2.6085,2.554,2.5243,2.5073,2.4455,2.4044,2.3837,2.4557,2.4178,2.3345,2.361,2.3443,2.29,2.1611,2.1521,2.1687,2.039,2.0088,2.0227,1.9918,1.981,1.966,1.9375,1.9121,1.8808,1.8617,1.8482,1.8337,1.8337,1.8212,1.7862,1.7217,1.7079,1.6862,1.6097,1.6515,1.7157,1.7529,1.7666,1.7794,1.8104,1.8104,1.8297,1.8911,1.8671,1.8643,1.9003,1.8736,1.8589,1.867,1.8967,1.8834,1.8142,1.8152,1.8417,1.8878,1.9073,1.9191,1.9198,1.932,1.9078,1.8446,1.8919,1.882,1.8281,1.782,1.8002,2.9302,2.9401,2.9495,2.9603,2.9725,2.9804,2.9886,3.0643,3.1068,3.0242,0.0,0.0,0.0,0.0,0.0,0.0,3.3866,3.3582,3.3638,3.2769,3.2486,3.3454,3.3238,3.3299,3.4036,3.4466,3.4438,3.3821,3.4233,3.4427,3.4245,3.4197,3.3753,3.2791,3.1788,3.0761,2.9735,2.8429,2.7683,2.7487,2.712,2.6759,2.6418,2.6139,2.5835,2.5395,2.4816,2.4496,2.4318,2.3578,2.3157,2.3007,2.376,2.356,2.2915,2.3336,2.3184,2.2706,2.1712,2.1435,2.1355,1.998,1.9598,1.9651,1.9265,1.9369,1.9539,1.9264,1.9065,1.8875,1.8347,1.8144,1.7998,1.7588,1.7382,1.7245,1.6664,1.6585,1.6515,1.6446,1.6298,1.6376,1.689,1.7314,1.7647,1.7765,1.7784,1.7784,1.7901,1.7803,1.7898,1.8345,1.8272,1.8364,1.8757,1.871,1.8465,1.7949,1.7661,1.7726,1.8183,1.8127,1.8314,1.871,1.8509,1.8298,1.8114,1.7988,1.7866,1.7693,1.7818,1.8053,2.8657,2.8773,2.8968,2.9142,2.9243,2.9323,2.9476,3.0057,3.0411,2.9844,3.088,0.0,0.0,0.0,3.3195,3.362,0.0,3.3409,3.3952,3.3172,3.2645,3.2883,3.333,3.3452,3.2997,3.3918,3.4042,3.2844,3.3715,3.4128,3.3759,3.3843,3.3592,3.29,3.161,3.0531,2.9697,2.8259,2.7426,2.721,2.6825,2.6418,2.5997,2.5635,2.5205,2.4681,2.4101,2.3679,2.3463,2.283,2.2402,2.2189,2.2752,2.2598,2.2101,2.2782,2.275,2.2204,2.1213,2.0623,2.011,1.8897,1.8628,1.8701,1.836,1.8619,1.8931,1.8664,1.8596,1.8462,1.7872,1.7735,1.7529,1.7047,1.683,1.6612,1.6105,1.587,1.5756,1.593,1.5581,1.5407,1.5939,1.6655,1.7148,1.7285,1.7226,1.7176,1.7245,1.722,1.7328,1.7833,1.7736,1.7842,1.8432,1.824,1.7927,1.755,1.7352,1.7278,1.754,1.7385,1.7656,1.8432,1.7833,1.7638,1.7738,1.7229,1.702,1.7102,1.7425,1.7701,2.8076,2.827,2.8471,2.8578,2.8837,2.8997,2.902,2.9144,2.9249,2.923,2.9894,3.0461,3.0461,3.1131,3.1668,3.1695,3.2323,0.0,0.0,3.3481,3.4074,3.4379,3.4461,3.3773,3.2028,3.3338,3.3576,3.1792,3.3118,3.3666,3.2871,3.3195,3.34,3.3382,3.1534,3.0325,2.9884,2.8237,2.7178,2.6725,2.6262,2.5905,2.5684,2.4697,2.4142,2.3921,2.3377,2.2859,2.2463,2.2278,2.1902,2.1429,2.1559,2.1145,2.071,2.1921,2.1894,2.1151,1.9632,1.8437,1.7513,1.6825,1.6918,1.7203,1.6978,1.7129,1.7442,1.7304,1.7235,1.7235,1.6968,1.6908,1.6908,1.6908,1.6603,1.6097,1.5409,1.4698,1.4065,1.3715,1.3924,1.4274,1.4617,1.518,1.5745,1.6237,1.6376,1.6594,1.7392,1.7129,1.7102,1.7491,1.6966,1.6814,1.7207,1.7038,1.694,1.6864,1.7205,1.7446,1.7307,1.7543,1.7833,1.8182,1.7579,1.7235,1.7211,1.7045,1.6831,1.6518,1.6407,1.6707,2.7391,2.7512,2.7678,2.8047,2.8192,2.8342,2.8608,2.8731,2.8821,2.8868,2.9112,2.969,3.0797,3.0785,3.095,3.2008,3.1978,3.1997,0.0,3.2834,3.2797,3.2177,3.2274,3.2397,3.2458,3.2367,3.2121,3.1634,3.2594,3.2974,3.2428,3.3039,3.3284,3.3014,3.1142,3.0015,2.9822,2.7922,2.6825,2.6623,2.6066,2.5572,2.5137,2.4364,2.3636,2.295,2.2618,2.2109,2.1431,2.1126,2.0557,1.9888,1.9834,1.9491,1.916,2.0592,2.0756,2.0213,1.9436,1.8375,1.7273,1.7121,1.7235,1.7233,1.6825,1.6986,1.7373,1.7382,1.7157,1.6886,1.6433,1.6129,1.5834,1.5463,1.5233,1.4988,1.4261,1.4089,1.4057,1.394,1.3805,1.3912,1.4514,1.433,1.4553,1.5745,1.5886,1.5895,1.5982,1.6278,1.6528,1.6524,1.6702,1.689,1.7157,1.7038,1.6913,1.6853,1.7042,1.7051,1.6825,1.6945,1.7157,1.7501,1.7041,1.6826,1.6951,1.6146,1.5542,1.5167,1.4865,1.5438,2.6791,2.6923,2.71,2.7517,2.7636,2.7725,2.8101,2.8237,2.8317,2.8466,2.8518,2.8902,3.0057,2.9802,2.9867,3.1202,3.101,3.0919,0.0,3.1492,3.1156,3.0772,3.1003,3.1349,3.1715,3.136,3.0951,3.0577,3.1499,3.1928,3.1606,3.2247,3.2621,3.2601,3.1005,2.997,2.9625,2.7947,2.6825,2.6295,2.5721,2.5098,2.4527,2.3736,2.3039,2.2388,2.2123,2.1492,2.0633,2.0307,1.9581,1.8727,1.8478,1.8114,1.7813,1.8945,1.8987,1.8456,1.8295,1.7628,1.6821,1.6811,1.6811,1.676,1.6412,1.6551,1.6857,1.6774,1.6464,1.6007,1.5635,1.5179,1.4783,1.4494,1.4266,1.3956,1.3638,1.356,1.3598,1.3693,1.3517,1.3497,1.4099,1.384,1.392,1.5037,1.518,1.518,1.5188,1.5604,1.5877,1.5824,1.6324,1.6821,1.7245,1.7107,1.7038,1.7038,1.6968,1.6766,1.6482,1.6405,1.6606,1.695,1.6358,1.6281,1.6677,1.5556,1.4801,1.4505,1.4064,1.4359]},{"header":{"parameterUnit":"m.s-1","parameterCategory":1,"la1":30.6,"la2":29.2853,"lo1":-89.7004,"lo2":-87.6739,"dy":0.0162,"dx":0.0183,"nx":112,"ny":82,"refTime":"2023-05-19T00:00:00:Z","depth":0,"parameterNumber":3,"parameterNumberName":"V-component_of_WINDS"},"data":[0.0,0.0,0.0,0.0,0.0,0.0,0.0,0.0,0.0,0.0,0.0,0.0,0.0,0.0,0.0,0.0,0.0,0.0,0.0,0.0,0.0,0.0,0.0,0.0,0.0,0.0,0.0,0.0,0.0,0.0,0.0,0.0,0.0,0.0,0.0,0.0,0.0,0.0,0.0,0.0,0.0,0.0,0.0,0.0,0.0,0.0,0.0,0.0,0.0,0.0,0.0,0.0,0.0,0.0,0.0,0.0,0.0,0.0,0.0,0.0,0.0,0.0,0.0,0.0,0.0,0.0,0.0,0.0,0.0,0.0,0.0,0.0,0.0,0.0,0.0,0.0,0.0,0.0,0.0,0.0,0.0,0.0,0.0,0.0,0.0,0.0,0.0,0.0,0.0,0.0,0.0764,0.0,-0.0833,-0.1291,-0.137,-0.1859,-0.2073,-0.1796,0.0,0.0,0.0,0.0,0.0,0.0,0.0,0.0,0.0,0.0,0.0,0.0,0.0,0.0,0.0,0.0,0.0,0.0,0.0,0.0,0.0,0.0,0.0,0.0,0.0,0.0,0.0,0.0,0.0,0.0,0.0,0.0,0.0,0.0,0.0,0.0,0.0,0.0,0.0,0.0,0.0,0.0,0.0,0.0,0.0,0.0,0.0,0.0,0.0,0.0,0.0,0.0,0.0,0.0,0.0,0.0,0.0,0.0,0.0,0.0,0.0,0.0,0.0,0.0,0.0,0.0,0.0,0.0,0.0,0.0,0.0,0.0,0.0,0.0,0.0,0.0,0.0,0.0,0.0,0.0,0.0,0.0,0.0,0.0,0.0,0.0,0.0,0.0,0.0,0.0,0.0,0.0,0.0,0.0,0.0,0.0,0.0,0.0,0.0,0.0,0.0,0.0,0.0,0.0,0.0642,-0.1957,-0.1991,-0.1954,-0.2427,-0.2888,-0.2796,-0.1847,0.0,0.0,0.0,0.0,0.0,0.0,0.0,0.0,0.0,0.0,0.0,0.0,0.0,0.0,0.0,0.0,0.0,0.0,0.0,0.0,0.0,0.0,0.0,0.0,0.0,0.0,0.0,0.0,0.0,0.0,0.0,0.0,0.0,0.0,0.0,0.0,0.0,0.0,0.0,0.0,0.0,0.0,0.0,0.0,0.0,0.0,0.0,0.0,0.0,0.0,0.0,0.0,0.0,0.0,0.0,0.0,0.0,0.0,0.0,0.0,0.0,0.0,0.0,0.0,0.0,0.0,0.0,0.0,0.0,0.0,0.0,0.0,0.0,0.0,0.0,0.0,0.0,0.0,0.0,0.0,0.0,0.0,0.0,0.0,0.0,0.0,0.0,0.0,0.0,0.0,0.0,0.0,0.0,0.0,0.0,0.0,0.0,0.0,0.0,0.0,0.0,0.0,0.0,0.1123,0.0242,-0.2114,-0.2165,-0.2181,-0.2591,-0.3157,-0.3024,-0.1961,-0.235,0.0,0.0,0.0,0.0,0.0,0.0,0.0,0.0,0.0,0.0,0.0,0.0,0.0,0.0,0.0,0.0,0.0,0.0,0.0,0.0,0.0,0.0,0.0,0.0,0.0,0.0,0.0,0.0,0.0,0.0,0.0,0.0,0.0,0.0,0.0,0.0,0.0,0.0,0.0,0.0,0.0,0.0,0.0,0.0,0.0,0.0,0.0,0.0,0.0,0.0,0.0,0.0,0.0,0.0,0.0,0.0,0.0,0.0,0.0,0.0,0.0,0.0,0.0,0.0,0.0,0.0,0.0,0.0,0.0,0.0,0.0,0.0,0.0,0.0,0.0,0.0,0.0,0.0,0.0,0.0,0.0,0.0,0.0,0.0,0.0,0.0,0.0,0.0,0.0,0.0,0.0,0.0,0.0,0.0,0.0,0.0,0.0,0.0,0.0,0.0,0.0,0.0,-0.0123,-0.0936,-0.253,-0.257,-0.2627,-0.3045,-0.3435,-0.3251,-0.2296,-0.2775,0.0,0.0,0.0,0.0,0.0,0.0,0.0,0.0,0.0,0.0,0.0,0.0,0.0,0.0,0.0,0.0,0.0,0.0,0.0,0.0,0.0,0.0,0.0,0.0,0.0,0.0,0.0,0.0,0.0,0.0,0.0,0.0,0.0,0.0,0.0,0.0,0.0,0.0,0.0,0.0,0.0,0.0,0.0,0.0,0.0,0.0,0.0,0.0,0.0,0.0,0.0,0.0,0.0,0.0,0.0,0.0,0.0,0.0,0.0,0.0,0.0,0.0,0.0,0.0,0.0,0.0,0.0,0.0,0.0,0.0,0.0,0.0,0.0,0.0,0.0,0.0,0.0,0.0,0.0,0.0,0.0,0.0,0.0,0.0,0.0,0.0,0.0,0.0,0.0,0.0,0.0,0.0,0.0,0.0,0.0,0.0,0.0,0.0,0.0,0.0,0.0,0.0,-0.1813,-0.34,-0.44,-0.3893,-0.3753,-0.4412,-0.4291,-0.3791,-0.2901,-0.3094,0.0,0.0,0.0,0.0,0.0,0.0,0.0,0.0,0.0,0.0,0.0,0.0,0.0,0.0,0.0,0.0,0.0,0.0,0.0,0.0,0.0,0.0,0.0,0.0,0.0,0.0,0.0,0.0,0.0,0.0,0.0,0.0,0.0,0.0,0.0,0.0,0.0,0.0,0.0,0.0,0.0,0.0,0.0,0.0,0.0,0.0,0.0,0.0,0.0,0.0,0.0,0.0,0.0,0.0,0.0,0.0,0.0,0.0,0.0,0.0,0.0,0.0,0.0,0.0,0.0,0.0,0.0,0.0,0.0,0.0,0.0,0.0,0.0,0.0,0.0,0.0,0.0,0.0,0.0,0.0,0.0,0.0,0.0,0.0,0.0,0.0,0.0,0.0,0.0,0.0,0.0,0.0,0.0,0.0,0.0,0.0,0.0,0.0,0.0,0.0,0.0,0.0,-0.1765,-0.3201,-0.4791,-0.4208,-0.4094,-0.5039,-0.4817,-0.4263,-0.3411,0.0,0.0,0.0,0.0,0.0,0.0,0.0,0.0,0.0,0.0,0.0,0.0,0.0,0.0,0.0,0.0,0.0,0.0,0.0,0.0,0.0,0.0,0.0,0.0,0.0,0.0,0.0,0.0,0.0,0.0,0.0,0.0,0.0,0.0,0.0,0.0,0.0,0.0,0.0,0.0,0.0,0.0,0.0,0.0,0.0,0.0,0.0,0.0,0.0,0.0,0.0,0.0,0.0,0.0,0.0,0.0,0.0,0.0,0.0,0.0,0.0,0.0,0.0,0.0,0.0,0.0,0.0,0.0,0.0,0.0,0.0,0.0,0.0,0.0,0.0,0.0,0.0,0.0,0.0,0.0,0.0,0.0,0.0,0.0,0.0,0.0,0.0,0.0,0.0,0.0,0.0,0.0,0.0,0.0,0.0,0.0,0.0,0.0,0.0,0.0,0.0,0.0,-0.0969,-0.2321,-0.388,-0.5242,-0.4872,-0.4807,-0.5529,-0.5251,-0.4629,-0.3799,0.0,0.0,0.0,0.0,0.0,0.0,0.0,0.0,0.0,0.0,0.0,0.0,0.0,0.0,0.0,0.0,0.0,0.0,0.0,0.0,0.0,0.0,0.0,0.0,0.0,0.0,0.0,0.0,0.0,0.0,0.0,0.0,0.0,0.0,0.0,0.0,0.0,0.0,0.0,0.0,0.0,0.0,0.0,0.0,0.0,0.0,0.0,0.0,0.0,0.0,0.0,0.0,0.0,0.0,0.0,0.0,0.0,0.0,0.0,0.0,0.0,0.0,0.0,0.0,0.0,0.0,0.0,0.0,0.0,0.0,0.0,0.0,0.0,0.0,0.0,0.0,0.0,0.0,0.0,0.0,0.0,0.0,0.0,0.0,0.0,0.0,0.0,0.0,0.0,0.0,0.0,0.0,0.0,0.0,0.0,0.0,0.0,0.0,0.0,0.0,0.0,0.0,-0.139,-0.3964,-0.5829,-0.6106,-0.6033,-0.5949,-0.6117,-0.5605,-0.4934,0.0,0.0,0.0,0.0,0.0,0.0,0.0,0.0,0.0,0.0,0.0,0.0,0.0,0.0,0.0,0.0,0.0,0.0,0.0,0.0,0.0,0.0,0.0,0.0,0.0,0.0,0.0,0.0,0.0,0.0,0.0,0.0,0.0,0.0,0.0,0.0,0.0,0.0,0.0,0.0,0.0,0.0,0.0,0.0,0.0,0.0,0.0,0.0,0.0,0.0,0.0,0.0,0.0,0.0,0.0,0.0,0.0,0.0,0.0,0.0,0.0,0.0,0.0,0.0,0.0,0.0,0.0,0.0,0.0,0.0,0.0,0.0,0.0,0.0,0.0,0.0,0.0,0.0,0.0,0.0,0.0,0.0,0.0,0.0,0.0,0.0,0.0,0.0,0.0,0.0,0.0,0.0,0.0,0.0,0.0,0.0,0.0,0.0,0.0,0.0,0.0,0.0,0.0,-0.3106,-0.5612,-0.7754,-0.8617,-0.7694,-0.7218,-0.7617,-0.6919,-0.5958,-0.4835,0.0,0.0,0.0,0.0,0.0,0.0,0.0,0.0,0.0,0.0,0.0,0.0,0.0,0.0,0.0,0.0,0.0,0.0,0.0,0.0,0.0,0.0,0.0,0.0,0.0,0.0,0.0,0.0,0.0,0.0,0.0,0.0,0.0,0.0,0.0,0.0,0.0,0.0,0.0,0.0,0.0,0.0,0.0,0.0,0.0,0.0,0.0,0.0,0.0,0.0,0.0,0.0,0.0,0.0,0.0,0.0,0.0,0.0,0.0,0.0,0.0,0.0,0.0,0.0,0.0,0.0,0.0,0.0,0.0,0.0,0.0,0.0,0.0,0.0,0.0,0.0,0.0,0.0,0.0,0.0,0.0,0.0,0.0,0.0,0.0,0.0,0.0,0.0,0.0,0.0,0.0,0.0,0.0,0.0,0.0,0.0,0.0,0.0,0.0,0.0,0.0,0.0,-0.447,-0.6802,-0.8603,-0.94,-0.855,-0.8034,-0.8269,-0.7529,-0.6608,-0.5609,0.0,0.0,0.0,0.0,0.0,0.0,0.0,0.0,0.0,0.0,0.0,0.0,0.0,0.0,0.0,0.0,0.0,0.0,0.0,0.0,0.0,0.0,0.0,0.0,0.0,0.0,0.0,0.0,0.0,0.0,0.0,0.0,0.0,0.0,0.0,0.0,0.0,0.0,0.0,0.0,0.0,0.0,0.0,0.0,0.0,0.0,0.0,0.0,0.0,0.0,0.0,0.0,0.0,0.0,0.0,0.0,0.0,0.0,0.0,0.0,0.0,0.0,0.0,0.0,0.0,0.0,0.0,0.0,0.0,0.0,0.0,0.0,0.0,0.0,0.0,0.0,0.0,0.0,0.0,0.0,0.0,0.0,0.0,0.0,0.0,0.0,0.0,0.0,0.0,0.0,0.0,0.0,0.0,0.0,0.0,0.0,0.0,0.0,0.0,0.0,0.0,0.0,-0.5667,-0.7667,-0.9065,-0.9279,-0.892,-0.8663,-0.8493,-0.785,-0.7122,-0.6367,0.0,0.0,0.0,0.0,0.0,0.0,0.0,0.0,0.0,0.0,0.0,0.0,0.0,0.0,0.0,0.0,0.0,0.0,0.0,0.0,0.0,0.0,0.0,0.0,0.0,0.0,0.0,0.0,0.0,0.0,0.0,0.0,0.0,0.0,0.0,0.0,0.0,0.0,0.0,0.0,0.0,0.0,0.0,0.0,0.0,0.0,0.0,0.0,0.0,0.0,0.0,0.0,0.0,0.0,0.0,0.0,0.0,0.0,0.0,0.0,0.0344,0.0673,0.0,0.0,0.0,0.0,0.0,0.0,0.0,0.0,0.0,0.0,0.0,0.0,0.0,0.0,0.0,0.0,0.0,0.0,0.0,0.0,0.0,0.0,0.0,0.0,0.0,0.0,0.0,0.0,0.0,0.0,0.0,0.0,0.0,0.0,0.0,0.0,0.0,0.0,0.0,0.0,-0.756,-0.9604,-1.1046,-1.1384,-1.079,-1.0229,-0.9955,-0.9125,-0.8256,-0.7278,-0.6897,0.0,0.0,0.0,0.0,0.0,0.0,0.0,0.0,0.0,0.0,0.0,0.0,0.0,0.0,0.0,0.0,0.0,0.0,0.0,0.0,0.0,0.0,0.0,0.0,0.0,0.0,0.0,0.0,0.0,0.0,0.0,0.0,0.0,0.0,0.0,0.0,0.0,0.0,0.0,0.0,0.0,0.0,0.0,0.0,0.0,0.0,0.0,0.0,0.0,0.0,0.0,0.0,0.0,0.0,0.0,0.0,0.0,0.0,0.0,0.0117,0.0287,0.0,0.0,0.0,0.0,0.0,0.0,0.0,0.0,0.0,0.0,0.0,0.0,0.0,0.0,0.0,0.0,0.0,0.0,0.0,0.0,0.0,0.0,0.0,0.0,0.0,0.0,0.0,0.0,0.0,0.0,0.0,0.0,0.0,0.0,0.0,0.0,0.0,0.0,0.0,0.0,-0.4333,-0.6281,-0.8585,-1.1388,-1.1322,-1.0922,-1.0422,-0.9466,-0.8633,-0.8084,-0.7492,0.0,0.0,0.0,0.0,0.0,0.0,0.0,0.0,0.0,0.0,0.0,0.0,0.0,0.0,0.0,0.0,0.0,0.0,0.0,0.0,0.0,0.0,0.0,0.0,0.0,0.0,0.0,0.0,0.0,0.0,0.0,0.0,0.0,0.0,0.0,0.0,0.0,0.0,0.0,0.0,0.0,0.0,0.0,0.0,0.0,0.0,0.0,0.0,0.0,0.0,0.0,0.0,0.0,-0.0312,-0.0438,-0.0498,-0.0818,-0.1133,-0.1311,-0.0122,-0.0238,-0.1231,-0.0057,0.0,0.0,0.0,0.0,0.0,0.0,0.0,0.0,0.0,0.0,0.0,0.0,0.0,0.0,0.0,0.0,0.0,0.0,0.0,0.0,0.0,0.0,0.0554,0.0,0.3865,0.6833,0.3785,0.0,0.0,0.0,0.0,0.0,0.0,0.0,0.0,0.0,0.0,0.0,-0.0776,-0.3235,-0.6559,-1.1091,-1.1432,-1.1141,-1.0587,-0.9575,-0.885,-0.8732,-0.7984,-0.7503,0.0,0.0,0.0,0.0,0.0,0.0,0.0,0.0,0.0,0.0,0.0,0.0,0.0,0.0,0.0,0.0,0.0,0.0,0.0,0.0,0.0,0.0,0.0,0.0,0.0,0.0,0.0,0.0,0.0,0.0,0.0,0.0,0.6913,0.6015,0.0,0.0,0.0,0.0,0.0,0.0,0.0,0.0,0.0,0.0,0.0,0.0,0.0,0.1917,0.0573,0.051,-0.0063,-0.1047,-0.1884,-0.2169,-0.1926,-0.2767,-0.2656,-0.1862,-0.2183,0.0,-0.188,-0.1697,0.0,0.0,0.0,0.0,0.0,0.0,0.0,0.0,0.0,0.0,0.0,0.0,0.0,0.0,0.0,0.0,0.0,0.0,0.0,0.0,0.0,0.0,0.3884,0.3463,0.7548,1.1431,1.0939,0.9139,0.7466,0.6824,0.3317,0.2018,0.0,0.0,0.0,0.0,0.0,0.0,-0.3195,-0.8155,-1.182,-1.2679,-1.1791,-1.1099,-1.105,-1.0102,-0.9413,-0.9159,-0.8896,-0.8421,-0.767,-0.7812,0.0,0.0,0.0,0.0,0.0,0.0,0.0,0.0,0.0,0.0,0.0,0.0,0.0,0.0,0.0,0.0,0.0,0.0,0.0,0.0,0.0,0.0,0.0,0.0,0.0,0.0,0.0,0.0,0.0,0.7206,0.7096,0.6913,0.6699,0.6343,0.0,0.0,0.0,0.0,0.0,0.0,0.0,0.0,0.0,0.4599,0.2426,0.1095,0.0743,-0.0068,-0.0874,-0.1594,-0.2142,-0.2429,-0.2639,-0.3026,-0.3201,-0.3229,-0.332,-0.3469,-0.3542,-0.2749,-0.2388,-0.2413,0.0,0.0,0.0,0.0,-0.3893,-0.5088,-0.5037,-0.5912,-0.6905,-0.6445,0.0,0.0,0.0,0.0,0.0,0.0,0.0,-0.0239,-0.167,0.4053,0.9973,0.9058,1.3303,1.7637,1.806,1.7036,1.5086,1.1726,1.1491,1.1117,0.889,0.8715,0.0,0.0,0.0,0.6723,0.2445,-0.1048,-0.5611,-1.2269,-1.2613,-1.1996,-1.1172,-1.0382,-0.9713,-0.9225,-0.9061,-0.8798,-0.8315,-0.819,-0.7865,0.0,0.0,0.0,0.0,0.0,0.0,0.0,0.0,0.0,0.0,0.0,0.0,0.0,0.0,0.0,0.0,0.0,0.0,0.0,0.0,0.0,0.0,0.0,0.0,0.0,0.0,0.0,0.0,0.78,0.7828,0.7876,0.7701,0.735,0.0,0.0,0.0,0.0,0.0,0.0,0.6796,0.6746,0.6187,0.4962,0.2546,0.1152,0.0786,-0.0213,-0.1203,-0.2124,-0.2236,-0.2593,-0.3115,-0.3342,-0.3732,-0.4207,-0.4229,-0.4477,-0.4858,-0.3753,-0.3381,-0.3573,-0.3453,-0.347,-0.3724,-0.4485,-0.5844,-0.7084,-0.6285,-0.7036,-0.8269,-0.7663,-0.7629,-0.7835,-0.7688,0.0,0.0,0.0,0.0,0.1016,-0.0443,0.782,1.6314,1.5455,1.8718,2.2182,2.2834,2.3045,2.1778,1.7405,1.8504,1.8413,1.2934,1.377,0.0,1.8527,1.5566,1.1294,0.6323,0.2123,-0.3678,-1.2326,-1.3109,-1.2547,-1.131,-1.0624,-1.0009,-0.9344,-0.9201,-0.9008,-0.8857,-0.8567,-0.8455,-0.8527,0.0,0.0,0.0,0.0,0.0,0.0,0.0,0.0,0.0,0.0,0.0,0.0,0.0,0.0,0.0,0.0,0.0,0.0,0.0,0.0,0.0,0.0,0.0,0.0,0.0,0.0,0.0,0.0,0.0,0.8597,0.9023,0.0,0.0,0.0,0.0,0.8081,0.8538,0.8516,0.7604,0.8409,0.7901,0.5909,0.4745,0.2994,0.0528,0.0442,-0.0654,-0.2835,-0.2838,-0.3201,-0.3779,-0.4397,-0.4538,-0.4217,-0.476,-0.5038,-0.5061,-0.486,-0.4648,-0.4474,-0.4966,-0.5225,-0.5389,-0.6083,-0.651,-0.6862,-0.7695,-0.7929,-0.8055,-0.8988,-0.9287,-0.937,-0.9717,-0.9666,0.0,0.0,-0.3196,0.5055,0.4235,1.2854,2.1837,2.2358,2.2817,2.3211,2.3653,2.3653,2.3538,2.3523,1.926,1.7213,2.221,0.0,1.6596,2.2327,1.2372,0.4168,0.4058,-0.626,-1.367,-1.3923,-1.2991,-1.2113,-1.165,-1.0872,-1.0213,-0.9707,-0.9479,-0.9263,-0.9008,-0.9211,-0.9145,-0.8778,-0.8876,0.0,0.0,0.0,0.0,0.0,0.0,0.0,0.0,0.0,0.0,0.0,0.0,0.0,0.0,0.0,0.0,0.0,0.0,0.0,0.0,0.0,0.0,0.0,0.0,0.0,0.0,0.0,0.0,1.1141,1.1379,0.0,1.0451,1.1115,1.1484,1.1115,1.1083,1.1,1.0848,1.0168,0.9332,0.8181,0.4753,0.2335,0.1041,-0.1803,-0.378,-0.4947,-0.4871,-0.4908,-0.5064,-0.5345,-0.5381,-0.5106,-0.5222,-0.5448,-0.5709,-0.579,-0.5586,-0.5238,-0.5825,-0.6076,-0.625,-0.668,-0.7091,-0.747,-0.8056,-0.8441,-0.8875,-0.9537,-1.0233,-1.0828,-1.1309,-1.1688,-1.1226,-0.7511,-0.0507,0.666,1.0082,1.7302,2.3573,2.3001,2.301,2.3295,2.3922,2.4075,2.4294,2.4841,2.2591,2.1148,2.2946,2.1404,2.067,2.3095,1.9369,1.3367,0.5254,0.036,-0.536,-1.3161,-1.3639,-1.2823,-1.138,-1.1005,-1.0409,-0.9454,-0.9372,-0.9263,-0.9008,-0.9361,-0.9517,-0.942,-0.9681,-0.9621,0.0,0.0,0.0,0.0,0.0,0.0,0.0,0.0,0.0,0.0,0.0,0.0,0.0,0.0,0.0,0.0,0.0,0.0,0.0,0.0,0.0,0.0,0.0,0.0,0.0,1.1858,1.2545,1.3178,1.3576,1.3577,1.316,1.3754,1.408,1.3866,1.3234,1.2649,1.2153,1.0857,0.9582,0.8401,0.5216,0.2683,0.0744,-0.2109,-0.4393,-0.6152,-0.5948,-0.6033,-0.6177,-0.5973,-0.5941,-0.5941,-0.5616,-0.5698,-0.6094,-0.643,-0.6369,-0.6105,-0.6602,-0.6737,-0.6803,-0.7433,-0.7747,-0.8001,-0.857,-0.9217,-0.9903,-1.0348,-1.1121,-1.1956,-1.2466,-1.1395,-0.9205,-0.5136,0.2125,0.9547,1.333,1.8957,2.35,2.286,2.3044,2.3522,2.4115,2.4514,2.4841,2.5086,2.4616,2.4058,2.3639,2.3544,2.3474,2.3396,2.1642,1.6367,0.5494,0.2307,-0.2848,-1.3143,-1.4001,-1.3262,-1.1652,-1.0907,-1.0229,-0.9461,-0.9138,-0.9037,-0.9211,-0.9309,-0.9413,-0.9688,-0.9991,-1.0043,-0.9725,0.0,0.0,0.0,0.0,0.0,0.0,0.0,0.0,0.0,0.0,0.0,0.0,0.0,0.0,0.0,0.0,0.0,0.0,0.0,0.0,0.0,0.0,0.0,1.2259,1.3441,1.4377,1.4393,1.532,1.6052,1.6255,1.638,1.6277,1.5871,1.4887,1.3396,1.1375,1.0363,0.8837,0.6453,0.6284,0.4089,-0.0333,-0.0326,-0.2333,-0.6291,-0.6067,-0.6314,-0.6942,-0.6247,-0.6173,-0.6563,-0.5948,-0.5864,-0.6403,-0.6775,-0.6976,-0.704,-0.7384,-0.7293,-0.7043,-0.8302,-0.8549,-0.8292,-0.9368,-1.0308,-1.1099,-1.1431,-1.1991,-1.2674,-1.3123,-0.8754,-0.3717,-0.3787,0.4724,1.3902,1.3975,1.7906,2.1972,2.2394,2.317,2.3903,2.4184,2.4895,2.5189,2.4496,2.495,2.5313,2.4942,2.4863,2.4527,2.3565,1.844,0.0,0.4536,-0.1545,-0.7572,-1.3897,-1.4034,-1.3203,-1.2297,-1.0506,-0.961,-0.9859,-0.8799,-0.8555,-0.9569,-0.9093,-0.904,-0.9465,-0.9814,-1.0123,-1.0403,0.0,0.0,0.0,0.0,0.0,0.0,0.0,0.0,0.0,0.0,0.0,0.0,0.0,0.0,0.0,0.0,0.0,0.0,0.0,0.0,0.0,1.4507,1.5726,1.4909,1.5523,1.6351,1.7153,1.7496,1.7631,1.7465,1.7796,1.7667,1.671,1.5764,1.4408,1.2296,1.1085,0.9667,0.7962,0.5394,0.2509,-0.0603,-0.2831,-0.5496,-0.841,-0.8082,-0.7778,-0.7553,-0.7399,-0.7173,-0.7026,-0.6563,-0.6612,-0.7179,-0.695,-0.7075,-0.7384,-0.7632,-0.7581,-0.7432,-0.843,-0.8944,-0.9224,-0.9604,-1.0077,-1.0637,-1.1439,-1.2111,-1.2773,-1.3672,-0.9418,-0.3307,0.1259,0.8565,1.5896,2.0032,2.2263,2.3201,2.2452,2.249,2.2779,2.3148,2.3394,2.359,2.3788,2.3906,2.4032,2.4204,2.4369,2.4369,2.4078,2.2636,1.7479,0.6177,0.3308,-0.146,-1.1134,-1.191,-1.1219,-0.998,-0.9246,-0.9043,-0.951,-0.9217,-0.9176,-0.9465,-0.9569,-0.994,-1.0454,-1.0344,-1.0498,0.0,0.0,0.0,0.0,0.0,0.0,0.0,0.0,0.0,0.0,0.0,0.0,0.0,0.0,0.0,0.0,0.0,0.0,0.0,0.0,0.0,0.0,1.6281,1.7741,1.7685,1.7849,1.819,1.8835,1.8967,1.8995,1.89,1.8985,1.8696,1.7655,1.6693,1.4945,1.2155,1.0919,0.9392,0.7401,0.5331,0.2471,-0.1226,-0.3059,-0.5782,-0.9455,-0.9039,-0.8567,-0.8011,-0.7622,-0.7366,-0.7282,-0.6666,-0.6865,-0.7476,-0.7251,-0.7339,-0.7621,0.0,0.0,0.0,0.0,-0.9208,-0.9786,-0.9986,-1.034,-1.0863,-1.1866,-1.2621,-1.3239,-1.4163,-0.9947,-0.4093,-0.0352,0.7236,1.5032,1.8254,2.1024,2.2713,2.1872,2.2125,2.2489,2.2299,2.2652,2.3029,2.2934,2.3156,0.0,2.3523,2.3839,2.3994,2.3739,2.4051,1.9584,0.6441,0.5021,0.0693,-1.1112,-1.198,-1.1316,-1.0286,-0.9343,0.0,0.0,0.0,-0.8898,-0.9211,-0.9629,0.0,0.0,0.0,-1.0965,-1.1704,-1.2016,0.0,0.0,-0.3334,0.1653,0.0,0.0,0.0,0.0,0.0,0.0,0.0,0.0,0.0,0.0,0.0,0.0,0.0,0.0,0.0,0.0,1.7711,1.9302,2.0192,2.0046,1.9868,1.9792,1.9879,2.002,2.0186,1.9794,1.9222,1.8399,1.7261,1.4975,1.1219,1.0312,0.0,0.0,0.0,0.3021,-0.2024,-0.1899,-0.4357,-0.947,-0.8918,-0.8493,-0.8131,-0.7257,-0.7114,-0.7311,-0.6613,-0.6707,-0.7472,-0.7463,-0.7572,-0.7876,-0.8008,-0.8036,-0.8052,-0.8646,-0.934,-1.0034,-1.0481,0.0,0.0,-1.2397,-1.3199,-1.3812,-1.4529,-1.0341,-0.5246,-0.4509,0.4015,1.2999,1.3517,1.7675,2.1579,2.1105,2.194,2.2601,2.1728,2.2431,2.2995,2.2236,2.2673,2.3083,2.2844,2.3348,2.361,2.2979,2.3696,1.9693,0.6978,0.5276,0.0743,-1.1167,-1.2369,0.0,-1.1363,-0.9827,-0.9155,-0.9513,-0.8645,-0.8452,-0.9176,-0.9523,-0.9896,-1.0283,-1.0836,-1.1646,-1.2632,-1.3352,-1.0458,-0.4247,-0.1674,0.2562,0.0,0.0,0.0,0.0,0.0,0.0,0.0,0.0,0.0,0.0,0.0,0.0,0.0,0.0,0.0,1.7985,1.991,2.1237,2.0999,2.1069,2.0988,2.0439,2.044,2.0177,1.9539,1.9292,1.8399,1.6609,1.6116,1.4232,1.0403,0.9981,0.8603,0.5822,0.4739,0.2219,-0.2024,-0.1735,-0.3951,-0.8789,-0.7383,0.0,-0.7232,-0.7088,-0.7089,-0.7227,-0.6729,-0.6868,-0.748,-0.7138,-0.7452,-0.8012,-0.8085,-0.8513,-0.9171,-0.9103,-0.9468,-0.9994,-1.0515,-1.069,-1.0933,-1.2151,-1.3009,-1.3692,-1.4588,-1.0446,0.0,0.1103,0.8157,1.5258,2.0182,2.22,2.2724,2.1825,2.1729,2.1868,2.1854,2.1975,2.2178,2.2448,2.2377,2.2217,2.217,2.3068,2.361,2.2979,2.3696,2.1398,1.3302,0.8437,0.3596,-0.2107,-0.6945,-0.9303,-0.8176,-0.81,-0.8463,-0.9165,-0.9347,-0.9698,-1.0271,-1.0455,-1.1018,-1.194,-1.2071,-1.2497,-1.3284,-1.3556,-1.3284,-1.2217,-0.0226,0.9083,0.0,0.0,0.0,0.0,0.0,0.0,0.0,0.0,0.0,0.0,0.0,1.3713,1.5121,0.0,1.858,1.9692,2.1062,2.1994,2.1946,2.1501,2.1031,2.0644,2.0489,2.001,1.8877,1.8638,1.7738,1.5951,1.5621,1.3917,1.0067,0.9899,0.8603,0.5822,0.4559,0.2311,-0.1059,-0.1493,-0.3496,-0.7177,-0.66,-0.6282,-0.6366,-0.6156,-0.6304,-0.6704,-0.6077,-0.6247,-0.7022,-0.671,-0.6889,-0.7501,-0.758,-0.8268,-0.9181,-0.9288,-0.9447,-0.974,-1.046,-1.0607,-1.0681,-1.202,-1.2757,-1.3252,-1.4401,-1.2645,-0.8835,-0.2407,0.3944,1.028,1.6476,2.0563,2.2849,2.2055,2.2052,2.2103,2.1642,2.1721,2.1857,2.1675,2.1694,2.1712,2.1712,2.2388,2.2799,2.248,2.3246,2.0896,1.2753,0.8709,0.3941,-0.2855,-0.7073,-0.9066,-0.832,-0.8454,-0.8783,-0.9219,-0.9916,-1.0459,-1.0839,-1.1186,-1.1715,-1.2389,-1.2858,-1.3356,-1.3941,-1.4344,-1.2921,-0.9535,0.1489,0.852,0.0,0.0,0.0,0.0,0.0,0.0,0.0,0.9386,1.1187,1.3225,1.4405,1.5601,1.7097,1.8537,1.9895,2.1171,2.1797,2.2177,2.2414,2.1548,2.0712,2.0245,2.0089,1.9529,1.8149,1.7747,1.6927,1.5455,1.5137,1.351,0.9986,0.9726,0.8515,0.5822,0.4469,0.2582,0.0089,-0.1155,-0.2935,-0.5427,-0.5515,-0.5426,-0.5225,-0.5043,-0.5358,-0.5891,-0.5337,-0.5628,-0.6483,-0.6244,-0.6402,-0.6832,-0.7126,-0.7774,-0.867,-0.9191,-0.9367,-0.9474,-1.0294,-1.049,-1.05,-1.1856,-1.2389,-1.2818,-1.4163,-1.4647,-1.3223,-0.5846,-0.0254,0.5253,1.2736,1.8768,2.2733,2.2077,2.2334,2.2443,2.1493,2.1602,2.1655,2.0772,2.0866,2.1042,2.0832,2.1064,2.1307,2.1513,2.2034,1.9525,1.1593,0.8365,0.3725,-0.4205,-0.7463,-0.9081,-0.9148,-0.9197,-0.9336,-0.9506,-1.0379,-1.0959,-1.1199,-1.1777,-1.2254,-1.2668,-1.3429,-1.4059,-1.4592,-1.5138,-1.1781,-0.4665,0.2757,0.6923,0.1063,0.1732,0.2285,0.2342,0.3444,0.4872,0.0,0.9423,1.2513,1.3785,1.5978,1.8066,1.9211,2.0076,2.097,2.2116,2.2535,2.2403,2.1766,2.1242,2.0313,1.8727,1.8886,1.8638,1.7277,1.6617,1.5545,1.4062,1.373,1.2334,0.947,0.9296,0.8169,0.5733,0.4204,0.2407,0.0443,-0.0803,-0.2413,-0.4455,-0.2761,-0.2562,-0.3656,-0.4066,-0.4391,-0.4632,-0.5227,-0.5712,-0.5941,-0.5938,-0.624,-0.6692,-0.7022,-0.7395,-0.7757,-0.8737,-0.9263,-0.9531,-1.0084,-1.0307,-1.043,-1.1199,-1.2035,-1.2948,-1.3795,-1.4154,-1.1868,-0.0207,0.3889,0.7425,1.9168,2.2761,2.3113,2.2306,2.21,2.2016,2.1615,2.1513,2.1224,2.0341,2.0029,1.9659,1.8867,1.859,1.8802,1.98,1.9384,1.8085,1.571,0.9516,0.4513,0.247,-0.2839,-0.6897,-0.8441,-0.8856,-0.9321,-1.0006,-1.069,-1.118,-1.1544,-1.2139,-1.2823,-1.363,-1.3981,-1.4532,-1.5284,-1.5391,-1.1837,-0.4807,0.2707,0.9582,0.1,0.1849,0.2413,0.2256,0.2802,0.4077,0.6652,0.9766,1.2713,1.5119,1.702,1.8546,1.9668,2.1062,2.2237,2.2893,2.2456,2.2027,2.1649,2.0119,1.8807,1.8014,1.7529,1.6952,1.6131,1.5801,1.5054,1.3646,1.3476,1.2169,0.9383,0.9209,0.8086,0.5733,0.4115,0.2946,0.2137,0.0358,-0.1164,-0.2235,-0.1878,-0.1871,-0.2296,-0.3322,-0.3676,-0.3392,-0.3957,-0.4234,-0.4307,-0.4406,-0.4846,-0.5544,-0.578,-0.6325,-0.7099,-0.8246,-0.8796,-0.9041,-0.9437,-0.9575,-0.9699,-1.0236,-1.0661,-1.1045,-1.1966,-1.0053,-0.5747,0.2895,0.7544,1.1927,2.0803,2.2486,2.1688,2.1094,2.0542,2.0041,1.98,1.971,1.9492,1.9,1.8802,1.8602,1.8228,1.8066,1.8012,1.7958,1.8389,1.7425,1.3738,0.9843,0.5195,-0.0566,-0.4537,-0.7279,-0.842,-0.8908,-0.9481,-1.0305,-1.1041,-1.1691,-1.2079,-1.287,-1.3485,-1.401,-1.4556,-1.497,-1.5254,-1.5546,-1.1947,-0.4711,0.2613,0.9861,0.1044,0.1653,0.2151,0.2279,0.2538,0.3602,0.6955,0.9626,1.2264,1.5431,1.7017,1.8197,1.9201,2.0653,2.1821,2.2113,2.139,2.0844,2.0767,1.9,1.7529,1.7204,1.657,1.5845,1.4992,1.5068,1.4559,1.313,1.3045,1.174,0.8952,0.8782,0.7826,0.5733,0.4295,0.3398,0.304,0.1164,0.0,-0.0359,-0.1165,-0.1343,-0.1163,-0.2282,-0.2587,-0.2289,-0.2814,-0.31,-0.3241,-0.3266,-0.3714,-0.4339,-0.4545,-0.5254,-0.6224,-0.7107,-0.7774,-0.8249,-0.8621,-0.8755,-0.8891,-0.9429,-0.9548,-0.9557,-1.0,-0.7278,-0.2722,0.3835,0.8718,1.3342,1.9451,2.0642,2.0091,1.9609,1.904,1.8525,1.8324,1.8163,1.7935,1.7456,1.7214,1.6982,1.6714,1.6648,1.6434,1.5803,1.6626,1.5767,1.1398,0.8558,0.4229,-0.2952,-0.5498,-0.7167,-0.842,-0.9069,-0.9716,-1.0604,-1.1428,-1.2112,-1.2552,-1.3338,-1.395,-1.4309,-1.4902,-1.5323,-1.5391,-1.5798,-1.1098,-0.1729,0.3445,1.0805,0.1113,0.0873,0.0913,0.2025,0.2639,0.3628,0.6263,0.876,1.131,1.3814,1.5651,1.705,1.7874,1.8292,1.8603,1.9201,1.8982,1.8603,1.8452,1.8006,1.7204,1.5899,1.6025,1.5582,1.3926,1.4314,1.3971,1.2186,1.2015,1.0794,0.8006,0.7834,0.7221,0.5733,0.4748,0.3669,0.2412,0.1254,0.0628,0.0448,-0.0179,-0.0538,-0.0538,-0.0702,-0.1042,-0.1474,-0.2286,-0.2815,-0.3165,-0.3243,-0.3243,-0.3315,-0.3708,-0.42,-0.4756,-0.5045,-0.6009,-0.7302,-0.7567,-0.7781,-0.8029,-0.8755,-0.9238,-0.9264,-0.8152,-0.7572,-0.5567,0.242,0.6289,0.9379,1.4958,1.7721,1.8859,1.8216,1.8066,1.8012,1.8012,1.7543,1.6871,1.6022,1.5235,1.4409,1.3528,1.3243,1.3122,1.3122,1.3183,1.2379,1.023,0.508,0.0793,-0.1455,-0.3438,-0.5683,-0.8468,-0.9192,-0.9894,-1.0892,-1.167,-1.2305,-1.2744,-1.3467,-1.401,-1.4469,-1.5059,-1.5536,-1.5856,-1.6009,-0.8606,0.5593,0.5669,1.348,0.0857,0.0971,0.1333,0.0978,0.2367,0.4526,0.7024,0.8384,0.9894,1.2413,1.3681,1.459,1.5395,1.6782,1.7854,1.8073,1.7978,1.7857,1.7632,1.6806,1.6055,1.5468,1.5496,1.5293,1.4852,1.4482,1.3675,1.2112,1.1671,1.0626,0.8623,0.8097,0.7221,0.5994,0.5104,0.4119,0.304,0.224,0.1794,0.1615,0.0448,-0.0179,-0.018,-0.0178,-0.0355,-0.0532,-0.1388,-0.1884,-0.2037,-0.2141,-0.2276,-0.2593,-0.2847,-0.3385,-0.4117,-0.4401,-0.4698,-0.5076,-0.5794,-0.6238,-0.636,-0.6225,-0.6136,-0.5915,-0.4948,-0.2062,0.1675,0.5799,0.9858,1.3482,1.6069,1.6452,1.6062,1.583,1.5283,1.4847,1.4974,1.4857,1.4632,1.4314,1.3939,1.358,1.3243,1.307,1.3009,1.3009,1.1327,0.985,0.9139,0.459,0.0929,-0.0398,-0.2911,-0.5545,-0.8168,-0.9046,-1.0148,-1.167,-1.222,-1.2781,-1.3277,-1.3992,-1.4597,-1.4961,-1.5245,-1.5536,-1.573,-1.1201,-0.3875,0.5998,1.0545,1.802,0.0965,0.1243,0.1788,0.1854,0.3026,0.4842,0.7288,0.8009,0.896,1.1316,1.223,1.2788,1.3612,1.5078,1.6141,1.588,1.6129,1.6293,1.6141,1.539,1.5007,1.5088,1.513,1.5046,1.4777,1.434,1.3597,1.2261,1.1451,1.0362,0.8723,0.7925,0.7136,0.6171,0.5104,0.4297,0.3489,0.2689,0.2334,0.2243,0.0987,0.0359,0.0269,0.0269,0.0179,0.0179,-0.0442,-0.0876,-0.1042,-0.1171,-0.1483,-0.1888,-0.1988,-0.2603,-0.3412,-0.3542,-0.345,-0.3524,-0.4535,-0.5027,-0.5033,-0.4882,-0.4375,-0.3804,-0.2868,0.0215,0.3944,0.6826,1.0343,1.3459,1.461,1.4541,1.4268,1.4282,1.3666,1.3122,1.3183,1.3,1.2757,1.2634,1.2066,1.1618,1.1757,1.1764,1.1764,1.1764,0.9699,0.8281,0.8584,0.5332,0.2389,0.0664,-0.1853,-0.4549,-0.7095,-0.8762,-1.0218,-1.1732,-1.2466,-1.307,-1.3571,-1.435,-1.4902,-1.5215,-1.543,-1.5662,-1.573,-0.8834,-0.1589,0.6,1.2876,2.0182,0.1323,0.1548,0.22,0.4237,0.4324,0.4559,0.6868,0.7573,0.836,1.0458,1.1027,1.1427,1.2377,1.3267,1.3641,1.2936,1.3585,1.4202,1.398,1.398,1.4244,1.4822,1.4892,1.4597,1.3991,1.3946,1.351,1.2555,1.1332,0.9892,0.8308,0.7499,0.6789,0.6171,0.501,0.4208,0.3937,0.2869,0.2334,0.2424,0.1525,0.0987,0.0718,0.0718,0.0628,0.0538,0.0538,0.0177,-0.0348,-0.051,-0.0841,-0.1256,-0.128,-0.1751,-0.2509,-0.2456,-0.2356,-0.243,-0.354,-0.4008,-0.4157,-0.4623,-0.391,-0.2731,-0.179,-0.0534,0.1421,0.5541,0.7906,0.9472,1.0641,1.2006,1.3164,1.333,1.3062,1.2679,1.2525,1.1866,1.126,1.0947,0.9685,0.8807,0.9139,0.9326,0.939,0.9454,0.828,0.7673,0.8462,0.695,0.4659,0.1592,-0.0463,-0.2768,-0.5708,-0.8356,-1.0275,-1.1274,-1.2451,-1.326,-1.3769,-1.4538,-1.502,-1.5215,-1.5682,-1.5914,-1.5914,-0.8607,-0.1382,0.5853,1.308,2.0394,0.1714,0.1941,0.2425,0.3451,0.3835,0.4293,0.5805,0.6609,0.7492,0.9078,0.9201,0.938,1.0692,1.1694,1.2446,1.2909,1.3999,1.4842,1.4902,1.4853,1.494,1.5278,1.4766,1.4481,1.4728,1.3884,1.3094,1.2494,1.1333,1.0051,0.8755,0.7823,0.7139,0.6615,0.5638,0.5104,0.5013,0.3853,0.3051,0.2784,0.2244,0.1794,0.1256,0.1256,0.1166,0.1166,0.0718,0.0355,0.0174,-0.0255,-0.0584,-0.0737,-0.0636,-0.1025,-0.1587,-0.1205,-0.0483,0.0404,0.0082,-0.105,-0.2195,-0.1489,-0.0783,0.0078,0.1093,0.1995,0.317,0.5977,0.7021,0.7577,0.8564,0.9104,0.9372,0.9261,0.9122,0.914,0.9527,0.9406,0.9291,0.9494,0.8854,0.8339,0.835,0.7897,0.7832,0.8613,0.8127,0.7671,0.7678,0.5928,0.3398,-0.0,-0.1123,-0.3484,-0.8106,-0.9273,-1.0528,-1.2174,-1.3086,-1.3631,-1.395,-1.4961,-1.5498,-1.5566,-1.5798,-1.5961,-1.5999,-0.381,0.317,0.5485,1.7935,2.4872,0.2112,0.2428,0.2915,0.3575,0.403,0.4641,0.5657,0.6433,0.7198,0.8418,0.8513,0.8852,1.0191,1.1238,1.2054,1.2612,1.3743,1.4601,1.4523,1.4467,1.4654,1.5214,1.4605,1.4453,1.5026,1.4076,1.3222,1.265,1.1366,1.0081,0.8828,0.8091,0.7296,0.6615,0.5902,0.5191,0.4659,0.3944,0.332,0.2875,0.2603,0.2243,0.1705,0.1615,0.1525,0.1346,0.1076,0.0891,0.0792,0.0256,0.0,-0.0082,-0.0159,-0.0314,-0.0393,-0.0239,0.0481,0.1367,0.1646,0.0971,0.0079,0.0556,0.1266,0.2116,0.321,0.3803,0.4387,0.6203,0.6304,0.6289,0.7755,0.8112,0.799,0.7957,0.7753,0.7687,0.8081,0.8081,0.7957,0.7692,0.7367,0.7042,0.6658,0.6662,0.6929,0.7797,0.7494,0.703,0.6523,0.602,0.4209,0.0331,-0.2246,-0.4866,-0.7751,-0.985,-1.1556,-1.2712,-1.3906,-1.446,-1.43,-1.5254,-1.574,-1.5672,-1.5904,-1.6009,-1.6046,-0.2043,0.4884,0.5363,1.971,2.6556,0.269,0.3006,0.3492,0.4194,0.4725,0.5227,0.6067,0.6547,0.7183,0.8123,0.8443,0.9011,1.0353,1.1244,1.1964,1.2369,1.3305,1.392,1.3801,1.3781,1.4088,1.497,1.4559,1.4374,1.493,1.428,1.3505,1.2759,1.1409,1.0175,0.8964,0.8197,0.7385,0.6523,0.5988,0.5188,0.3855,0.3765,0.3408,0.2873,0.2513,0.2244,0.2064,0.1705,0.1436,0.1256,0.1166,0.1162,0.1064,0.0855,0.0671,0.0416,0.008,0.0393,0.0943,0.0712,0.1031,0.1591,0.196,0.2112,0.2077,0.186,0.2399,0.3297,0.447,0.4945,0.5179,0.5841,0.5514,0.5348,0.7331,0.7699,0.7517,0.7694,0.7364,0.7052,0.7325,0.7377,0.7021,0.6009,0.5807,0.5613,0.4894,0.5617,0.6412,0.6841,0.637,0.5826,0.5488,0.6176,0.5153,0.1064,-0.3372,-0.6327,-0.7067,-1.0451,-1.2684,-1.3158,-1.465,-1.5274,-1.4765,-1.5498,-1.5856,-1.574,-1.6009,-1.6114,-1.6104,-0.2041,0.4837,0.5286,1.9648,2.6487,0.3986,0.402,0.4192,0.4646,0.4884,0.5284,0.6092,0.6482,0.6978,0.7694,0.7955,0.8524,0.9852,1.054,1.1412,1.292,1.3512,1.4054,1.4899,1.479,1.4879,1.5384,1.4694,1.4172,1.4142,1.3619,1.2919,1.216,1.1453,1.0569,0.9423,0.8535,0.7663,0.6795,0.6432,0.5899,0.5104,0.4478,0.3673,0.2598,0.1883,0.1615,0.1525,0.0448,0.0269,0.0807,0.0,-0.0351,-0.0255,0.0843,0.0823,0.0079,0.0,0.0707,0.1737,0.1804,0.2161,0.2425,0.1741,0.1827,0.2296,0.2383,0.264,0.3061,0.3765,0.4474,0.4792,0.3832,0.391,0.4441,0.4806,0.4902,0.4845,0.474,0.4759,0.5012,0.5715,0.6383,0.6587,0.5649,0.5491,0.5359,0.4894,0.5226,0.5631,0.5918,0.4688,0.4356,0.6022,0.4372,0.1795,-0.1437,-0.3477,-0.654,-1.1414,-1.2012,-1.2708,-1.4154,-1.4697,-1.4942,-1.4893,-1.5556,-1.5914,-1.5856,-1.6202,-1.6374,-1.6306,-0.2233,0.4656,0.5012,1.9384,2.6189,0.4287,0.4476,0.4732,0.5041,0.5331,0.5684,0.6148,0.6473,0.6806,0.7365,0.7675,0.8299,0.9448,1.0037,1.0824,1.214,1.289,1.3554,1.4278,1.4434,1.4701,1.5139,1.4606,1.4142,1.4064,1.3605,1.3019,1.2262,1.1585,1.0812,0.9853,0.8547,0.7563,0.6976,0.6523,0.5905,0.5287,0.4837,0.3673,0.1882,0.1076,0.0718,0.0897,0.0179,-0.009,0.009,-0.0448,-0.0709,-0.0608,0.0,0.0083,-0.0325,-0.0317,0.0157,0.0946,0.106,0.1321,0.1662,0.1391,0.1479,0.1787,0.1916,0.2444,0.3031,0.2909,0.3448,0.3925,0.329,0.345,0.3759,0.4099,0.4201,0.4148,0.4098,0.4262,0.4565,0.4995,0.5418,0.5535,0.5189,0.4964,0.4764,0.4567,0.47,0.4973,0.5463,0.3892,0.356,0.6056,0.1611,-0.2401,-0.4017,-0.649,-0.9308,-1.244,-1.3339,-1.42,-1.5284,-1.613,-1.6301,-1.5816,-1.6181,-1.6363,-1.6363,-1.6374,-1.46,-1.0934,-0.0497,0.6463,1.0329,2.0931,2.5885,0.4623,0.4994,0.5361,0.5427,0.5771,0.6072,0.6274,0.6539,0.6792,0.7134,0.7525,0.8048,0.9013,0.9655,1.0312,1.1161,1.2023,1.2859,1.3461,1.3812,1.4193,1.4855,1.4553,1.4257,1.4184,1.3823,1.3249,1.2565,1.1727,1.0811,0.9811,0.854,0.7692,0.7241,0.6612,0.6086,0.556,0.5112,0.3674,0.1345,0.0448,0.009,0.0179,-0.0179,-0.0448,-0.0448,-0.0897,-0.1073,-0.1067,-0.0944,-0.0926,-0.0997,-0.0802,-0.0473,-0.0158,-0.0162,0.0164,0.0658,0.0857,0.1116,0.1183,0.1005,0.1898,0.2916,0.2762,0.2744,0.2747,0.2901,0.2981,0.3142,0.3767,0.3945,0.3964,0.4116,0.4425,0.4686,0.4683,0.4792,0.4885,0.4794,0.4564,0.4367,0.43,0.4434,0.4706,0.5068,0.3563,0.2958,0.4821,-0.1879,-0.6618,-0.6404,-0.9456,-1.1814,-1.2676,-1.44,-1.5678,-1.6322,-1.7379,-1.76,-1.6853,-1.6909,-1.692,-1.6818,-1.5147,-1.1538,-0.5901,0.2665,0.9686,1.5205,2.2315,2.5626,0.5734,0.599,0.6225,0.5935,0.6069,0.6271,0.6448,0.6537,0.6736,0.7107,0.7544,0.7928,0.8385,0.9118,0.9872,1.0643,1.1166,1.19,1.3344,1.3543,1.3835,1.4582,1.4651,1.4472,1.4027,1.3636,1.3346,1.305,1.2073,1.0744,0.8969,0.8586,0.8133,0.751,0.7143,0.6881,0.6542,0.5649,0.3853,0.1432,0.0448,-0.009,-0.0359,-0.1256,-0.1256,-0.0718,-0.1615,-0.213,-0.2178,-0.1649,-0.1692,-0.2118,-0.146,-0.096,-0.0553,-0.0577,-0.0,0.0588,0.0086,0.052,0.1205,-0.0083,0.0897,0.284,0.4281,0.3222,0.1492,0.1492,0.1807,0.2358,0.2984,0.3214,0.3365,0.3988,0.4518,0.4909,0.4683,0.5206,0.5483,0.4742,0.4694,0.4631,0.4367,0.4831,0.51,0.4515,0.3689,0.2476,0.0808,-0.6219,-1.0324,-0.8468,-0.9963,-1.1862,-1.3717,-1.5051,-1.6156,-1.7034,-1.7324,-1.749,-1.7611,-1.7611,-1.7346,-1.6807,-1.0722,-0.7017,-0.5849,0.757,1.4362,1.5006,2.2044,2.5301,0.6043,0.6243,0.6398,0.6353,0.6304,0.6334,0.6508,0.667,0.6788,0.7022,0.7308,0.7758,0.8108,0.855,0.9015,0.9385,1.0131,1.0966,1.1882,1.2487,1.3183,1.4072,1.4257,1.4034,1.3721,1.3539,1.305,1.2073,1.1274,1.028,0.8977,0.8135,0.7705,0.7645,0.6022,0.5364,0.5819,0.4478,0.2686,0.0537,-0.0359,-0.0897,-0.0987,-0.1525,-0.1615,-0.1436,-0.1974,-0.2233,-0.2302,-0.201,-0.1962,-0.2071,-0.1796,-0.1442,-0.1185,-0.124,-0.0925,-0.0506,-0.0863,-0.0609,-0.0259,-0.0578,0.0081,0.1134,0.1819,0.1492,0.0943,0.1257,0.1649,0.2119,0.2589,0.2904,0.3219,0.3765,0.4075,0.425,0.4264,0.4506,0.4651,0.4479,0.4431,0.4434,0.4308,0.3551,0.2674,0.181,0.1471,0.0936,0.0134,-0.5233,-0.9658,-1.1582,-1.2153,-1.2795,-1.3923,-1.5352,-1.6451,-1.7045,-1.7886,-1.8267,-1.805,-1.817,-1.5977,-1.1137,-0.8178,-0.2278,0.6754,1.2361,1.7253,2.1361,2.3943,2.5123,0.6034,0.6269,0.6464,0.6541,0.6412,0.6361,0.6498,0.667,0.6802,0.6928,0.7289,0.7683,0.8129,0.8405,0.8587,0.8665,0.9552,1.0396,1.0947,1.1603,1.2352,1.3153,1.3321,1.3333,1.3205,1.3204,1.2565,1.1096,1.0609,0.996,0.8956,0.7488,0.6856,0.7279,0.5507,0.4563,0.4654,0.3762,0.224,-0.0,-0.0807,-0.1256,-0.1436,-0.1615,-0.1705,-0.1705,-0.1885,-0.1974,-0.2061,-0.2031,-0.1993,-0.1949,-0.1919,-0.1718,-0.1532,-0.1591,-0.1529,-0.1364,-0.1386,-0.13,-0.1114,-0.0907,-0.0486,0.0,0.0158,0.0393,0.0708,0.1189,0.1579,0.196,0.2431,0.2826,0.3217,0.3686,0.3663,0.3526,0.3526,0.3545,0.3622,0.3659,0.3284,0.3015,0.3019,0.2006,0.0801,-0.0268,-0.0267,-0.0468,-0.1208,-0.5259,-0.935,-1.2671,-1.3439,-1.3943,-1.4501,-1.5985,-1.7024,-1.749,-1.8548,-1.8987,-1.8655,-1.8815,-1.6345,-1.0742,-0.8454,-0.1052,1.1674,1.3764,1.8467,2.5486,2.5178,2.4926,0.587,0.6314,0.6622,0.6376,0.6427,0.6474,0.6471,0.6516,0.6684,0.6998,0.7404,0.7855,0.8275,0.8658,0.8926,0.8989,0.9719,1.0362,1.0667,1.1138,1.15,1.1752,1.1962,1.2238,1.2471,1.2427,1.1883,1.0507,1.0413,0.9912,0.8821,0.6675,0.5733,0.6267,0.6138,0.5181,0.3317,0.3948,0.2869,-0.0,-0.0448,-0.0987,-0.1436,-0.1436,-0.1436,-0.1436,-0.1436,-0.1525,-0.1794,-0.1794,-0.1771,-0.1824,-0.1824,-0.1629,-0.135,-0.1379,-0.139,-0.139,-0.1393,-0.1116,-0.0755,-0.1149,-0.0721,0.0079,0.0471,0.0628,0.0711,0.1131,0.1599,0.196,0.2431,0.2826,0.3217,0.3686,0.3306,0.285,0.2487,0.2567,0.2569,0.2227,0.1003,0.0067,0.0067,0.0333,0.0067,-0.1202,-0.0999,-0.1534,-0.3971,-0.7852,-1.0474,-1.0735,-1.3252,-1.5129,-1.5746,-1.6957,-1.7984,-1.875,-1.9146,-1.9368,-1.9368,-1.9656,-1.9411,-1.8703,-1.2104,-0.4632,0.3634,1.0601,1.7894,2.5294,2.5084,2.4766,0.6189,0.6471,0.6546,0.6465,0.6592,0.669,0.6581,0.6832,0.7072,0.7236,0.7637,0.8077,0.8493,0.8806,0.9077,0.932,0.9822,1.0149,1.0211,1.1149,1.1874,1.2021,1.262,1.2947,1.2737,1.2328,1.1389,0.9715,0.9616,0.8817,0.7027,0.6101,0.5863,0.6205,0.4097,0.2955,0.3047,0.2511,0.1704,0.0448,0.0,-0.0628,-0.1436,-0.1436,-0.1436,-0.1436,-0.1436,-0.1436,-0.1525,-0.1525,-0.1506,-0.1563,-0.1563,-0.1459,-0.1267,-0.138,-0.139,-0.1391,-0.1393,-0.1127,-0.0771,-0.1154,-0.0729,0.0,0.0161,0.0637,0.1102,0.1269,0.1422,0.1413,0.1254,0.1568,0.1803,0.1644,0.169,0.18,0.1754,0.2067,0.2361,0.2162,0.0938,-0.0602,-0.2621,-0.2883,-0.2945,-0.3351,-0.3282,-0.4074,-0.6527,-0.8581,-1.117,-1.4763,-1.5311,-1.5505,-1.5776,-1.6957,-1.7995,-1.8602,-1.9052,-1.9275,-1.9275,-1.9617,-1.7224,-1.1737,-0.9802,-0.5014,0.2815,1.0213,1.757,2.4831,2.4751,2.4589,0.0,0.6349,0.6472,0.6548,0.663,0.6684,0.6736,0.6949,0.7227,0.7391,0.7805,0.835,0.8653,0.8939,0.9198,0.9584,0.9946,1.0236,1.0231,1.1243,1.1958,1.1925,1.2482,1.2624,1.2143,1.1833,1.0895,0.9023,0.8718,0.7819,0.6129,0.5331,0.4935,0.5029,0.3018,0.2061,0.2331,0.1704,0.1166,0.0718,0.0269,-0.0359,-0.1166,-0.1345,-0.1436,-0.1436,-0.1436,-0.1429,0.0,-0.143,-0.1417,-0.1391,-0.1402,-0.1396,-0.1383,-0.1401,-0.1407,-0.1408,-0.1409,-0.1133,-0.0685,-0.0749,-0.0407,0.0,0.0,0.048,0.0954,0.063,0.0628,0.0628,0.0313,0.047,0.0627,0.0548,0.0687,0.0818,0.0591,0.0569,0.0687,0.0888,-0.0473,-0.2213,-0.3981,-0.4311,-0.43,-0.43,-0.43,-0.5084,-0.7349,-0.9221,-1.1784,-1.5615,-1.6611,-1.699,-1.6866,-1.7424,-1.8116,-1.8827,-1.9263,-1.9485,-1.942,-1.9823,-1.7775,-1.287,-1.3106,-0.9494,-0.1851,0.8621,1.7404,2.441,2.4549,2.4508,0.0,0.6142,0.6325,0.656,0.6641,0.6637,0.6865,0.0,0.0,0.7391,0.7979,0.8578,0.8923,0.9207,0.9432,0.9602,1.0207,1.0629,1.0667,1.1258,1.1722,1.1768,1.1807,1.1557,1.0868,1.0955,1.0284,0.8414,0.7796,0.7,0.5829,0.4361,0.3324,0.3042,0.2837,0.2331,0.1436,0.1436,0.1166,0.0718,0.0179,-0.0269,-0.0718,-0.1166,-0.1436,-0.1436,-0.1436,-0.1419,-0.1395,-0.1424,-0.1418,-0.1396,-0.1424,-0.1436,-0.1436,-0.1436,-0.1436,-0.1435,-0.1433,-0.1135,-0.0675,-0.0168,0.0,-0.0079,-0.0314,-0.0,0.0242,-0.0631,-0.0627,-0.0392,-0.047,-0.047,-0.0391,-0.0078,-0.0076,-0.0294,-0.0826,-0.1642,-0.1977,-0.1395,-0.2879,-0.4314,-0.4314,-0.4314,-0.4311,-0.4303,-0.4308,-0.502,-0.7044,-0.9983,-1.2484,-1.4055,-1.7337,-1.9246,-1.8756,-1.8278,-1.8387,-1.9368,-1.9784,-1.9926,-1.9811,-2.0246,-2.041,-2.0182,-2.041,-1.6477,-0.8306,0.5881,1.668,2.4078,2.4385,2.4467,0.6207,0.0,0.6187,0.6531,0.6714,0.6865,0.0,0.0,0.0,0.0,0.0,0.8739,0.8923,0.9465,0.9864,1.012,1.0467,1.0722,1.0686,1.1451,1.2242,1.2774,1.2813,1.2241,1.1052,1.0541,0.9401,0.7469,0.6597,0.556,0.3925,0.3357,0.2718,0.1905,0.1833,0.1614,0.1436,0.1436,0.1166,0.0718,-0.0538,-0.0897,-0.0718,-0.1166,-0.1436,-0.1436,-0.1436,-0.1431,-0.1425,-0.1432,-0.1431,-0.1425,-0.1432,-0.1436,-0.1436,-0.1436,-0.1436,-0.1432,-0.1411,-0.1307,-0.1117,-0.0249,0.0,-0.0471,-0.3066,-0.284,-0.1738,-0.1649,-0.1566,-0.1642,-0.227,-0.219,-0.2112,-0.2738,-0.2601,-0.2398,-0.2562,-0.2274,-0.2207,-0.2597,-0.3622,-0.4412,-0.4319,-0.4374,-0.4401,-0.4314,-0.4374,-0.5582,-0.8822,-1.0985,-1.3443,-1.6409,-1.9034,-2.0313,-1.9872,-1.9331,-1.9121,-1.9368,-1.9656,-1.985,-1.9798,-2.0246,-2.041,-2.0182,-2.0498,-1.4195,-0.1131,0.2463,1.1001,2.3867,2.3952,2.4094,0.624,0.62,0.6232,0.6615,0.6788,0.6942,0.0,0.0,0.0,0.0,0.0,0.0,0.8813,0.9572,1.012,1.0038,1.0557,1.1144,1.1467,1.1707,1.2181,1.2958,1.2797,1.2089,1.0623,1.0044,0.8856,0.6646,0.5664,0.4614,0.3286,0.2589,0.2065,0.1505,0.1459,0.1436,0.1436,0.1436,0.1166,0.0718,-0.0269,-0.0808,-0.0987,-0.1256,-0.1436,-0.1436,-0.1436,-0.142,-0.1397,-0.1424,-0.1411,-0.1378,-0.1419,-0.1427,-0.1416,-0.143,-0.1427,-0.1412,-0.1136,-0.0945,-0.0672,-0.0162,-0.1031,-0.2672,-0.4489,-0.4403,-0.3606,-0.337,-0.2973,-0.2735,-0.3365,-0.3365,-0.3363,-0.3837,-0.3536,-0.3255,-0.3829,-0.3358,-0.3043,-0.3723,-0.4237,-0.4439,-0.4319,-0.4395,-0.445,-0.4387,-0.5352,-0.7219,-1.0451,-1.3043,-1.5741,-1.8871,-2.0954,-2.1769,-2.0965,-2.0887,-2.0566,-1.9836,-2.0067,-2.0156,-2.0016,-2.0296,-2.0461,-2.0448,-1.7329,-1.0181,0.1098,0.4534,1.2109,2.329,2.3653,2.3925,0.619,0.6163,0.6254,0.6788,0.6942,0.7019,0.0,0.0,0.0,0.0,0.0,0.0,0.0,0.939,0.9995,0.9593,1.0509,1.1382,1.2059,1.1754,1.1548,1.2146,1.1827,1.1101,0.9583,0.9263,0.8243,0.6039,0.4933,0.3966,0.3254,0.2214,0.1603,0.1488,0.1458,0.144,0.1436,0.1436,0.1166,0.0718,0.018,-0.0539,-0.1256,-0.1345,-0.1436,-0.1436,-0.1436,-0.1407,-0.1279,-0.141,-0.1384,-0.1323,-0.1394,-0.1406,-0.1387,-0.1417,-0.141,-0.1297,-0.0776,-0.0503,-0.0484,-0.0869,-0.2592,-0.4646,-0.4961,-0.5029,-0.5018,-0.5018,-0.4382,-0.3752,-0.4146,-0.4226,-0.4222,-0.4206,-0.3766,-0.3661,-0.4737,-0.4465,-0.412,-0.463,-0.4591,-0.4466,-0.4371,-0.47,-0.4905,-0.4566,-0.6732,-0.9273,-1.1692,-1.4983,-1.8091,-2.0665,-2.2532,-2.307,-2.1845,-2.2469,-2.2283,-2.0692,-2.0841,-2.0791,-2.0412,-1.9422,-1.8933,-1.9033,-1.1972,-0.4714,0.2424,0.8823,1.5637,2.2694,2.3334,2.3653,0.6057,0.5619,0.547,0.663,0.7022,0.718,0.0,0.0,0.0,0.0,0.0,0.0,0.0,0.8686,0.9226,0.9213,0.9813,1.0501,1.0981,1.0395,0.9807,0.9418,0.9493,0.9023,0.762,0.727,0.6664,0.5726,0.453,0.3637,0.3209,0.2489,0.1873,0.1519,0.1489,0.1461,0.1436,0.1436,0.1166,0.0718,-0.0179,-0.0628,-0.0807,-0.1256,-0.1436,-0.1436,-0.1436,-0.143,-0.1421,-0.1403,-0.1388,-0.1376,-0.1365,-0.1274,-0.1358,-0.1386,-0.1379,-0.1266,-0.0414,-0.0969,-0.2444,-0.4653,-0.4245,-0.321,-0.4865,-0.5179,-0.5018,-0.5018,-0.4859,-0.4779,-0.4859,-0.4859,-0.4833,-0.4733,-0.4696,-0.4732,-0.4803,-0.4838,-0.4778,-0.4755,-0.4711,-0.469,-0.4673,-0.6135,-0.6768,-0.4976,-0.8174,-1.1063,-1.1926,-1.4983,-1.7924,-2.0134,-2.2257,-2.3125,-2.189,-2.3294,-2.3745,-2.2545,-2.2019,-2.1625,-2.1329,-1.4999,-1.1545,-1.1545,-0.4503,0.2668,0.9851,1.1027,1.5405,2.2694,2.283,2.3068,0.5414,0.5372,0.5452,0.5838,0.5894,0.5875,0.0,0.0,0.0,0.0,0.0,0.0,0.0,0.833,0.8832,0.9127,0.8882,0.8953,0.9784,0.9238,0.8773,0.8695,0.8686,0.8143,0.6913,0.656,0.5905,0.4728,0.3874,0.3226,0.2781,0.2208,0.1692,0.1502,0.1472,0.145,0.1436,0.1436,0.1166,0.0718,0.0,-0.0628,-0.1076,-0.1345,-0.1436,-0.1436,-0.1436,-0.1426,-0.141,-0.1396,-0.1371,-0.1343,-0.1346,-0.1263,-0.1267,-0.138,-0.1785,-0.2225,-0.1711,-0.2157,-0.3132,-0.5268,-0.5107,-0.4231,-0.5098,-0.5176,-0.5004,-0.4936,-0.4966,-0.5018,-0.5018,-0.5018,-0.5002,-0.4947,-0.4977,-0.5002,-0.4944,-0.4977,-0.498,-0.4857,-0.5725,-0.6501,-0.641,-0.8267,-0.9572,-0.9044,-1.1769,-1.4263,-1.5444,-1.7994,-2.0274,-2.189,-2.2981,-2.346,-2.3196,-2.3978,-2.4085,-2.3188,-2.2406,-2.1752,-2.1332,-1.7709,-1.3909,-1.0,-0.2842,0.4341,1.1524,1.5378,1.9045,2.2434,2.2618,2.2799,0.4833,0.5005,0.5042,0.4921,0.0,0.0,0.0,0.0,0.0,0.0,0.0,0.0,0.0,0.809,0.8611,0.8893,0.8192,0.7907,0.8775,0.8013,0.7526,0.7877,0.7587,0.7088,0.6197,0.5839,0.5237,0.4009,0.3352,0.277,0.2468,0.1827,0.1508,0.1492,0.1462,0.1352,0.1256,0.1346,0.1256,0.0897,0.0269,-0.0359,-0.1076,-0.1166,-0.1256,-0.1436,-0.1436,-0.1418,-0.139,-0.1383,-0.135,-0.1304,-0.1485,-0.1745,-0.1922,-0.1943,-0.2496,-0.316,-0.3304,-0.3414,-0.375,-0.5254,-0.5649,-0.5491,-0.5488,-0.5329,-0.5146,-0.4944,-0.5225,-0.5392,-0.5057,-0.5074,-0.5087,-0.498,-0.5148,-0.5315,-0.5511,-0.5375,-0.5517,-0.6279,-0.731,-0.8317,-0.8881,-1.0703,-1.2193,-1.2586,-1.5121,-1.7455,-1.8635,-2.0938,-2.2777,-2.3697,-2.3864,-2.4054,-2.4524,-2.4683,-2.4511,-2.3755,-2.2724,-2.1938,-2.1417,-1.7836,-1.3204,-0.753,0.1308,0.8523,1.4026,1.9527,2.2184,2.2231,2.248,2.2572,0.4704,0.416,0.3704,0.3963,0.4896,0.0,0.0,0.5664,0.0,0.6331,0.0,0.0,0.7133,0.7925,0.8458,0.8605,0.8223,0.7865,0.7785,0.6735,0.5746,0.5465,0.5168,0.4892,0.4627,0.4168,0.3861,0.3908,0.2945,0.2385,0.2409,0.1817,0.1496,0.1617,0.1493,0.1281,0.0718,0.1168,0.1348,0.1345,0.0448,-0.0,-0.009,-0.0538,-0.0987,-0.1436,-0.1436,-0.1418,-0.1388,-0.1361,-0.1332,-0.1381,-0.2147,-0.2873,-0.3645,-0.3651,-0.3667,-0.3796,-0.427,-0.4543,-0.4768,-0.5879,-0.5957,-0.5637,-0.5786,-0.5712,-0.5532,-0.5394,-0.6129,-0.659,-0.5173,-0.516,-0.5452,-0.4949,-0.546,-0.6273,-0.6931,-0.6583,-0.7118,-1.0554,-0.9534,-0.8964,-1.167,-1.3408,-1.3974,-1.2953,-1.6872,-1.9801,-1.9452,-2.2089,-2.4093,-2.4394,-2.466,-2.4924,-2.5289,-2.5582,-2.5444,-2.4903,-2.3491,-2.2451,-2.2035,-0.8822,-0.0996,0.0,1.3627,2.0906,2.1434,2.1965,2.2184,2.2184,2.2217,2.2231,0.3897,0.393,0.3912,0.3679,0.0,0.0,0.0,0.4662,0.5076,0.5585,0.5901,0.0,0.6554,0.6986,0.7158,0.6924,0.6983,0.6923,0.6744,0.6112,0.5493,0.5267,0.4933,0.4673,0.451,0.4007,0.3668,0.352,0.2775,0.2188,0.1849,0.1603,0.1486,0.1498,0.1193,0.1085,0.1166,0.0719,0.0809,0.1348,0.0449,0.0,-0.0,-0.0179,-0.0359,-0.0538,-0.1151,-0.1752,-0.2338,-0.2171,-0.2372,-0.2918,-0.3212,-0.3506,-0.3814,-0.381,-0.4112,-0.4599,-0.4788,-0.5227,-0.5786,-0.6187,-0.6106,-0.5786,-0.5864,-0.6173,-0.6371,-0.6435,-0.7326,-0.7947,-0.6499,-0.687,-0.7656,-0.7434,-0.7769,-0.825,-0.8538,-0.8435,-0.891,-1.1234,-1.2087,-1.2968,-1.4861,-1.7149,-1.8741,-1.8837,-2.083,-2.2551,-2.3122,-2.4169,-2.4984,-2.5095,-2.5377,-2.5523,-2.5397,-2.6029,-2.6177,-2.5672,-2.4511,-2.3259,-2.2069,-1.212,-0.4292,0.0727,1.053,1.7718,2.2184,2.2184,2.2184,2.2184,2.2184,2.2137,0.3422,0.3667,0.381,0.0,0.0,0.0,0.4121,0.4331,0.4653,0.5068,0.5577,0.6014,0.6371,0.6573,0.6621,0.6215,0.6317,0.6293,0.598,0.5629,0.5304,0.512,0.4788,0.4544,0.4514,0.3892,0.3353,0.3199,0.2467,0.188,0.1525,0.1115,0.0826,0.0739,0.0272,0.0,0.0,-0.0628,-0.0628,0.0,-0.0628,-0.1257,-0.1798,-0.1166,-0.1072,-0.133,-0.2114,-0.2777,-0.314,-0.3063,-0.3493,-0.4166,-0.4166,-0.4363,-0.4553,-0.4622,-0.4903,-0.5407,-0.5419,-0.5761,-0.6186,-0.6186,-0.6076,-0.6043,-0.6239,-0.6707,-0.7135,-0.7455,-0.8514,-0.9376,-0.8415,-0.8654,-0.918,-0.9175,-0.9471,-0.9846,-1.0284,-1.0135,-1.0763,-1.3327,-1.4471,-1.5739,-1.8147,-2.0026,-2.1599,-2.2722,-2.3482,-2.4389,-2.5398,-2.5892,-2.615,-2.6207,-2.6358,-2.6337,-2.5957,-2.657,-2.6711,-2.5988,-2.5183,-2.41,-2.2635,-1.529,-0.7536,0.0382,0.7553,1.4827,2.2184,2.2184,2.2184,2.2184,2.2184,2.2044,0.3468,0.3356,0.3219,0.0,0.0,0.0,0.4836,0.4836,0.486,0.5046,0.5812,0.652,0.6704,0.6902,0.695,0.6815,0.6554,0.6142,0.5749,0.528,0.501,0.501,0.4565,0.4334,0.4426,0.3447,0.2917,0.3038,0.2019,0.1461,0.1522,0.0275,-0.0542,-0.0922,-0.1264,-0.1877,-0.2957,-0.2957,-0.2957,-0.2957,-0.2957,-0.3862,-0.5594,-0.3769,-0.3367,-0.4177,-0.4617,-0.4319,-0.3577,-0.3904,-0.4405,-0.5004,-0.5004,-0.5553,-0.6338,-0.6338,-0.6338,-0.6338,-0.6338,-0.6159,-0.6027,-0.6027,-0.6075,-0.627,-0.7008,-0.7352,-0.7716,-0.8602,-0.9786,-1.0804,-1.0924,-1.0296,-0.9637,-0.9541,-1.022,-1.1051,-1.2004,-1.1643,-1.2615,-1.7465,-1.6583,-1.6628,-2.1451,-2.1747,-2.1834,-2.3469,-2.4235,-2.4912,-2.5825,-2.6893,-2.7675,-2.779,-2.7645,-2.7378,-2.7063,-2.7233,-2.6952,-2.5887,-2.5409,-2.4798,-2.3923,-1.6512,-0.855,-0.037,0.6905,1.4369,2.2067,2.2156,2.2184,2.2184,2.2184,2.2044,0.3326,0.3518,0.0,0.3635,0.0,0.0,0.0,0.512,0.0,0.0,0.6153,0.6325,0.6334,0.6649,0.6662,0.6091,0.6117,0.6039,0.5557,0.5191,0.4921,0.4835,0.4478,0.4334,0.4426,0.3447,0.2901,0.298,0.1365,0.0451,0.0456,-0.0721,-0.1795,-0.2531,-0.2691,-0.3401,-0.4853,-0.5103,-0.5013,-0.4853,-0.5008,-0.5282,-0.5673,-0.4958,-0.4816,-0.4957,-0.4404,-0.4467,-0.5109,-0.5456,-0.5704,-0.5944,-0.5944,-0.6103,-0.6338,-0.6338,-0.6412,-0.6549,-0.6806,-0.6954,-0.7183,-0.7487,-0.7615,-0.781,-0.837,-0.902,-0.9639,-1.0251,-1.1323,-1.2271,-1.249,-1.2524,-1.2505,-1.2345,-1.2652,-1.3098,-1.36,-1.4268,-1.5415,-1.7909,-1.9013,-2.0247,-2.2578,-2.3709,-2.4446,-2.4939,-2.5849,-2.664,-2.7321,-2.784,-2.8073,-2.7879,-2.7944,-2.786,-2.7545,-2.7423,-2.7297,-2.7089,-2.6317,-2.5472,-2.451,-1.6687,-1.1325,-0.9051,0.389,1.1746,1.403,1.9549,2.2184,2.2184,2.2184,2.1949,0.3317,0.3603,0.0,0.3934,0.4422,0.499,0.5322,0.0,0.0,0.0,0.6328,0.634,0.6242,0.6349,0.6352,0.5908,0.5908,0.5819,0.546,0.5191,0.4921,0.4748,0.448,0.4232,0.4104,0.2977,0.2251,0.2096,0.0451,-0.0537,-0.0537,-0.179,-0.2774,-0.3403,-0.3939,-0.4748,-0.566,-0.582,-0.5795,-0.559,-0.5793,-0.576,-0.5605,-0.5491,-0.5427,-0.5325,-0.4723,-0.5068,-0.599,-0.6244,-0.6338,-0.6338,-0.6338,-0.649,-0.6795,-0.6795,-0.7099,-0.7528,-0.7633,-0.7859,-0.8198,-0.8345,-0.8494,-0.8752,-0.9498,-0.997,-1.0554,-1.1547,-1.2284,-1.2956,-1.3658,-1.425,-1.4466,-1.3992,-1.4338,-1.4824,-1.518,-1.6184,-1.7523,-1.8864,-2.0359,-2.1921,-2.35,-2.4811,-2.5728,-2.6176,-2.6893,-2.7539,-2.7955,-2.8152,-2.8186,-2.8107,-2.8317,-2.8284,-2.791,-2.786,-2.7775,-2.7524,-2.6912,-2.6332,-2.5888,-2.0675,-1.632,-1.3236,-0.3848,0.3994,1.0191,1.5165,1.9192,2.2184,2.2184,2.2122,0.3519,0.0,0.0,0.4206,0.4785,0.0,0.6076,0.6175,0.6121,0.6306,0.643,0.6432,0.6428,0.6257,0.6083,0.6083,0.5819,0.5644,0.5371,0.5191,0.4921,0.4659,0.4391,0.4032,0.3496,0.2149,0.1074,0.0626,-0.0716,-0.1522,-0.1521,-0.2952,-0.3757,-0.3757,-0.5013,-0.5733,-0.5733,-0.5733,-0.567,-0.5464,-0.5662,-0.5589,-0.5358,-0.5477,-0.5401,-0.5245,-0.5451,-0.5786,-0.6208,-0.6237,-0.6338,-0.6412,-0.6412,-0.6872,-0.7633,-0.7633,-0.8241,-0.8964,-0.8734,-0.888,-0.9212,-0.8912,-0.8975,-0.9361,-1.0414,-1.0647,-1.0818,-1.2504,-1.2913,-1.3245,-1.4601,-1.5492,-1.5817,-1.5029,-1.5641,-1.6453,-1.66,-1.7668,-1.893,-2.0138,-2.1026,-2.2226,-2.42,-2.5217,-2.6068,-2.7115,-2.7473,-2.7725,-2.8005,-2.8069,-2.8152,-2.8411,-2.8652,-2.8684,-2.8332,-2.8446,-2.8189,-2.7539,-2.7252,-2.721,-2.7505,-2.6559,-2.2532,-1.5093,-1.4116,-0.6696,0.7502,0.886,1.356,2.123,2.123,2.1801,0.3471,0.3823,0.0,0.0,0.5135,0.5999,0.6641,0.6743,0.6812,0.677,0.676,0.6612,0.6432,0.6343,0.6257,0.5819,0.5733,0.5552,0.5099,0.501,0.4832,0.4478,0.3673,0.3044,0.2504,0.1163,0.0089,-0.0358,-0.179,-0.2686,-0.2772,-0.4024,-0.483,-0.5013,-0.5463,-0.5733,-0.5733,-0.5733,-0.567,-0.5464,-0.5491,-0.5464,-0.523,-0.5352,-0.5358,-0.528,-0.5491,-0.573,-0.5986,-0.6193,-0.6644,-0.7253,-0.7253,-0.771,-0.847,-0.847,-0.8775,-0.9266,-0.9474,-0.9908,-1.0384,-1.0615,-1.0829,-1.1184,-1.1898,-1.2136,-1.2403,-1.3143,-1.4004,-1.4806,-1.5536,-1.6453,-1.7406,-1.7937,-1.7899,-1.7726,-1.7929,-1.9007,-2.0062,-2.0692,-2.225,-2.3794,-2.4867,-2.5837,-2.6774,-2.769,-2.769,-2.7775,-2.825,-2.8396,-2.8541,-2.87,-2.8811,-2.8889,-2.8889,-2.8669,-2.8415,-2.8286,-2.7969,-2.7595,-2.7149,-2.6519,-2.5621,-2.4471,-1.735,-1.2064,-0.8663,-0.1878,0.5666,1.3789,1.3789,1.7254,0.3506,0.0,0.0,0.4883,0.0,0.618,0.6788,0.6909,0.6843,0.6983,0.7004,0.6789,0.6428,0.6428,0.6254,0.5733,0.5733,0.5552,0.5099,0.4652,0.4115,0.3673,0.2596,0.17,0.1162,-0.0179,-0.1252,-0.17,-0.2865,-0.3673,-0.3939,-0.4563,-0.5099,-0.5371,-0.5555,-0.5706,-0.5646,-0.5646,-0.5556,-0.5377,-0.5436,-0.5366,-0.5186,-0.5197,-0.5209,-0.5321,-0.5941,-0.6325,-0.6553,-0.7173,-0.771,-0.8093,-0.8093,-0.8546,-0.9296,-0.9255,-0.9659,-1.0273,-1.0249,-1.0713,-1.132,-1.1385,-1.2005,-1.2727,-1.3197,-1.3569,-1.3889,-1.4616,-1.5329,-1.6109,-1.7017,-1.8083,-1.9149,-2.0287,-2.0018,-1.9554,-1.9932,-2.0986,-2.1918,-2.2225,-2.3395,-2.4496,-2.4908,-2.596,-2.6893,-2.7539,-2.7625,-2.7675,-2.7989,-2.8235,-2.8429,-2.8493,-2.8748,-2.892,-2.9013,-2.8873,-2.8716,-2.8511,-2.8479,-2.8229,-2.7842,-2.7503,-2.7349,-2.7287,-2.2686,-1.8402,-1.4627,-0.9939,-0.3428,0.4522,0.4388,0.9119,0.3528,0.0,0.4352,0.5309,0.5828,0.0,0.6841,0.6805,0.6822,0.7007,0.7105,0.6962,0.652,0.6428,0.6254,0.5733,0.5735,0.5466,0.4832,0.4026,0.3312,0.2686,0.1342,0.0268,-0.0179,-0.1609,-0.2593,-0.3135,-0.3941,-0.4478,-0.4748,-0.4907,-0.5161,-0.5432,-0.5593,-0.5621,-0.5521,-0.5499,-0.5388,-0.5186,-0.529,-0.5284,-0.5184,-0.511,-0.5288,-0.5628,-0.6475,-0.7092,-0.7544,-0.8277,-0.8722,-0.8869,-0.8869,-0.9326,-1.006,-1.0104,-1.0701,-1.1501,-1.1187,-1.1655,-1.2305,-1.2197,-1.2885,-1.3862,-1.4348,-1.4728,-1.5309,-1.6222,-1.6782,-1.7385,-1.8812,-1.989,-2.0991,-2.2212,-2.198,-2.1623,-2.1981,-2.2952,-2.3728,-2.3846,-2.4483,-2.5007,-2.4951,-2.596,-2.6841,-2.7218,-2.7423,-2.7575,-2.7675,-2.7974,-2.8235,-2.8284,-2.8637,-2.8904,-2.892,-2.9029,-2.8982,-2.8606,-2.8811,-2.8842,-2.8779,-2.8732,-2.8341,-2.7581,-2.7442,-2.4236,-1.7724,-1.7056,-1.2646,-0.4944,-0.518,-0.0145,0.0,0.0,0.4827,0.0,0.5827,0.6215,0.0,0.6885,0.688,0.7054,0.7132,0.6962,0.652,0.6428,0.6254,0.5733,0.5741,0.5292,0.3937,0.3312,0.2686,0.17,0.0358,-0.0716,-0.1163,-0.2508,-0.3585,-0.4119,-0.448,-0.4748,-0.4921,-0.51,-0.531,-0.5486,-0.5472,-0.5409,-0.5393,-0.5287,-0.5219,-0.5186,-0.5203,-0.5203,-0.5189,-0.5281,-0.5851,-0.671,-0.6861,-0.7476,-0.8456,-0.8421,-0.8783,-0.9374,-0.9374,-0.9891,-1.0652,-1.1058,-1.1784,-1.2687,-1.2558,-1.3247,-1.4074,-1.384,-1.409,-1.4537,-1.5053,-1.561,-1.6335,-1.7205,-1.8235,-1.9392,-2.0583,-2.1471,-2.2408,-2.3682,-2.3917,-2.3787,-2.3433,-2.3878,-2.4429,-2.4854,-2.5714,-2.6336,-2.6122,-2.6486,-2.6974,-2.7473,-2.7372,-2.7437,-2.7905,-2.8088,-2.8332,-2.87,-2.8842,-2.8967,-2.9075,-2.9075,-2.9075,-2.9029,-2.8967,-2.8951,-2.9028,-2.9044,-2.9088,-2.9098,-2.7968,-2.6855,-2.5828,-2.5092,-2.0506,-1.2359,-1.2397,-0.7474,0.3694,0.4408,0.5033,0.0,0.5806,0.6138,0.6659,0.6681,0.668,0.6833,0.68,0.6659,0.6309,0.6298,0.6083,0.5738,0.5149,0.4154,0.259,0.1861,0.1149,0.0357,-0.1074,-0.2149,-0.2597,-0.3494,-0.4121,-0.448,-0.4659,-0.4812,-0.5102,-0.514,-0.5258,-0.545,-0.5398,-0.5336,-0.5268,-0.5214,-0.5121,-0.4991,-0.5912,-0.6261,-0.611,-0.6575,-0.6812,-0.6984,-0.7281,-0.809,-0.9183,-0.9515,-0.9763,-0.9936,-1.0079,-1.0425,-1.0929,-1.1655,-1.2206,-1.2661,-1.308,-1.3613,-1.404,-1.4067,-1.4722,-1.5744,-1.6356,-1.72,-1.8199,-1.9034,-2.0009,-2.0991,-2.167,-2.2445,-2.3267,-2.4105,-2.4439,-2.4654,-2.4738,-2.5007,-2.5425,-2.6011,-2.6467,-2.6759,-2.6654,-2.6774,-2.6893,-2.713,-2.7181,-2.7284,-2.7539,-2.794,-2.8284,-2.8429,-2.8668,-2.8858,-2.892,-2.8982,-2.8967,-2.8967,-2.9013,-2.9106,-2.9319,-2.909,-2.9166,-2.9601,-2.8698,-2.8295,-2.8326,-2.7767,-2.5563,-2.1973,-2.2076,-1.7159,0.0,0.0,0.4912,0.529,0.5603,0.5889,0.6304,0.6437,0.6403,0.6471,0.6368,0.6264,0.6123,0.6106,0.5965,0.5744,0.4511,0.2987,0.1518,0.0355,-0.0532,-0.0984,-0.225,-0.3246,-0.3588,-0.4032,-0.438,-0.4625,-0.4712,-0.4844,-0.5165,-0.5217,-0.5328,-0.5576,-0.5539,-0.5557,-0.5618,-0.5586,-0.547,-0.5429,-0.6549,-0.7064,-0.7026,-0.7512,-0.7638,-0.7504,-0.7982,-0.8783,-0.9741,-1.026,-1.0405,-1.0323,-1.059,-1.0858,-1.1268,-1.215,-1.2683,-1.3048,-1.3725,-1.4158,-1.4444,-1.4479,-1.5562,-1.6927,-1.7567,-1.868,-1.9974,-2.0837,-2.1667,-2.2347,-2.2847,-2.3446,-2.4105,-2.458,-2.4937,-2.537,-2.592,-2.6136,-2.639,-2.6953,-2.7159,-2.721,-2.7056,-2.7071,-2.7034,-2.7026,-2.713,-2.7233,-2.7386,-2.784,-2.8186,-2.8284,-2.8589,-2.8747,-2.8794,-2.8858,-2.8873,-2.8904,-2.8967,-2.9152,-2.947,-2.9182,-2.9319,-2.9853,-2.9364,-2.909,-2.9074,-2.8748,-2.8541,-2.8396,-2.8387,-2.4575,0.3431,0.3768,0.0,0.4723,0.4966,0.5252,0.5899,0.6047,0.6019,0.5931,0.6,0.6025,0.5791,0.5919,0.5959,0.5741,0.3764,0.1966,0.1163,-0.1002,-0.2383,-0.2159,-0.3012,-0.3667,-0.3593,-0.4032,-0.4353,-0.4526,-0.4695,-0.4825,-0.4972,-0.5107,-0.5445,-0.6006,-0.5956,-0.619,-0.6799,-0.6651,-0.6712,-0.6982,-0.6919,-0.7142,-0.7442,-0.7551,-0.8063,-0.8915,-0.9056,-0.9581,-1.0257,-1.0012,-1.0038,-1.025,-1.0523,-1.106,-1.1723,-1.2524,-1.3567,-1.4612,-1.4755,-1.5496,-1.6297,-1.6055,-1.6848,-1.7958,-1.8315,-1.9674,-2.126,-2.2091,-2.2871,-2.3662,-2.4234,-2.4724,-2.5189,-2.555,-2.592,-2.639,-2.6916,-2.7159,-2.7297,-2.7464,-2.7845,-2.8008,-2.7565,-2.7408,-2.7452,-2.769,-2.7437,-2.7386,-2.7905,-2.8005,-2.8152,-2.8525,-2.8573,-2.8684,-2.8794,-2.8794,-2.8811,-2.8904,-2.8904,-2.909,-2.947,-2.947,-2.9649,-2.9973,-2.9722,-2.9393,-2.9074,-2.909,-2.8826,-2.8381,-2.775,-2.7195,0.0,0.0,0.0,0.4309,0.468,0.5069,0.5403,0.5661,0.5816,0.5954,0.578,0.5753,0.6025,0.4924,0.3919,0.3528,0.2466,0.102,-0.0874,-0.1748,-0.2457,-0.3042,-0.343,-0.3707,-0.4036,-0.4389,-0.4619,-0.4695,-0.4944,-0.5037,-0.5102,-0.5691,-0.6,-0.6151,-0.6669,-0.6918,-0.6865,-0.6966,-0.6909,-0.6792,-0.7744,-0.8307,-0.847,-0.8905,-0.94,-0.9814,-0.9863,-1.0021,-1.0202,-1.0111,-1.0352,-1.0715,-1.1022,-1.165,-1.2595,-1.3494,-1.423,-1.4935,-1.5543,-1.6068,-1.6465,-1.6818,-1.7801,-1.9044,-1.9842,-2.0773,-2.1773,-2.2874,-2.3229,-2.3558,-2.4557,-2.5118,-2.5508,-2.6096,-2.6443,-2.6811,-2.7291,-2.766,-2.7944,-2.8155,-2.8365,-2.8381,-2.8122,-2.8253,-2.8334,-2.8271,-2.8076,-2.8027,-2.8383,-2.8186,-2.8103,-2.8444,-2.8493,-2.8493,-2.8556,-2.8636,-2.8668,-2.8716,-2.8826,-2.8951,-2.909,-2.9198,-2.938,-2.9738,-2.9633,-2.9347,-2.8838,-2.9214,-2.8944,-2.8031,-2.8326,-2.8186,0.2312,0.0,0.0,0.3289,0.3606,0.3992,0.4564,0.482,0.4998,0.5196,0.4822,0.4453,0.4574,0.3011,0.1568,0.109,0.0747,-0.0083,-0.1969,-0.232,-0.2685,-0.3452,-0.3773,-0.3974,-0.4393,-0.4541,-0.4745,-0.5157,-0.5278,-0.5501,-0.5772,-0.6247,-0.6655,-0.6706,-0.7395,-0.7708,-0.7538,-0.7601,-0.7554,-0.7496,-0.8458,-0.9045,-0.9173,-0.9685,-1.0155,-1.0447,-1.0462,-1.0444,-1.0379,-1.0444,-1.0836,-1.1483,-1.1754,-1.2447,-1.3364,-1.4178,-1.4771,-1.5289,-1.6247,-1.6707,-1.6899,-1.7633,-1.8936,-2.0465,-2.1156,-2.2159,-2.3208,-2.4169,-2.4273,-2.4351,-2.5218,-2.5729,-2.6258,-2.7108,-2.7449,-2.77,-2.8158,-2.8253,-2.8284,-2.8493,-2.8589,-2.8573,-2.8573,-2.8653,-2.8732,-2.8638,-2.8448,-2.8415,-2.8716,-2.8558,-2.8525,-2.8668,-2.8668,-2.8605,-2.8605,-2.8573,-2.8525,-2.8573,-2.8748,-2.8826,-2.8889,-2.8982,-2.9152,-2.9348,-2.9499,-2.9279,-2.8725,-2.9124,-2.8846,-2.8031,-2.8402,-2.8313,0.0,0.0,0.0,0.16,0.1575,0.1953,0.3348,0.3562,0.3509,0.3519,0.294,0.2205,0.1402,0.0235,-0.0796,-0.1249,-0.126,-0.1513,-0.2101,-0.2699,-0.3105,-0.3481,-0.4049,-0.448,-0.4665,-0.4566,-0.4894,-0.5868,-0.5822,-0.6165,-0.6872,-0.6945,-0.7176,-0.7791,-0.8212,-0.8538,-0.889,-0.8518,-0.8638,-0.9259,-0.9071,-0.9151,-0.9484,-0.974,-1.0168,-1.0836,-1.0954,-1.0954,-1.0899,-1.1017,-1.1578,-1.2359,-1.2624,-1.3235,-1.4079,-1.4505,-1.5093,-1.5894,-1.6877,-1.7424,-1.7731,-1.8489,-2.025,-2.2109,-2.2137,-2.3771,-2.5658,-2.5957,-2.6026,-2.6147,-2.6283,-2.6759,-2.7414,-2.8606,-2.8904,-2.9028,-2.9496,-2.8873,-2.8284,-2.8396,-2.8541,-2.8653,-2.8873,-2.8653,-2.8525,-2.8858,-2.8637,-2.851,-2.8794,-2.9091,-2.9305,-2.9305,-2.9182,-2.909,-2.912,-2.87,-2.8493,-2.8621,-2.8621,-2.8684,-2.8794,-2.8842,-2.8904,-2.8904,-2.9289,-2.9235,-2.8682,-2.8725,-2.8624,-2.8464,-2.7846,-2.7742,0.0,0.0,0.0,0.0,0.0,0.0,0.2137,0.2349,0.2417,0.2044,0.1689,0.0958,-0.0297,-0.0819,-0.1047,-0.1138,-0.1254,-0.1612,-0.2375,-0.2654,-0.3039,-0.3898,-0.4239,-0.4415,-0.4548,-0.5145,-0.5616,-0.5813,-0.6334,-0.672,-0.6872,-0.745,-0.8068,-0.8622,-0.8731,-0.8757,-0.8669,-0.8503,-0.8668,-0.906,-0.918,-0.9344,-0.9484,-0.9798,-1.0288,-1.0836,-1.1101,-1.1717,-1.2581,-1.2143,-1.2451,-1.3208,-1.3369,-1.402,-1.497,-1.5576,-1.6233,-1.6877,-1.7589,-1.8178,-1.8691,-1.9659,-2.1186,-2.2777,-2.3506,-2.454,-2.5602,-2.6337,-2.6226,-2.6134,-2.7164,-2.7784,-2.8225,-2.8732,-2.9027,-2.9287,-2.9406,-2.9422,-2.9319,-2.9075,-2.8811,-2.8653,-2.8873,-2.9059,-2.9243,-2.9409,-2.9136,-2.8997,-2.9259,-2.892,-2.8779,-2.9136,-2.8982,-2.9029,-2.9454,-2.9198,-2.9029,-2.8967,-2.9059,-2.8982,-2.8684,-2.8779,-2.8826,-2.8826,-2.8967,-2.8939,-2.8646,-2.8942,-2.8747,-2.8021,-2.8162,-2.8608,0.0,0.0,-0.0325,-0.0409,0.0,0.0,0.0841,0.0701,0.0491,0.0641,0.0,-0.079,-0.1453,-0.1602,-0.1602,-0.153,-0.1644,-0.192,-0.2439,-0.2728,-0.32,-0.413,-0.4294,-0.4387,-0.4704,-0.5446,-0.5994,-0.6314,-0.6964,-0.743,-0.7633,-0.828,-0.8695,-0.8913,-0.9018,-0.9014,-0.8864,-0.8827,-0.9022,-0.9344,-0.9773,-1.0028,-1.0161,-1.0724,-1.1337,-1.1943,-1.2212,-1.2956,-1.4001,-1.3623,-1.3674,-1.4052,-1.424,-1.4883,-1.57,-1.6358,-1.7034,-1.7699,-1.8661,-1.9417,-2.0153,-2.1336,-2.2862,-2.4371,-2.5104,-2.5918,-2.6772,-2.7309,-2.7265,-2.7221,-2.8165,-2.8622,-2.8888,-2.9313,-2.9613,-2.9805,-3.0038,-3.0054,-2.9924,-2.9617,-2.9182,-2.8982,-2.9182,-2.9227,-2.9289,-2.938,-2.9243,-2.9152,-2.9305,-2.9106,-2.9044,-2.9409,-2.9335,-2.9396,-2.981,-2.9454,-2.9227,-2.9303,-2.9289,-2.9243,-2.9106,-2.9243,-2.9213,-2.9014,-2.9106,-2.8955,-2.8619,-2.89,-2.8878,-2.8549,-2.8739,-2.9225,0.0,0.0,0.0,-0.2003,-0.1918,0.0,-0.0543,-0.117,-0.1681,-0.0699,-0.1611,-0.2473,-0.2309,-0.2247,-0.2248,-0.2327,-0.2328,-0.235,-0.2562,-0.2981,-0.3551,-0.4142,-0.4369,-0.4585,-0.502,-0.5644,-0.6284,-0.7001,-0.7565,-0.8165,-0.8703,-0.9089,-0.9205,-0.8942,-0.9172,-0.9289,-0.9298,-0.9456,-0.9658,-0.9926,-1.078,-1.1142,-1.1135,-1.195,-1.2749,-1.3528,-1.3674,-1.424,-1.5029,-1.5088,-1.501,-1.4883,-1.5196,-1.5816,-1.6574,-1.7069,-1.7776,-1.8637,-1.9888,-2.0976,-2.1974,-2.3083,-2.4718,-2.6263,-2.6591,-2.7491,-2.8444,-2.8636,-2.8732,-2.8919,-2.9241,-2.9332,-2.9512,-3.0208,-3.0393,-3.0518,-3.0935,-3.0699,-3.0335,-3.0091,-2.9689,-2.9425,-2.9633,-2.9348,-2.909,-2.9167,-2.9167,-2.9167,-2.9121,-2.938,-2.9649,-2.993,-2.981,-2.9853,-3.0172,-2.9544,-2.9303,-2.9633,-2.939,-2.9345,-2.9705,-2.9756,-2.9641,-2.9305,-2.9425,-2.9255,-2.8775,-2.8709,-2.8936,-2.9576,-2.9261,-2.956,-0.3919,-0.3394,-0.2984,-0.2937,-0.27,0.0,-0.2073,-0.2094,-0.2174,-0.1891,-0.2104,-0.2388,-0.2536,-0.2538,-0.2698,-0.3116,-0.3129,-0.3013,-0.2941,-0.3125,-0.35,-0.4127,-0.4883,-0.5427,-0.5615,-0.6691,-0.7447,-0.7606,-0.8187,-0.8703,-0.9165,-0.9246,-0.9283,-0.9145,-0.9583,-0.969,-0.9291,-1.0238,-1.0703,-1.0773,-1.164,-1.195,-1.1826,-1.2451,-1.3,-1.3528,-1.3786,-1.4341,-1.5029,-1.5758,-1.5968,-1.5843,-1.6026,-1.6733,-1.7752,-1.8424,-1.9552,-2.0719,-2.1053,-2.2251,-2.3616,-2.3865,-2.496,-2.6312,-2.7037,-2.7794,-2.8493,-2.9029,-2.9364,-2.9661,-2.9957,-3.013,-3.0342,-3.0692,-3.0895,-3.1055,-3.1151,-3.1095,-3.0998,-3.1044,-3.0377,-2.9941,-3.0123,-3.0081,-2.9951,-2.9705,-2.9677,-2.9544,-2.9167,-2.9167,-2.9289,-2.956,-2.938,-2.9499,-3.0225,-2.9793,-2.9677,-3.006,-2.9145,-2.8774,-2.9241,-2.8806,-2.8774,-2.9289,-2.9454,-2.9685,-2.9969,-2.8739,-2.8639,-2.9559,-2.8938,-2.9449,-0.4807,-0.435,-0.3957,-0.3811,-0.3553,0.0,0.0,-0.2982,-0.3,-0.2754,-0.2947,-0.3343,-0.3711,-0.3741,-0.4004,-0.4629,-0.438,-0.419,-0.45,-0.418,-0.4112,-0.4525,-0.5372,-0.6007,-0.6163,-0.7169,-0.8012,-0.8475,-0.8861,-0.9165,-0.9549,-0.9771,-0.9775,-0.9578,-1.0049,-1.0073,-0.9664,-1.0661,-1.1156,-1.1156,-1.2336,-1.2887,-1.2879,-1.3494,-1.3983,-1.4401,-1.4914,-1.5391,-1.5816,-1.6687,-1.7224,-1.749,-1.7302,-1.7775,-1.8756,-1.9723,-2.0862,-2.1961,-2.2691,-2.3639,-2.4601,-2.4964,-2.5858,-2.6877,-2.7396,-2.8155,-2.8982,-2.9576,-2.987,-3.0087,-3.0359,-3.0526,-3.0651,-3.0871,-3.0992,-3.1072,-3.1095,-3.1112,-3.1134,-3.1252,-3.0918,-3.0576,-3.0559,-3.0418,-3.0251,-3.0081,-3.0097,-3.0054,-2.9853,-2.9793,-2.981,-2.9842,-2.9754,-2.9782,-3.0011,-2.9837,-2.9708,-2.9739,-2.9195,-2.8799,-2.8725,-2.8767,-2.9065,-2.9633,-2.9766,-2.9789,-2.9724,-2.8679,-2.8808,-3.0028,-2.9353,-2.9682,-0.5845,-0.5325,-0.5017,-0.4815,-0.4547,-0.4217,0.0,0.0,0.0,-0.3713,-0.4134,-0.469,-0.5148,-0.5309,-0.5548,-0.6194,-0.5732,-0.5583,-0.6232,-0.5722,-0.5312,-0.5216,-0.5935,-0.6519,-0.6813,-0.7622,-0.8475,-0.9322,-0.9397,-0.962,-0.9992,-1.0368,-1.046,-1.0207,-1.049,-1.0571,-1.0322,-1.1143,-1.167,-1.1794,-1.3139,-1.3872,-1.3992,-1.4706,-1.5186,-1.5488,-1.6255,-1.6641,-1.681,-1.7665,-1.8412,-1.8967,-1.8672,-1.9071,-2.0026,-2.1147,-2.2175,-2.3178,-2.414,-2.4825,-2.5435,-2.5758,-2.6657,-2.7612,-2.7809,-2.8598,-2.956,-3.0087,-3.0274,-3.0359,-3.0651,-3.0733,-3.0773,-3.0912,-3.0952,-3.0992,-3.1117,-3.1117,-3.1196,-3.1368,-3.1368,-3.1213,-3.0982,-3.0723,-3.0518,-3.046,-3.0559,-3.0601,-3.0518,-3.0344,-3.0286,-3.0241,-3.0143,-3.0009,-2.9995,-2.9968,-2.9868,-2.9674,-2.9279,-2.8982,-2.881,-2.9317,-2.9733,-3.0097,-3.0054,-2.9796,-2.9239,-2.8874,-2.9268,-3.0294,-2.9686,-2.9859,-0.7423,-0.6976,-0.6662,-0.6597,-0.6005,-0.5481,-0.5543,0.0,-0.5254,-0.5106,0.0,-0.6211,-0.6485,0.0,0.0,-0.7179,-0.7151,-0.709,-0.7187,-0.7509,-0.7479,-0.6533,-0.678,-0.724,-0.7643,-0.8537,-0.9322,-0.9771,-0.9846,-0.9992,-1.0443,-1.0663,-1.0831,-1.0898,-1.1001,-1.1195,-1.1523,-1.2242,-1.2895,-1.3442,-1.4359,-1.4911,-1.5029,-1.5806,-1.6197,-1.6379,-1.7146,-1.7512,-1.772,-1.8596,-1.9125,-1.9475,-1.9797,-2.0741,-2.1961,-2.2899,-2.417,-2.5321,-2.4534,-2.531,-2.6544,-2.5633,-2.6658,-2.8227,-2.8446,-2.9232,-3.013,-3.0267,-3.0452,-3.0692,-3.0831,-3.0912,-3.0975,-3.0975,-3.1072,-3.1252,-3.1545,-3.162,-3.1714,-3.2109,-3.1896,-3.16,-3.1462,-3.1385,-3.1291,-3.1044,-3.1044,-3.0908,-3.0559,-2.988,-2.9691,-3.041,-2.984,-2.9748,-3.0616,-3.0502,-3.0584,-3.0954,-2.9191,-2.877,-3.0212,-3.0228,-3.0269,-3.0426,-3.0326,-2.9947,-2.9376,-2.984,-2.9972,-2.9686,-2.8938,-2.9376,-0.9169,-0.8779,-0.8458,-0.8071,-0.7687,-0.7293,-0.7037,-0.6793,-0.6675,-0.6428,0.0,0.0,0.0,0.0,0.0,0.0,-0.868,-0.8529,-0.8935,-0.8857,-0.8401,-0.7647,-0.8133,-0.8612,-0.8802,-0.9316,-0.9712,-1.0018,-1.014,-1.0443,-1.0962,-1.1111,-1.1212,-1.1371,-1.157,-1.1808,-1.2014,-1.2881,-1.3502,-1.3855,-1.4725,-1.5371,-1.5874,-1.6255,-1.6698,-1.7291,-1.8112,-1.8543,-1.8744,-1.9697,-2.0219,-2.0625,-2.1772,-2.2358,-2.2715,-2.4165,-2.5301,-2.612,-2.6574,-2.6948,-2.7211,-2.7249,-2.786,-2.8726,-2.9524,-2.9969,-3.0231,-3.0384,-3.051,-3.0651,-3.0992,-3.1112,-3.1173,-3.1406,-3.1521,-3.1596,-3.1841,-3.186,-3.1896,-3.1932,-3.1986,-3.1967,-3.1765,-3.1559,-3.1351,-3.124,-3.1274,-3.1274,-3.1162,-3.0835,-3.069,-3.0834,-3.056,-3.0413,-3.0608,-3.0683,-3.058,-3.032,-2.9104,-2.8926,-3.0112,-3.0168,-3.0329,-3.0683,-3.0804,-3.0453,-2.9559,-2.9499,-2.9299,-2.9015,-2.9076,-2.9459,-1.0857,-1.0544,-1.0116,-0.9539,-0.9291,-0.9035,-0.8522,-0.8336,-0.8149,-0.7927,-0.8058,0.0,0.0,0.0,-0.944,-1.0279,0.0,-0.9896,-1.0461,-1.0142,-0.9515,-0.8811,-0.9322,-0.975,-0.9774,-0.9966,-1.0165,-1.0277,-1.063,-1.1007,-1.1378,-1.1736,-1.1978,-1.2056,-1.2372,-1.2646,-1.2913,-1.3479,-1.3974,-1.4392,-1.5177,-1.5874,-1.6482,-1.6968,-1.7567,-1.8263,-1.9085,-1.9606,-1.9863,-2.0646,-2.1166,-2.1615,-2.3153,-2.371,-2.3908,-2.5637,-2.652,-2.7055,-2.8279,-2.8255,-2.7806,-2.8551,-2.896,-2.9354,-3.0256,-3.0533,-3.0593,-3.0757,-3.0797,-3.0878,-3.1269,-3.1346,-3.1462,-3.1726,-3.1819,-3.1912,-3.2127,-3.2004,-3.1951,-3.2127,-3.2124,-3.2121,-3.2144,-3.1823,-3.1582,-3.1507,-3.1562,-3.1634,-3.1596,-3.1387,-3.1261,-3.1201,-3.1031,-3.0903,-3.0828,-3.0965,-3.074,-2.9943,-2.9606,-2.9627,-2.9926,-3.0264,-3.0581,-3.0828,-3.1201,-3.0705,-2.9376,-2.9248,-2.8895,-2.8323,-2.8858,-2.917,-1.2281,-1.1927,-1.1648,-1.1329,-1.071,-1.0268,-1.0205,-0.9964,-0.9716,-0.9709,-1.0003,-1.034,-1.034,-1.0492,-1.0673,-1.0836,-1.1051,0.0,0.0,-1.1528,-1.1236,-1.0265,-1.0126,-1.0245,-1.0329,-1.0592,-1.0748,-1.0792,-1.1323,-1.1592,-1.1319,-1.2494,-1.3157,-1.315,-1.3386,-1.39,-1.4737,-1.4233,-1.4451,-1.5352,-1.6093,-1.6662,-1.7,-1.8274,-1.9032,-1.9371,-2.0055,-2.0673,-2.1131,-2.1326,-2.1712,-2.2287,-2.3425,-2.4758,-2.6153,-2.7435,-2.8276,-2.8715,-2.8834,-2.8664,-2.8439,-2.8851,-2.9451,-3.0099,-3.0316,-3.0902,-3.1466,-3.1542,-3.1579,-3.1579,-3.1746,-3.18,-3.18,-3.18,-3.1894,-3.2109,-3.2488,-3.2065,-3.1964,-3.3112,-3.2409,-3.1872,-3.2638,-3.2553,-3.2283,-3.2039,-3.1967,-3.1877,-3.1538,-3.0902,-3.0694,-3.1393,-3.0925,-3.0808,-3.1528,-3.1709,-3.1362,-3.0424,-3.1039,-3.0993,-3.0129,-3.0849,-3.1201,-3.1021,-3.1389,-3.0619,-2.8645,-2.9671,-2.9299,-2.7626,-2.7715,-2.8082,-1.3957,-1.3717,-1.3425,-1.2634,-1.2258,-1.1958,-1.1413,-1.1101,-1.0919,-1.0793,-1.0812,-1.088,-1.1209,-1.1129,-1.1188,-1.165,-1.156,-1.1567,0.0,-1.1951,-1.1937,-1.1871,-1.1429,-1.1076,-1.1018,-1.1224,-1.1217,-1.0893,-1.1223,-1.1677,-1.2205,-1.2848,-1.3448,-1.4099,-1.4274,-1.4558,-1.495,-1.4924,-1.5177,-1.5604,-1.6446,-1.7168,-1.7765,-1.878,-1.9658,-2.0484,-2.0908,-2.1444,-2.2095,-2.236,-2.2831,-2.3493,-2.4602,-2.5517,-2.6372,-2.7451,-2.8568,-2.9548,-2.9786,-3.0132,-3.053,-3.0571,-3.0776,-3.109,-3.1313,-3.1448,-3.1504,-3.1521,-3.16,-3.1591,-3.1234,-3.1655,-3.2109,-3.1703,-3.2117,-3.2512,-3.2219,-3.2402,-3.2522,-3.2253,-3.2523,-3.2775,-3.2791,-3.2957,-3.288,-3.2283,-3.2214,-3.2231,-3.2232,-3.1776,-3.1581,-3.1913,-3.1578,-3.1433,-3.16,-3.1709,-3.1642,-3.1364,-3.1551,-3.1568,-3.1313,-3.1537,-3.16,-3.1411,-3.1062,-3.0199,-2.8777,-2.825,-2.7471,-2.6403,-2.5878,-2.6472,-1.5235,-1.5001,-1.4638,-1.3795,-1.3554,-1.3373,-1.2658,-1.2351,-1.2166,-1.1864,-1.174,-1.1677,-1.184,-1.1739,-1.184,-1.2291,-1.2137,-1.2102,0.0,-1.2564,-1.2667,-1.2983,-1.2369,-1.1799,-1.1543,-1.1881,-1.1803,-1.1129,-1.1621,-1.2256,-1.3011,-1.3605,-1.4269,-1.5029,-1.529,-1.5435,-1.5422,-1.5571,-1.5801,-1.6114,-1.6944,-1.782,-1.8566,-1.9567,-2.0383,-2.1153,-2.1458,-2.2063,-2.2815,-2.3054,-2.3649,-2.4405,-2.5201,-2.599,-2.6786,-2.7695,-2.896,-3.0266,-3.0751,-3.1317,-3.1802,-3.1785,-3.1785,-3.1856,-3.2037,-3.1965,-3.1871,-3.2223,-3.1966,-3.1586,-3.1532,-3.1646,-3.1703,-3.1622,-3.1854,-3.2097,-3.1936,-3.2139,-3.2229,-3.187,-3.2433,-3.299,-3.3014,-3.3208,-3.3196,-3.2619,-3.2553,-3.2553,-3.257,-3.2351,-3.2196,-3.2266,-3.2038,-3.1802,-3.1596,-3.1671,-3.1709,-3.1709,-3.1746,-3.1699,-3.1495,-3.1513,-3.1562,-3.1711,-3.0765,-2.9986,-2.9476,-2.7777,-2.6565,-2.5768,-2.4985,-2.538]}]]